<?xml version="1.0" encoding="UTF-8" standalone="no" ?>
<gpx xmlns="http://www.topografix.com/GPX/1/1" xmlns:xsi="http://www.w3.org/2001/XMLSchema-instance" xsi:schemaLocation="http://www.topografix.com/GPX/1/1 http://www.topografix.com/GPX/1/1/gpx.xsd" version="1.1" creator="VisuGPX - https://www.visugpx.com">
  <metadata>
    <name>Charleval 14Km2...................</name>
    <desc><![CDATA[Boucle A-R au départ du cimetière de Charleval]]></desc>
  </metadata>
  <trk>
    <name><![CDATA[Charleval 14Km2..................._1]]></name>
    <trkseg>
      <trkpt lat="49.37497" lon="1.38591">
        <ele>45</ele>
        <time>2017-02-07T14:05:29Z</time>
      </trkpt>
      <trkpt lat="49.37497" lon="1.38595">
        <ele>45</ele>
        <time>2017-02-07T14:05:29Z</time>
      </trkpt>
      <trkpt lat="49.37495" lon="1.38598">
        <ele>45</ele>
        <time>2017-02-07T14:05:30Z</time>
      </trkpt>
      <trkpt lat="49.37496" lon="1.38605">
        <ele>45</ele>
        <time>2017-02-07T14:05:30Z</time>
      </trkpt>
      <trkpt lat="49.37494" lon="1.38607">
        <ele>45</ele>
        <time>2017-02-07T14:05:30Z</time>
      </trkpt>
      <trkpt lat="49.37495" lon="1.38614">
        <ele>45</ele>
        <time>2017-02-07T14:05:45Z</time>
      </trkpt>
      <trkpt lat="49.37493" lon="1.38622">
        <ele>45</ele>
        <time>2017-02-07T14:05:45Z</time>
      </trkpt>
      <trkpt lat="49.37493" lon="1.38627">
        <ele>46</ele>
        <time>2017-02-07T14:05:45Z</time>
      </trkpt>
      <trkpt lat="49.37491" lon="1.38634">
        <ele>46</ele>
        <time>2017-02-07T14:05:45Z</time>
      </trkpt>
      <trkpt lat="49.37489" lon="1.3864">
        <ele>46</ele>
        <time>2017-02-07T14:06:05Z</time>
      </trkpt>
      <trkpt lat="49.37489" lon="1.38644">
        <ele>46</ele>
        <time>2017-02-07T14:06:05Z</time>
      </trkpt>
      <trkpt lat="49.37489" lon="1.38651">
        <ele>46</ele>
        <time>2017-02-07T14:06:05Z</time>
      </trkpt>
      <trkpt lat="49.37488" lon="1.38652">
        <ele>46</ele>
        <time>2017-02-07T14:06:05Z</time>
      </trkpt>
      <trkpt lat="49.37487" lon="1.38661">
        <ele>46</ele>
        <time>2017-02-07T14:06:06Z</time>
      </trkpt>
      <trkpt lat="49.37488" lon="1.38667">
        <ele>46</ele>
        <time>2017-02-07T14:06:24Z</time>
      </trkpt>
      <trkpt lat="49.3749" lon="1.38675">
        <ele>46</ele>
        <time>2017-02-07T14:06:24Z</time>
      </trkpt>
      <trkpt lat="49.37491" lon="1.38682">
        <ele>46</ele>
        <time>2017-02-07T14:06:24Z</time>
      </trkpt>
      <trkpt lat="49.37493" lon="1.38691">
        <ele>46</ele>
        <time>2017-02-07T14:06:24Z</time>
      </trkpt>
      <trkpt lat="49.37494" lon="1.38696">
        <ele>46</ele>
        <time>2017-02-07T14:06:37Z</time>
      </trkpt>
      <trkpt lat="49.37495" lon="1.38704">
        <ele>46</ele>
        <time>2017-02-07T14:06:38Z</time>
      </trkpt>
      <trkpt lat="49.37497" lon="1.38714">
        <ele>47</ele>
        <time>2017-02-07T14:06:38Z</time>
      </trkpt>
      <trkpt lat="49.37498" lon="1.3872">
        <ele>47</ele>
        <time>2017-02-07T14:06:38Z</time>
      </trkpt>
      <trkpt lat="49.37501" lon="1.38724">
        <ele>47</ele>
        <time>2017-02-07T14:06:54Z</time>
      </trkpt>
      <trkpt lat="49.37506" lon="1.38728">
        <ele>47</ele>
        <time>2017-02-07T14:06:54Z</time>
      </trkpt>
      <trkpt lat="49.37512" lon="1.38729">
        <ele>47</ele>
        <time>2017-02-07T14:06:54Z</time>
      </trkpt>
      <trkpt lat="49.37515" lon="1.38728">
        <ele>47</ele>
        <time>2017-02-07T14:06:54Z</time>
      </trkpt>
      <trkpt lat="49.37517" lon="1.38723">
        <ele>47</ele>
        <time>2017-02-07T14:07:11Z</time>
      </trkpt>
      <trkpt lat="49.37521" lon="1.38719">
        <ele>47</ele>
        <time>2017-02-07T14:07:11Z</time>
      </trkpt>
      <trkpt lat="49.37526" lon="1.38711">
        <ele>47</ele>
        <time>2017-02-07T14:07:11Z</time>
      </trkpt>
      <trkpt lat="49.37529" lon="1.38706">
        <ele>46</ele>
        <time>2017-02-07T14:07:11Z</time>
      </trkpt>
      <trkpt lat="49.37533" lon="1.38701">
        <ele>46</ele>
        <time>2017-02-07T14:07:27Z</time>
      </trkpt>
      <trkpt lat="49.37537" lon="1.38694">
        <ele>46</ele>
        <time>2017-02-07T14:07:27Z</time>
      </trkpt>
      <trkpt lat="49.37539" lon="1.3869">
        <ele>46</ele>
        <time>2017-02-07T14:07:27Z</time>
      </trkpt>
      <trkpt lat="49.37541" lon="1.38685">
        <ele>46</ele>
        <time>2017-02-07T14:07:27Z</time>
      </trkpt>
      <trkpt lat="49.37545" lon="1.38675">
        <ele>51</ele>
        <time>2017-02-07T14:07:41Z</time>
      </trkpt>
      <trkpt lat="49.37548" lon="1.38669">
        <ele>51</ele>
        <time>2017-02-07T14:07:42Z</time>
      </trkpt>
      <trkpt lat="49.37552" lon="1.38663">
        <ele>51</ele>
        <time>2017-02-07T14:07:43Z</time>
      </trkpt>
      <trkpt lat="49.37555" lon="1.3866">
        <ele>51</ele>
        <time>2017-02-07T14:07:43Z</time>
      </trkpt>
      <trkpt lat="49.37558" lon="1.38652">
        <ele>51</ele>
        <time>2017-02-07T14:07:59Z</time>
      </trkpt>
      <trkpt lat="49.37561" lon="1.38649">
        <ele>51</ele>
        <time>2017-02-07T14:07:59Z</time>
      </trkpt>
      <trkpt lat="49.37565" lon="1.38641">
        <ele>51</ele>
        <time>2017-02-07T14:07:59Z</time>
      </trkpt>
      <trkpt lat="49.37569" lon="1.38636">
        <ele>51</ele>
        <time>2017-02-07T14:07:59Z</time>
      </trkpt>
      <trkpt lat="49.37574" lon="1.3863">
        <ele>51</ele>
        <time>2017-02-07T14:08:15Z</time>
      </trkpt>
      <trkpt lat="49.37577" lon="1.38626">
        <ele>51</ele>
        <time>2017-02-07T14:08:15Z</time>
      </trkpt>
      <trkpt lat="49.37583" lon="1.3862">
        <ele>49</ele>
        <time>2017-02-07T14:08:15Z</time>
      </trkpt>
      <trkpt lat="49.37585" lon="1.38618">
        <ele>49</ele>
        <time>2017-02-07T14:08:15Z</time>
      </trkpt>
      <trkpt lat="49.37589" lon="1.38613">
        <ele>49</ele>
        <time>2017-02-07T14:08:30Z</time>
      </trkpt>
      <trkpt lat="49.37592" lon="1.38608">
        <ele>49</ele>
        <time>2017-02-07T14:08:30Z</time>
      </trkpt>
      <trkpt lat="49.37596" lon="1.38604">
        <ele>49</ele>
        <time>2017-02-07T14:08:30Z</time>
      </trkpt>
      <trkpt lat="49.37599" lon="1.38601">
        <ele>49</ele>
        <time>2017-02-07T14:08:30Z</time>
      </trkpt>
      <trkpt lat="49.37604" lon="1.38596">
        <ele>49</ele>
        <time>2017-02-07T14:08:46Z</time>
      </trkpt>
      <trkpt lat="49.37608" lon="1.38594">
        <ele>49</ele>
        <time>2017-02-07T14:08:46Z</time>
      </trkpt>
      <trkpt lat="49.37612" lon="1.38589">
        <ele>49</ele>
        <time>2017-02-07T14:08:46Z</time>
      </trkpt>
      <trkpt lat="49.37614" lon="1.38586">
        <ele>49</ele>
        <time>2017-02-07T14:08:46Z</time>
      </trkpt>
      <trkpt lat="49.37614" lon="1.38583">
        <ele>49</ele>
        <time>2017-02-07T14:09:02Z</time>
      </trkpt>
      <trkpt lat="49.37616" lon="1.38583">
        <ele>49</ele>
        <time>2017-02-07T14:09:02Z</time>
      </trkpt>
      <trkpt lat="49.37617" lon="1.38582">
        <ele>49</ele>
        <time>2017-02-07T14:09:02Z</time>
      </trkpt>
      <trkpt lat="49.37624" lon="1.38577">
        <ele>49</ele>
        <time>2017-02-07T14:09:02Z</time>
      </trkpt>
      <trkpt lat="49.37628" lon="1.38572">
        <ele>54</ele>
        <time>2017-02-07T14:09:18Z</time>
      </trkpt>
      <trkpt lat="49.37633" lon="1.38567">
        <ele>54</ele>
        <time>2017-02-07T14:09:18Z</time>
      </trkpt>
      <trkpt lat="49.37634" lon="1.38565">
        <ele>54</ele>
        <time>2017-02-07T14:09:18Z</time>
      </trkpt>
      <trkpt lat="49.37641" lon="1.38557">
        <ele>54</ele>
        <time>2017-02-07T14:09:18Z</time>
      </trkpt>
      <trkpt lat="49.37647" lon="1.38554">
        <ele>54</ele>
        <time>2017-02-07T14:09:34Z</time>
      </trkpt>
      <trkpt lat="49.37648" lon="1.38552">
        <ele>54</ele>
        <time>2017-02-07T14:09:34Z</time>
      </trkpt>
      <trkpt lat="49.37657" lon="1.38547">
        <ele>54</ele>
        <time>2017-02-07T14:09:34Z</time>
      </trkpt>
      <trkpt lat="49.37659" lon="1.38544">
        <ele>54</ele>
        <time>2017-02-07T14:09:34Z</time>
      </trkpt>
      <trkpt lat="49.37662" lon="1.38541">
        <ele>51</ele>
        <time>2017-02-07T14:09:54Z</time>
      </trkpt>
      <trkpt lat="49.37669" lon="1.38534">
        <ele>51</ele>
        <time>2017-02-07T14:09:54Z</time>
      </trkpt>
      <trkpt lat="49.37677" lon="1.38526">
        <ele>51</ele>
        <time>2017-02-07T14:09:54Z</time>
      </trkpt>
      <trkpt lat="49.3768" lon="1.38525">
        <ele>51</ele>
        <time>2017-02-07T14:09:54Z</time>
      </trkpt>
      <trkpt lat="49.37686" lon="1.3852">
        <ele>51</ele>
        <time>2017-02-07T14:10:10Z</time>
      </trkpt>
      <trkpt lat="49.37686" lon="1.38518">
        <ele>51</ele>
        <time>2017-02-07T14:10:10Z</time>
      </trkpt>
      <trkpt lat="49.37693" lon="1.38512">
        <ele>51</ele>
        <time>2017-02-07T14:10:10Z</time>
      </trkpt>
      <trkpt lat="49.37699" lon="1.38512">
        <ele>51</ele>
        <time>2017-02-07T14:10:10Z</time>
      </trkpt>
      <trkpt lat="49.37706" lon="1.38509">
        <ele>51</ele>
        <time>2017-02-07T14:10:26Z</time>
      </trkpt>
      <trkpt lat="49.37714" lon="1.38509">
        <ele>58</ele>
        <time>2017-02-07T14:10:26Z</time>
      </trkpt>
      <trkpt lat="49.37719" lon="1.38509">
        <ele>58</ele>
        <time>2017-02-07T14:10:26Z</time>
      </trkpt>
      <trkpt lat="49.37722" lon="1.3851">
        <ele>58</ele>
        <time>2017-02-07T14:10:26Z</time>
      </trkpt>
      <trkpt lat="49.37727" lon="1.38509">
        <ele>58</ele>
        <time>2017-02-07T14:10:41Z</time>
      </trkpt>
      <trkpt lat="49.37732" lon="1.38509">
        <ele>58</ele>
        <time>2017-02-07T14:10:42Z</time>
      </trkpt>
      <trkpt lat="49.37736" lon="1.38508">
        <ele>58</ele>
        <time>2017-02-07T14:10:42Z</time>
      </trkpt>
      <trkpt lat="49.37739" lon="1.38506">
        <ele>58</ele>
        <time>2017-02-07T14:10:42Z</time>
      </trkpt>
      <trkpt lat="49.37744" lon="1.38505">
        <ele>58</ele>
        <time>2017-02-07T14:10:59Z</time>
      </trkpt>
      <trkpt lat="49.37748" lon="1.38505">
        <ele>58</ele>
        <time>2017-02-07T14:10:59Z</time>
      </trkpt>
      <trkpt lat="49.37753" lon="1.38504">
        <ele>58</ele>
        <time>2017-02-07T14:10:59Z</time>
      </trkpt>
      <trkpt lat="49.37757" lon="1.38505">
        <ele>58</ele>
        <time>2017-02-07T14:10:59Z</time>
      </trkpt>
      <trkpt lat="49.37761" lon="1.38505">
        <ele>58</ele>
        <time>2017-02-07T14:11:14Z</time>
      </trkpt>
      <trkpt lat="49.37766" lon="1.38504">
        <ele>58</ele>
        <time>2017-02-07T14:11:14Z</time>
      </trkpt>
      <trkpt lat="49.37772" lon="1.38503">
        <ele>58</ele>
        <time>2017-02-07T14:11:14Z</time>
      </trkpt>
      <trkpt lat="49.37777" lon="1.38502">
        <ele>58</ele>
        <time>2017-02-07T14:11:14Z</time>
      </trkpt>
      <trkpt lat="49.37781" lon="1.38501">
        <ele>58</ele>
        <time>2017-02-07T14:11:31Z</time>
      </trkpt>
      <trkpt lat="49.37785" lon="1.38499">
        <ele>58</ele>
        <time>2017-02-07T14:11:31Z</time>
      </trkpt>
      <trkpt lat="49.37791" lon="1.38498">
        <ele>58</ele>
        <time>2017-02-07T14:11:31Z</time>
      </trkpt>
      <trkpt lat="49.37795" lon="1.38497">
        <ele>64</ele>
        <time>2017-02-07T14:11:31Z</time>
      </trkpt>
      <trkpt lat="49.378" lon="1.38496">
        <ele>64</ele>
        <time>2017-02-07T14:11:47Z</time>
      </trkpt>
      <trkpt lat="49.37805" lon="1.38494">
        <ele>64</ele>
        <time>2017-02-07T14:11:47Z</time>
      </trkpt>
      <trkpt lat="49.37809" lon="1.38494">
        <ele>64</ele>
        <time>2017-02-07T14:11:47Z</time>
      </trkpt>
      <trkpt lat="49.37814" lon="1.38494">
        <ele>64</ele>
        <time>2017-02-07T14:11:47Z</time>
      </trkpt>
      <trkpt lat="49.37819" lon="1.38494">
        <ele>64</ele>
        <time>2017-02-07T14:12:02Z</time>
      </trkpt>
      <trkpt lat="49.37824" lon="1.38493">
        <ele>64</ele>
        <time>2017-02-07T14:12:02Z</time>
      </trkpt>
      <trkpt lat="49.37831" lon="1.38492">
        <ele>64</ele>
        <time>2017-02-07T14:12:02Z</time>
      </trkpt>
      <trkpt lat="49.37833" lon="1.38493">
        <ele>64</ele>
        <time>2017-02-07T14:12:02Z</time>
      </trkpt>
      <trkpt lat="49.37844" lon="1.38491">
        <ele>64</ele>
        <time>2017-02-07T14:12:30Z</time>
      </trkpt>
      <trkpt lat="49.37848" lon="1.38492">
        <ele>64</ele>
        <time>2017-02-07T14:12:30Z</time>
      </trkpt>
      <trkpt lat="49.37853" lon="1.38493">
        <ele>64</ele>
        <time>2017-02-07T14:12:30Z</time>
      </trkpt>
      <trkpt lat="49.37856" lon="1.38494">
        <ele>64</ele>
        <time>2017-02-07T14:12:31Z</time>
      </trkpt>
      <trkpt lat="49.37862" lon="1.38496">
        <ele>64</ele>
        <time>2017-02-07T14:12:31Z</time>
      </trkpt>
      <trkpt lat="49.37866" lon="1.38497">
        <ele>64</ele>
        <time>2017-02-07T14:12:48Z</time>
      </trkpt>
      <trkpt lat="49.37871" lon="1.38498">
        <ele>64</ele>
        <time>2017-02-07T14:12:48Z</time>
      </trkpt>
      <trkpt lat="49.37874" lon="1.38499">
        <ele>64</ele>
        <time>2017-02-07T14:12:48Z</time>
      </trkpt>
      <trkpt lat="49.3788" lon="1.38503">
        <ele>68</ele>
        <time>2017-02-07T14:12:48Z</time>
      </trkpt>
      <trkpt lat="49.37883" lon="1.38504">
        <ele>68</ele>
        <time>2017-02-07T14:13:03Z</time>
      </trkpt>
      <trkpt lat="49.3789" lon="1.38506">
        <ele>68</ele>
        <time>2017-02-07T14:13:03Z</time>
      </trkpt>
      <trkpt lat="49.37892" lon="1.38507">
        <ele>68</ele>
        <time>2017-02-07T14:13:03Z</time>
      </trkpt>
      <trkpt lat="49.37899" lon="1.38509">
        <ele>68</ele>
        <time>2017-02-07T14:13:03Z</time>
      </trkpt>
      <trkpt lat="49.37903" lon="1.38508">
        <ele>68</ele>
        <time>2017-02-07T14:13:19Z</time>
      </trkpt>
      <trkpt lat="49.37908" lon="1.38511">
        <ele>68</ele>
        <time>2017-02-07T14:13:19Z</time>
      </trkpt>
      <trkpt lat="49.37914" lon="1.38511">
        <ele>68</ele>
        <time>2017-02-07T14:13:19Z</time>
      </trkpt>
      <trkpt lat="49.37918" lon="1.38513">
        <ele>68</ele>
        <time>2017-02-07T14:13:19Z</time>
      </trkpt>
      <trkpt lat="49.37924" lon="1.38513">
        <ele>68</ele>
        <time>2017-02-07T14:13:35Z</time>
      </trkpt>
      <trkpt lat="49.37928" lon="1.38514">
        <ele>68</ele>
        <time>2017-02-07T14:13:35Z</time>
      </trkpt>
      <trkpt lat="49.3793" lon="1.38515">
        <ele>68</ele>
        <time>2017-02-07T14:13:35Z</time>
      </trkpt>
      <trkpt lat="49.37937" lon="1.38517">
        <ele>68</ele>
        <time>2017-02-07T14:13:35Z</time>
      </trkpt>
      <trkpt lat="49.37942" lon="1.38519">
        <ele>68</ele>
        <time>2017-02-07T14:13:50Z</time>
      </trkpt>
      <trkpt lat="49.37946" lon="1.38519">
        <ele>68</ele>
        <time>2017-02-07T14:13:50Z</time>
      </trkpt>
      <trkpt lat="49.37951" lon="1.38519">
        <ele>68</ele>
        <time>2017-02-07T14:13:51Z</time>
      </trkpt>
      <trkpt lat="49.37955" lon="1.3852">
        <ele>68</ele>
        <time>2017-02-07T14:13:51Z</time>
      </trkpt>
      <trkpt lat="49.37959" lon="1.38522">
        <ele>67</ele>
        <time>2017-02-07T14:14:07Z</time>
      </trkpt>
      <trkpt lat="49.37962" lon="1.38522">
        <ele>67</ele>
        <time>2017-02-07T14:14:07Z</time>
      </trkpt>
      <trkpt lat="49.37968" lon="1.38524">
        <ele>67</ele>
        <time>2017-02-07T14:14:07Z</time>
      </trkpt>
      <trkpt lat="49.37974" lon="1.38527">
        <ele>67</ele>
        <time>2017-02-07T14:14:07Z</time>
      </trkpt>
      <trkpt lat="49.37978" lon="1.38528">
        <ele>67</ele>
        <time>2017-02-07T14:14:23Z</time>
      </trkpt>
      <trkpt lat="49.37983" lon="1.3853">
        <ele>67</ele>
        <time>2017-02-07T14:14:23Z</time>
      </trkpt>
      <trkpt lat="49.37988" lon="1.38533">
        <ele>67</ele>
        <time>2017-02-07T14:14:23Z</time>
      </trkpt>
      <trkpt lat="49.37993" lon="1.38535">
        <ele>67</ele>
        <time>2017-02-07T14:14:23Z</time>
      </trkpt>
      <trkpt lat="49.37997" lon="1.38538">
        <ele>67</ele>
        <time>2017-02-07T14:14:37Z</time>
      </trkpt>
      <trkpt lat="49.38" lon="1.3854">
        <ele>67</ele>
        <time>2017-02-07T14:14:38Z</time>
      </trkpt>
      <trkpt lat="49.38005" lon="1.3854">
        <ele>67</ele>
        <time>2017-02-07T14:14:38Z</time>
      </trkpt>
      <trkpt lat="49.38009" lon="1.38543">
        <ele>75</ele>
        <time>2017-02-07T14:14:38Z</time>
      </trkpt>
      <trkpt lat="49.38013" lon="1.38545">
        <ele>75</ele>
        <time>2017-02-07T14:14:54Z</time>
      </trkpt>
      <trkpt lat="49.38018" lon="1.38549">
        <ele>75</ele>
        <time>2017-02-07T14:14:54Z</time>
      </trkpt>
      <trkpt lat="49.38022" lon="1.38552">
        <ele>75</ele>
        <time>2017-02-07T14:14:54Z</time>
      </trkpt>
      <trkpt lat="49.38026" lon="1.38555">
        <ele>75</ele>
        <time>2017-02-07T14:14:54Z</time>
      </trkpt>
      <trkpt lat="49.38029" lon="1.38557">
        <ele>75</ele>
        <time>2017-02-07T14:15:09Z</time>
      </trkpt>
      <trkpt lat="49.38036" lon="1.38561">
        <ele>75</ele>
        <time>2017-02-07T14:15:09Z</time>
      </trkpt>
      <trkpt lat="49.38041" lon="1.38568">
        <ele>75</ele>
        <time>2017-02-07T14:15:09Z</time>
      </trkpt>
      <trkpt lat="49.38043" lon="1.3857">
        <ele>73</ele>
        <time>2017-02-07T14:15:10Z</time>
      </trkpt>
      <trkpt lat="49.38049" lon="1.38574">
        <ele>73</ele>
        <time>2017-02-07T14:15:28Z</time>
      </trkpt>
      <trkpt lat="49.38053" lon="1.38576">
        <ele>73</ele>
        <time>2017-02-07T14:15:28Z</time>
      </trkpt>
      <trkpt lat="49.38056" lon="1.38579">
        <ele>73</ele>
        <time>2017-02-07T14:15:28Z</time>
      </trkpt>
      <trkpt lat="49.38059" lon="1.38581">
        <ele>73</ele>
        <time>2017-02-07T14:15:28Z</time>
      </trkpt>
      <trkpt lat="49.38063" lon="1.38583">
        <ele>73</ele>
        <time>2017-02-07T14:15:42Z</time>
      </trkpt>
      <trkpt lat="49.38068" lon="1.38584">
        <ele>73</ele>
        <time>2017-02-07T14:15:42Z</time>
      </trkpt>
      <trkpt lat="49.38073" lon="1.38586">
        <ele>73</ele>
        <time>2017-02-07T14:15:42Z</time>
      </trkpt>
      <trkpt lat="49.38076" lon="1.38588">
        <ele>73</ele>
        <time>2017-02-07T14:15:42Z</time>
      </trkpt>
      <trkpt lat="49.38082" lon="1.3859">
        <ele>73</ele>
        <time>2017-02-07T14:15:59Z</time>
      </trkpt>
      <trkpt lat="49.38086" lon="1.38591">
        <ele>73</ele>
        <time>2017-02-07T14:15:59Z</time>
      </trkpt>
      <trkpt lat="49.38091" lon="1.38592">
        <ele>73</ele>
        <time>2017-02-07T14:15:59Z</time>
      </trkpt>
      <trkpt lat="49.38096" lon="1.38593">
        <ele>73</ele>
        <time>2017-02-07T14:15:59Z</time>
      </trkpt>
      <trkpt lat="49.38102" lon="1.38594">
        <ele>73</ele>
        <time>2017-02-07T14:16:15Z</time>
      </trkpt>
      <trkpt lat="49.38108" lon="1.38595">
        <ele>73</ele>
        <time>2017-02-07T14:16:16Z</time>
      </trkpt>
      <trkpt lat="49.38111" lon="1.38595">
        <ele>73</ele>
        <time>2017-02-07T14:16:16Z</time>
      </trkpt>
      <trkpt lat="49.38118" lon="1.38596">
        <ele>73</ele>
        <time>2017-02-07T14:16:16Z</time>
      </trkpt>
      <trkpt lat="49.38121" lon="1.38596">
        <ele>73</ele>
        <time>2017-02-07T14:16:31Z</time>
      </trkpt>
      <trkpt lat="49.38126" lon="1.38596">
        <ele>74</ele>
        <time>2017-02-07T14:16:31Z</time>
      </trkpt>
      <trkpt lat="49.38132" lon="1.38596">
        <ele>74</ele>
        <time>2017-02-07T14:16:31Z</time>
      </trkpt>
      <trkpt lat="49.38135" lon="1.38596">
        <ele>74</ele>
        <time>2017-02-07T14:16:31Z</time>
      </trkpt>
      <trkpt lat="49.3814" lon="1.38597">
        <ele>74</ele>
        <time>2017-02-07T14:16:48Z</time>
      </trkpt>
      <trkpt lat="49.38144" lon="1.38598">
        <ele>74</ele>
        <time>2017-02-07T14:16:48Z</time>
      </trkpt>
      <trkpt lat="49.38146" lon="1.38599">
        <ele>74</ele>
        <time>2017-02-07T14:16:48Z</time>
      </trkpt>
      <trkpt lat="49.38154" lon="1.38602">
        <ele>74</ele>
        <time>2017-02-07T14:16:48Z</time>
      </trkpt>
      <trkpt lat="49.38158" lon="1.38601">
        <ele>74</ele>
        <time>2017-02-07T14:17:02Z</time>
      </trkpt>
      <trkpt lat="49.38165" lon="1.38602">
        <ele>74</ele>
        <time>2017-02-07T14:17:02Z</time>
      </trkpt>
      <trkpt lat="49.38171" lon="1.38603">
        <ele>74</ele>
        <time>2017-02-07T14:17:02Z</time>
      </trkpt>
      <trkpt lat="49.38176" lon="1.38603">
        <ele>74</ele>
        <time>2017-02-07T14:17:02Z</time>
      </trkpt>
      <trkpt lat="49.38179" lon="1.38604">
        <ele>74</ele>
        <time>2017-02-07T14:17:18Z</time>
      </trkpt>
      <trkpt lat="49.38185" lon="1.38604">
        <ele>74</ele>
        <time>2017-02-07T14:17:18Z</time>
      </trkpt>
      <trkpt lat="49.38194" lon="1.38603">
        <ele>74</ele>
        <time>2017-02-07T14:17:18Z</time>
      </trkpt>
      <trkpt lat="49.38197" lon="1.38604">
        <ele>74</ele>
        <time>2017-02-07T14:17:18Z</time>
      </trkpt>
      <trkpt lat="49.38206" lon="1.38603">
        <ele>74</ele>
        <time>2017-02-07T14:17:34Z</time>
      </trkpt>
      <trkpt lat="49.38208" lon="1.38605">
        <ele>74</ele>
        <time>2017-02-07T14:17:35Z</time>
      </trkpt>
      <trkpt lat="49.38212" lon="1.38607">
        <ele>77</ele>
        <time>2017-02-07T14:17:35Z</time>
      </trkpt>
      <trkpt lat="49.38218" lon="1.38609">
        <ele>77</ele>
        <time>2017-02-07T14:17:35Z</time>
      </trkpt>
      <trkpt lat="49.38222" lon="1.3861">
        <ele>77</ele>
        <time>2017-02-07T14:17:50Z</time>
      </trkpt>
      <trkpt lat="49.38228" lon="1.38612">
        <ele>77</ele>
        <time>2017-02-07T14:17:50Z</time>
      </trkpt>
      <trkpt lat="49.3823" lon="1.38612">
        <ele>77</ele>
        <time>2017-02-07T14:17:50Z</time>
      </trkpt>
      <trkpt lat="49.38234" lon="1.38615">
        <ele>77</ele>
        <time>2017-02-07T14:17:50Z</time>
      </trkpt>
      <trkpt lat="49.3824" lon="1.38617">
        <ele>77</ele>
        <time>2017-02-07T14:18:11Z</time>
      </trkpt>
      <trkpt lat="49.38244" lon="1.38619">
        <ele>77</ele>
        <time>2017-02-07T14:18:11Z</time>
      </trkpt>
      <trkpt lat="49.38248" lon="1.38621">
        <ele>77</ele>
        <time>2017-02-07T14:18:11Z</time>
      </trkpt>
      <trkpt lat="49.38257" lon="1.38622">
        <ele>77</ele>
        <time>2017-02-07T14:18:11Z</time>
      </trkpt>
      <trkpt lat="49.38258" lon="1.38623">
        <ele>77</ele>
        <time>2017-02-07T14:18:31Z</time>
      </trkpt>
      <trkpt lat="49.38258" lon="1.38624">
        <ele>77</ele>
        <time>2017-02-07T14:18:32Z</time>
      </trkpt>
      <trkpt lat="49.38261" lon="1.38626">
        <ele>80</ele>
        <time>2017-02-07T14:18:32Z</time>
      </trkpt>
      <trkpt lat="49.38265" lon="1.38627">
        <ele>80</ele>
        <time>2017-02-07T14:18:32Z</time>
      </trkpt>
      <trkpt lat="49.3827" lon="1.38632">
        <ele>80</ele>
        <time>2017-02-07T14:18:32Z</time>
      </trkpt>
      <trkpt lat="49.38273" lon="1.38631">
        <ele>80</ele>
        <time>2017-02-07T14:18:46Z</time>
      </trkpt>
      <trkpt lat="49.38278" lon="1.38628">
        <ele>80</ele>
        <time>2017-02-07T14:18:46Z</time>
      </trkpt>
      <trkpt lat="49.38282" lon="1.38628">
        <ele>80</ele>
        <time>2017-02-07T14:18:46Z</time>
      </trkpt>
      <trkpt lat="49.38287" lon="1.38625">
        <ele>80</ele>
        <time>2017-02-07T14:18:46Z</time>
      </trkpt>
      <trkpt lat="49.38295" lon="1.38626">
        <ele>85</ele>
        <time>2017-02-07T14:19:14Z</time>
      </trkpt>
      <trkpt lat="49.383" lon="1.38621">
        <ele>79</ele>
        <time>2017-02-07T14:19:14Z</time>
      </trkpt>
      <trkpt lat="49.38305" lon="1.38618">
        <ele>79</ele>
        <time>2017-02-07T14:19:14Z</time>
      </trkpt>
      <trkpt lat="49.3831" lon="1.38616">
        <ele>79</ele>
        <time>2017-02-07T14:19:14Z</time>
      </trkpt>
      <trkpt lat="49.38314" lon="1.38616">
        <ele>79</ele>
        <time>2017-02-07T14:19:14Z</time>
      </trkpt>
      <trkpt lat="49.38322" lon="1.38615">
        <ele>79</ele>
        <time>2017-02-07T14:19:30Z</time>
      </trkpt>
      <trkpt lat="49.38325" lon="1.38615">
        <ele>79</ele>
        <time>2017-02-07T14:19:30Z</time>
      </trkpt>
      <trkpt lat="49.38328" lon="1.38616">
        <ele>79</ele>
        <time>2017-02-07T14:19:30Z</time>
      </trkpt>
      <trkpt lat="49.38332" lon="1.38617">
        <ele>79</ele>
        <time>2017-02-07T14:19:30Z</time>
      </trkpt>
      <trkpt lat="49.38338" lon="1.38617">
        <ele>79</ele>
        <time>2017-02-07T14:19:46Z</time>
      </trkpt>
      <trkpt lat="49.38341" lon="1.38618">
        <ele>79</ele>
        <time>2017-02-07T14:19:46Z</time>
      </trkpt>
      <trkpt lat="49.38343" lon="1.38618">
        <ele>79</ele>
        <time>2017-02-07T14:19:46Z</time>
      </trkpt>
      <trkpt lat="49.38351" lon="1.38618">
        <ele>79</ele>
        <time>2017-02-07T14:19:46Z</time>
      </trkpt>
      <trkpt lat="49.38356" lon="1.38619">
        <ele>79</ele>
        <time>2017-02-07T14:20:03Z</time>
      </trkpt>
      <trkpt lat="49.38358" lon="1.3862">
        <ele>79</ele>
        <time>2017-02-07T14:20:03Z</time>
      </trkpt>
      <trkpt lat="49.38365" lon="1.3862">
        <ele>79</ele>
        <time>2017-02-07T14:20:03Z</time>
      </trkpt>
      <trkpt lat="49.38367" lon="1.38621">
        <ele>79</ele>
        <time>2017-02-07T14:20:03Z</time>
      </trkpt>
      <trkpt lat="49.38373" lon="1.38621">
        <ele>79</ele>
        <time>2017-02-07T14:20:18Z</time>
      </trkpt>
      <trkpt lat="49.38376" lon="1.38622">
        <ele>85</ele>
        <time>2017-02-07T14:20:18Z</time>
      </trkpt>
      <trkpt lat="49.38383" lon="1.38621">
        <ele>85</ele>
        <time>2017-02-07T14:20:18Z</time>
      </trkpt>
      <trkpt lat="49.38386" lon="1.38622">
        <ele>85</ele>
        <time>2017-02-07T14:20:18Z</time>
      </trkpt>
      <trkpt lat="49.38394" lon="1.38622">
        <ele>85</ele>
        <time>2017-02-07T14:20:34Z</time>
      </trkpt>
      <trkpt lat="49.38396" lon="1.38621">
        <ele>85</ele>
        <time>2017-02-07T14:20:34Z</time>
      </trkpt>
      <trkpt lat="49.384" lon="1.38621">
        <ele>85</ele>
        <time>2017-02-07T14:20:34Z</time>
      </trkpt>
      <trkpt lat="49.38405" lon="1.38622">
        <ele>85</ele>
        <time>2017-02-07T14:20:34Z</time>
      </trkpt>
      <trkpt lat="49.38411" lon="1.38625">
        <ele>85</ele>
        <time>2017-02-07T14:20:55Z</time>
      </trkpt>
      <trkpt lat="49.38414" lon="1.38623">
        <ele>85</ele>
        <time>2017-02-07T14:20:55Z</time>
      </trkpt>
      <trkpt lat="49.38428" lon="1.38626">
        <ele>93</ele>
        <time>2017-02-07T14:20:55Z</time>
      </trkpt>
      <trkpt lat="49.38432" lon="1.38625">
        <ele>85</ele>
        <time>2017-02-07T14:20:55Z</time>
      </trkpt>
      <trkpt lat="49.38437" lon="1.38627">
        <ele>93</ele>
        <time>2017-02-07T14:21:12Z</time>
      </trkpt>
      <trkpt lat="49.3844" lon="1.38628">
        <ele>93</ele>
        <time>2017-02-07T14:21:12Z</time>
      </trkpt>
      <trkpt lat="49.38443" lon="1.38628">
        <ele>93</ele>
        <time>2017-02-07T14:21:12Z</time>
      </trkpt>
      <trkpt lat="49.38451" lon="1.38627">
        <ele>93</ele>
        <time>2017-02-07T14:21:12Z</time>
      </trkpt>
      <trkpt lat="49.38457" lon="1.38626">
        <ele>93</ele>
        <time>2017-02-07T14:21:27Z</time>
      </trkpt>
      <trkpt lat="49.38461" lon="1.38626">
        <ele>103</ele>
        <time>2017-02-07T14:21:27Z</time>
      </trkpt>
      <trkpt lat="49.38466" lon="1.38626">
        <ele>103</ele>
        <time>2017-02-07T14:21:27Z</time>
      </trkpt>
      <trkpt lat="49.38469" lon="1.38626">
        <ele>103</ele>
        <time>2017-02-07T14:21:27Z</time>
      </trkpt>
      <trkpt lat="49.3847" lon="1.38626">
        <ele>103</ele>
        <time>2017-02-07T14:21:41Z</time>
      </trkpt>
      <trkpt lat="49.38474" lon="1.38625">
        <ele>103</ele>
        <time>2017-02-07T14:21:41Z</time>
      </trkpt>
      <trkpt lat="49.38483" lon="1.38623">
        <ele>94</ele>
        <time>2017-02-07T14:21:41Z</time>
      </trkpt>
      <trkpt lat="49.38486" lon="1.38622">
        <ele>94</ele>
        <time>2017-02-07T14:21:41Z</time>
      </trkpt>
      <trkpt lat="49.38489" lon="1.38624">
        <ele>94</ele>
        <time>2017-02-07T14:21:57Z</time>
      </trkpt>
      <trkpt lat="49.38495" lon="1.38621">
        <ele>94</ele>
        <time>2017-02-07T14:21:57Z</time>
      </trkpt>
      <trkpt lat="49.38501" lon="1.38622">
        <ele>94</ele>
        <time>2017-02-07T14:21:58Z</time>
      </trkpt>
      <trkpt lat="49.38505" lon="1.38621">
        <ele>94</ele>
        <time>2017-02-07T14:21:58Z</time>
      </trkpt>
      <trkpt lat="49.38511" lon="1.3862">
        <ele>94</ele>
        <time>2017-02-07T14:22:13Z</time>
      </trkpt>
      <trkpt lat="49.38513" lon="1.3862">
        <ele>94</ele>
        <time>2017-02-07T14:22:13Z</time>
      </trkpt>
      <trkpt lat="49.38516" lon="1.3862">
        <ele>94</ele>
        <time>2017-02-07T14:22:13Z</time>
      </trkpt>
      <trkpt lat="49.38523" lon="1.38621">
        <ele>94</ele>
        <time>2017-02-07T14:22:13Z</time>
      </trkpt>
      <trkpt lat="49.38524" lon="1.3862">
        <ele>94</ele>
        <time>2017-02-07T14:22:30Z</time>
      </trkpt>
      <trkpt lat="49.38526" lon="1.38621">
        <ele>94</ele>
        <time>2017-02-07T14:22:30Z</time>
      </trkpt>
      <trkpt lat="49.3853" lon="1.38623">
        <ele>94</ele>
        <time>2017-02-07T14:22:30Z</time>
      </trkpt>
      <trkpt lat="49.38537" lon="1.38625">
        <ele>103</ele>
        <time>2017-02-07T14:22:30Z</time>
      </trkpt>
      <trkpt lat="49.38541" lon="1.38625">
        <ele>103</ele>
        <time>2017-02-07T14:22:45Z</time>
      </trkpt>
      <trkpt lat="49.3855" lon="1.38625">
        <ele>106</ele>
        <time>2017-02-07T14:22:45Z</time>
      </trkpt>
      <trkpt lat="49.38556" lon="1.38625">
        <ele>96</ele>
        <time>2017-02-07T14:22:45Z</time>
      </trkpt>
      <trkpt lat="49.38559" lon="1.38626">
        <ele>106</ele>
        <time>2017-02-07T14:22:45Z</time>
      </trkpt>
      <trkpt lat="49.38565" lon="1.38629">
        <ele>106</ele>
        <time>2017-02-07T14:23:02Z</time>
      </trkpt>
      <trkpt lat="49.38569" lon="1.3863">
        <ele>106</ele>
        <time>2017-02-07T14:23:02Z</time>
      </trkpt>
      <trkpt lat="49.38573" lon="1.38631">
        <ele>106</ele>
        <time>2017-02-07T14:23:02Z</time>
      </trkpt>
      <trkpt lat="49.38577" lon="1.38633">
        <ele>106</ele>
        <time>2017-02-07T14:23:02Z</time>
      </trkpt>
      <trkpt lat="49.38581" lon="1.38632">
        <ele>106</ele>
        <time>2017-02-07T14:23:19Z</time>
      </trkpt>
      <trkpt lat="49.38588" lon="1.38636">
        <ele>106</ele>
        <time>2017-02-07T14:23:19Z</time>
      </trkpt>
      <trkpt lat="49.38592" lon="1.38639">
        <ele>106</ele>
        <time>2017-02-07T14:23:19Z</time>
      </trkpt>
      <trkpt lat="49.38596" lon="1.38642">
        <ele>106</ele>
        <time>2017-02-07T14:23:19Z</time>
      </trkpt>
      <trkpt lat="49.38598" lon="1.38646">
        <ele>106</ele>
        <time>2017-02-07T14:23:35Z</time>
      </trkpt>
      <trkpt lat="49.38603" lon="1.38647">
        <ele>106</ele>
        <time>2017-02-07T14:23:35Z</time>
      </trkpt>
      <trkpt lat="49.38606" lon="1.38648">
        <ele>106</ele>
        <time>2017-02-07T14:23:35Z</time>
      </trkpt>
      <trkpt lat="49.38613" lon="1.38651">
        <ele>106</ele>
        <time>2017-02-07T14:23:35Z</time>
      </trkpt>
      <trkpt lat="49.38618" lon="1.38654">
        <ele>106</ele>
        <time>2017-02-07T14:23:49Z</time>
      </trkpt>
      <trkpt lat="49.38622" lon="1.38656">
        <ele>106</ele>
        <time>2017-02-07T14:23:49Z</time>
      </trkpt>
      <trkpt lat="49.38625" lon="1.3866">
        <ele>106</ele>
        <time>2017-02-07T14:23:49Z</time>
      </trkpt>
      <trkpt lat="49.38627" lon="1.38666">
        <ele>104</ele>
        <time>2017-02-07T14:23:49Z</time>
      </trkpt>
      <trkpt lat="49.38632" lon="1.3867">
        <ele>104</ele>
        <time>2017-02-07T14:24:05Z</time>
      </trkpt>
      <trkpt lat="49.38638" lon="1.38674">
        <ele>104</ele>
        <time>2017-02-07T14:24:06Z</time>
      </trkpt>
      <trkpt lat="49.38643" lon="1.38678">
        <ele>104</ele>
        <time>2017-02-07T14:24:06Z</time>
      </trkpt>
      <trkpt lat="49.38646" lon="1.38681">
        <ele>104</ele>
        <time>2017-02-07T14:24:06Z</time>
      </trkpt>
      <trkpt lat="49.38652" lon="1.38682">
        <ele>104</ele>
        <time>2017-02-07T14:24:22Z</time>
      </trkpt>
      <trkpt lat="49.38657" lon="1.38684">
        <ele>104</ele>
        <time>2017-02-07T14:24:22Z</time>
      </trkpt>
      <trkpt lat="49.38664" lon="1.38688">
        <ele>104</ele>
        <time>2017-02-07T14:24:22Z</time>
      </trkpt>
      <trkpt lat="49.38664" lon="1.38692">
        <ele>104</ele>
        <time>2017-02-07T14:24:22Z</time>
      </trkpt>
      <trkpt lat="49.38667" lon="1.38694">
        <ele>104</ele>
        <time>2017-02-07T14:24:39Z</time>
      </trkpt>
      <trkpt lat="49.38672" lon="1.38696">
        <ele>104</ele>
        <time>2017-02-07T14:24:39Z</time>
      </trkpt>
      <trkpt lat="49.38677" lon="1.38703">
        <ele>104</ele>
        <time>2017-02-07T14:24:39Z</time>
      </trkpt>
      <trkpt lat="49.38682" lon="1.38703">
        <ele>104</ele>
        <time>2017-02-07T14:24:39Z</time>
      </trkpt>
      <trkpt lat="49.38685" lon="1.38704">
        <ele>104</ele>
        <time>2017-02-07T14:24:55Z</time>
      </trkpt>
      <trkpt lat="49.38689" lon="1.38707">
        <ele>104</ele>
        <time>2017-02-07T14:24:55Z</time>
      </trkpt>
      <trkpt lat="49.38689" lon="1.38708">
        <ele>104</ele>
        <time>2017-02-07T14:24:55Z</time>
      </trkpt>
      <trkpt lat="49.38697" lon="1.38714">
        <ele>109</ele>
        <time>2017-02-07T14:24:55Z</time>
      </trkpt>
      <trkpt lat="49.38701" lon="1.38716">
        <ele>109</ele>
        <time>2017-02-07T14:25:10Z</time>
      </trkpt>
      <trkpt lat="49.38703" lon="1.3872">
        <ele>109</ele>
        <time>2017-02-07T14:25:10Z</time>
      </trkpt>
      <trkpt lat="49.38703" lon="1.38723">
        <ele>109</ele>
        <time>2017-02-07T14:25:11Z</time>
      </trkpt>
      <trkpt lat="49.38709" lon="1.38728">
        <ele>106</ele>
        <time>2017-02-07T14:25:11Z</time>
      </trkpt>
      <trkpt lat="49.38714" lon="1.38731">
        <ele>106</ele>
        <time>2017-02-07T14:25:26Z</time>
      </trkpt>
      <trkpt lat="49.38719" lon="1.38733">
        <ele>106</ele>
        <time>2017-02-07T14:25:27Z</time>
      </trkpt>
      <trkpt lat="49.38725" lon="1.38735">
        <ele>106</ele>
        <time>2017-02-07T14:25:27Z</time>
      </trkpt>
      <trkpt lat="49.38728" lon="1.38737">
        <ele>106</ele>
        <time>2017-02-07T14:25:27Z</time>
      </trkpt>
      <trkpt lat="49.38732" lon="1.38741">
        <ele>106</ele>
        <time>2017-02-07T14:25:41Z</time>
      </trkpt>
      <trkpt lat="49.38739" lon="1.38743">
        <ele>106</ele>
        <time>2017-02-07T14:25:42Z</time>
      </trkpt>
      <trkpt lat="49.38741" lon="1.38748">
        <ele>106</ele>
        <time>2017-02-07T14:25:42Z</time>
      </trkpt>
      <trkpt lat="49.38744" lon="1.38751">
        <ele>106</ele>
        <time>2017-02-07T14:25:42Z</time>
      </trkpt>
      <trkpt lat="49.38746" lon="1.38757">
        <ele>106</ele>
        <time>2017-02-07T14:25:58Z</time>
      </trkpt>
      <trkpt lat="49.38749" lon="1.3876">
        <ele>106</ele>
        <time>2017-02-07T14:25:59Z</time>
      </trkpt>
      <trkpt lat="49.38753" lon="1.38763">
        <ele>106</ele>
        <time>2017-02-07T14:25:59Z</time>
      </trkpt>
      <trkpt lat="49.38758" lon="1.38767">
        <ele>106</ele>
        <time>2017-02-07T14:25:59Z</time>
      </trkpt>
      <trkpt lat="49.38763" lon="1.38772">
        <ele>106</ele>
        <time>2017-02-07T14:26:14Z</time>
      </trkpt>
      <trkpt lat="49.38766" lon="1.38777">
        <ele>106</ele>
        <time>2017-02-07T14:26:16Z</time>
      </trkpt>
      <trkpt lat="49.38768" lon="1.38779">
        <ele>106</ele>
        <time>2017-02-07T14:26:16Z</time>
      </trkpt>
      <trkpt lat="49.38773" lon="1.38786">
        <ele>106</ele>
        <time>2017-02-07T14:26:16Z</time>
      </trkpt>
      <trkpt lat="49.38778" lon="1.3879">
        <ele>106</ele>
        <time>2017-02-07T14:26:32Z</time>
      </trkpt>
      <trkpt lat="49.38779" lon="1.38793">
        <ele>111</ele>
        <time>2017-02-07T14:26:32Z</time>
      </trkpt>
      <trkpt lat="49.38782" lon="1.38798">
        <ele>111</ele>
        <time>2017-02-07T14:26:32Z</time>
      </trkpt>
      <trkpt lat="49.38789" lon="1.38806">
        <ele>111</ele>
        <time>2017-02-07T14:26:32Z</time>
      </trkpt>
      <trkpt lat="49.38792" lon="1.3881">
        <ele>114</ele>
        <time>2017-02-07T14:26:45Z</time>
      </trkpt>
      <trkpt lat="49.38795" lon="1.38817">
        <ele>114</ele>
        <time>2017-02-07T14:26:46Z</time>
      </trkpt>
      <trkpt lat="49.38797" lon="1.38821">
        <ele>114</ele>
        <time>2017-02-07T14:26:46Z</time>
      </trkpt>
      <trkpt lat="49.38799" lon="1.38827">
        <ele>114</ele>
        <time>2017-02-07T14:26:46Z</time>
      </trkpt>
      <trkpt lat="49.388" lon="1.38833">
        <ele>114</ele>
        <time>2017-02-07T14:27:01Z</time>
      </trkpt>
      <trkpt lat="49.38805" lon="1.38839">
        <ele>114</ele>
        <time>2017-02-07T14:27:02Z</time>
      </trkpt>
      <trkpt lat="49.38809" lon="1.38844">
        <ele>114</ele>
        <time>2017-02-07T14:27:02Z</time>
      </trkpt>
      <trkpt lat="49.38811" lon="1.38847">
        <ele>114</ele>
        <time>2017-02-07T14:27:02Z</time>
      </trkpt>
      <trkpt lat="49.38814" lon="1.38851">
        <ele>114</ele>
        <time>2017-02-07T14:27:17Z</time>
      </trkpt>
      <trkpt lat="49.38819" lon="1.38859">
        <ele>114</ele>
        <time>2017-02-07T14:27:17Z</time>
      </trkpt>
      <trkpt lat="49.38821" lon="1.3886">
        <ele>114</ele>
        <time>2017-02-07T14:27:17Z</time>
      </trkpt>
      <trkpt lat="49.38824" lon="1.38869">
        <ele>114</ele>
        <time>2017-02-07T14:27:17Z</time>
      </trkpt>
      <trkpt lat="49.38829" lon="1.38872">
        <ele>114</ele>
        <time>2017-02-07T14:27:35Z</time>
      </trkpt>
      <trkpt lat="49.38834" lon="1.38877">
        <ele>118</ele>
        <time>2017-02-07T14:27:35Z</time>
      </trkpt>
      <trkpt lat="49.38836" lon="1.38879">
        <ele>118</ele>
        <time>2017-02-07T14:27:35Z</time>
      </trkpt>
      <trkpt lat="49.3884" lon="1.38884">
        <ele>118</ele>
        <time>2017-02-07T14:27:35Z</time>
      </trkpt>
      <trkpt lat="49.38843" lon="1.38888">
        <ele>118</ele>
        <time>2017-02-07T14:27:52Z</time>
      </trkpt>
      <trkpt lat="49.38846" lon="1.38894">
        <ele>118</ele>
        <time>2017-02-07T14:27:52Z</time>
      </trkpt>
      <trkpt lat="49.3885" lon="1.38898">
        <ele>118</ele>
        <time>2017-02-07T14:27:52Z</time>
      </trkpt>
      <trkpt lat="49.38855" lon="1.38902">
        <ele>118</ele>
        <time>2017-02-07T14:27:52Z</time>
      </trkpt>
      <trkpt lat="49.38858" lon="1.38906">
        <ele>118</ele>
        <time>2017-02-07T14:28:06Z</time>
      </trkpt>
      <trkpt lat="49.3886" lon="1.38908">
        <ele>118</ele>
        <time>2017-02-07T14:28:07Z</time>
      </trkpt>
      <trkpt lat="49.38865" lon="1.38913">
        <ele>118</ele>
        <time>2017-02-07T14:28:07Z</time>
      </trkpt>
      <trkpt lat="49.38871" lon="1.38916">
        <ele>118</ele>
        <time>2017-02-07T14:28:07Z</time>
      </trkpt>
      <trkpt lat="49.38877" lon="1.3892">
        <ele>120</ele>
        <time>2017-02-07T14:28:24Z</time>
      </trkpt>
      <trkpt lat="49.38881" lon="1.38924">
        <ele>120</ele>
        <time>2017-02-07T14:28:24Z</time>
      </trkpt>
      <trkpt lat="49.38883" lon="1.38928">
        <ele>120</ele>
        <time>2017-02-07T14:28:24Z</time>
      </trkpt>
      <trkpt lat="49.38887" lon="1.38932">
        <ele>120</ele>
        <time>2017-02-07T14:28:24Z</time>
      </trkpt>
      <trkpt lat="49.38891" lon="1.38933">
        <ele>120</ele>
        <time>2017-02-07T14:28:37Z</time>
      </trkpt>
      <trkpt lat="49.38896" lon="1.38939">
        <ele>120</ele>
        <time>2017-02-07T14:28:37Z</time>
      </trkpt>
      <trkpt lat="49.38899" lon="1.38942">
        <ele>120</ele>
        <time>2017-02-07T14:28:38Z</time>
      </trkpt>
      <trkpt lat="49.38902" lon="1.38947">
        <ele>120</ele>
        <time>2017-02-07T14:28:38Z</time>
      </trkpt>
      <trkpt lat="49.38905" lon="1.38947">
        <ele>120</ele>
        <time>2017-02-07T14:28:56Z</time>
      </trkpt>
      <trkpt lat="49.38914" lon="1.38949">
        <ele>120</ele>
        <time>2017-02-07T14:28:56Z</time>
      </trkpt>
      <trkpt lat="49.38918" lon="1.3895">
        <ele>120</ele>
        <time>2017-02-07T14:28:56Z</time>
      </trkpt>
      <trkpt lat="49.38923" lon="1.38953">
        <ele>120</ele>
        <time>2017-02-07T14:28:56Z</time>
      </trkpt>
      <trkpt lat="49.38929" lon="1.38956">
        <ele>120</ele>
        <time>2017-02-07T14:29:10Z</time>
      </trkpt>
      <trkpt lat="49.38932" lon="1.38957">
        <ele>120</ele>
        <time>2017-02-07T14:29:10Z</time>
      </trkpt>
      <trkpt lat="49.3894" lon="1.38958">
        <ele>120</ele>
        <time>2017-02-07T14:29:10Z</time>
      </trkpt>
      <trkpt lat="49.38942" lon="1.38959">
        <ele>122</ele>
        <time>2017-02-07T14:29:10Z</time>
      </trkpt>
      <trkpt lat="49.38953" lon="1.38963">
        <ele>122</ele>
        <time>2017-02-07T14:29:32Z</time>
      </trkpt>
      <trkpt lat="49.38958" lon="1.38964">
        <ele>124</ele>
        <time>2017-02-07T14:29:32Z</time>
      </trkpt>
      <trkpt lat="49.38962" lon="1.38963">
        <ele>124</ele>
        <time>2017-02-07T14:29:32Z</time>
      </trkpt>
      <trkpt lat="49.38968" lon="1.38967">
        <ele>124</ele>
        <time>2017-02-07T14:29:32Z</time>
      </trkpt>
      <trkpt lat="49.38971" lon="1.38969">
        <ele>124</ele>
        <time>2017-02-07T14:29:47Z</time>
      </trkpt>
      <trkpt lat="49.38978" lon="1.38971">
        <ele>124</ele>
        <time>2017-02-07T14:29:47Z</time>
      </trkpt>
      <trkpt lat="49.38981" lon="1.38973">
        <ele>124</ele>
        <time>2017-02-07T14:29:47Z</time>
      </trkpt>
      <trkpt lat="49.38987" lon="1.38976">
        <ele>124</ele>
        <time>2017-02-07T14:29:47Z</time>
      </trkpt>
      <trkpt lat="49.38992" lon="1.38979">
        <ele>124</ele>
        <time>2017-02-07T14:30:02Z</time>
      </trkpt>
      <trkpt lat="49.38997" lon="1.38979">
        <ele>124</ele>
        <time>2017-02-07T14:30:02Z</time>
      </trkpt>
      <trkpt lat="49.39001" lon="1.38985">
        <ele>124</ele>
        <time>2017-02-07T14:30:02Z</time>
      </trkpt>
      <trkpt lat="49.39003" lon="1.38987">
        <ele>124</ele>
        <time>2017-02-07T14:30:02Z</time>
      </trkpt>
      <trkpt lat="49.39005" lon="1.3899">
        <ele>124</ele>
        <time>2017-02-07T14:30:19Z</time>
      </trkpt>
      <trkpt lat="49.3901" lon="1.38993">
        <ele>124</ele>
        <time>2017-02-07T14:30:19Z</time>
      </trkpt>
      <trkpt lat="49.39016" lon="1.38995">
        <ele>124</ele>
        <time>2017-02-07T14:30:19Z</time>
      </trkpt>
      <trkpt lat="49.39021" lon="1.38996">
        <ele>124</ele>
        <time>2017-02-07T14:30:19Z</time>
      </trkpt>
      <trkpt lat="49.39026" lon="1.38999">
        <ele>124</ele>
        <time>2017-02-07T14:30:35Z</time>
      </trkpt>
      <trkpt lat="49.39029" lon="1.39">
        <ele>124</ele>
        <time>2017-02-07T14:30:35Z</time>
      </trkpt>
      <trkpt lat="49.39035" lon="1.39001">
        <ele>124</ele>
        <time>2017-02-07T14:30:35Z</time>
      </trkpt>
      <trkpt lat="49.39039" lon="1.39003">
        <ele>124</ele>
        <time>2017-02-07T14:30:35Z</time>
      </trkpt>
      <trkpt lat="49.39044" lon="1.39003">
        <ele>124</ele>
        <time>2017-02-07T14:30:49Z</time>
      </trkpt>
      <trkpt lat="49.3905" lon="1.39007">
        <ele>124</ele>
        <time>2017-02-07T14:30:50Z</time>
      </trkpt>
      <trkpt lat="49.39053" lon="1.39012">
        <ele>124</ele>
        <time>2017-02-07T14:30:50Z</time>
      </trkpt>
      <trkpt lat="49.39058" lon="1.39012">
        <ele>124</ele>
        <time>2017-02-07T14:30:50Z</time>
      </trkpt>
      <trkpt lat="49.39064" lon="1.39013">
        <ele>124</ele>
        <time>2017-02-07T14:31:07Z</time>
      </trkpt>
      <trkpt lat="49.39067" lon="1.39014">
        <ele>124</ele>
        <time>2017-02-07T14:31:07Z</time>
      </trkpt>
      <trkpt lat="49.39073" lon="1.39018">
        <ele>124</ele>
        <time>2017-02-07T14:31:07Z</time>
      </trkpt>
      <trkpt lat="49.3908" lon="1.39017">
        <ele>124</ele>
        <time>2017-02-07T14:31:07Z</time>
      </trkpt>
      <trkpt lat="49.39083" lon="1.39019">
        <ele>124</ele>
        <time>2017-02-07T14:31:22Z</time>
      </trkpt>
      <trkpt lat="49.39086" lon="1.39022">
        <ele>124</ele>
        <time>2017-02-07T14:31:22Z</time>
      </trkpt>
      <trkpt lat="49.39091" lon="1.39025">
        <ele>124</ele>
        <time>2017-02-07T14:31:23Z</time>
      </trkpt>
      <trkpt lat="49.39096" lon="1.39028">
        <ele>124</ele>
        <time>2017-02-07T14:31:23Z</time>
      </trkpt>
      <trkpt lat="49.39098" lon="1.39028">
        <ele>124</ele>
        <time>2017-02-07T14:31:38Z</time>
      </trkpt>
      <trkpt lat="49.39104" lon="1.39029">
        <ele>124</ele>
        <time>2017-02-07T14:31:40Z</time>
      </trkpt>
      <trkpt lat="49.39111" lon="1.3903">
        <ele>124</ele>
        <time>2017-02-07T14:31:40Z</time>
      </trkpt>
      <trkpt lat="49.39116" lon="1.39034">
        <ele>124</ele>
        <time>2017-02-07T14:31:40Z</time>
      </trkpt>
      <trkpt lat="49.39119" lon="1.39037">
        <ele>124</ele>
        <time>2017-02-07T14:31:55Z</time>
      </trkpt>
      <trkpt lat="49.39125" lon="1.39038">
        <ele>124</ele>
        <time>2017-02-07T14:31:55Z</time>
      </trkpt>
      <trkpt lat="49.39132" lon="1.39037">
        <ele>123</ele>
        <time>2017-02-07T14:31:55Z</time>
      </trkpt>
      <trkpt lat="49.39136" lon="1.39039">
        <ele>123</ele>
        <time>2017-02-07T14:31:55Z</time>
      </trkpt>
      <trkpt lat="49.39138" lon="1.3904">
        <ele>123</ele>
        <time>2017-02-07T14:32:11Z</time>
      </trkpt>
      <trkpt lat="49.39146" lon="1.39043">
        <ele>124</ele>
        <time>2017-02-07T14:32:11Z</time>
      </trkpt>
      <trkpt lat="49.3915" lon="1.39045">
        <ele>124</ele>
        <time>2017-02-07T14:32:11Z</time>
      </trkpt>
      <trkpt lat="49.39156" lon="1.39047">
        <ele>124</ele>
        <time>2017-02-07T14:32:11Z</time>
      </trkpt>
      <trkpt lat="49.3916" lon="1.39049">
        <ele>124</ele>
        <time>2017-02-07T14:32:26Z</time>
      </trkpt>
      <trkpt lat="49.39163" lon="1.39055">
        <ele>124</ele>
        <time>2017-02-07T14:32:26Z</time>
      </trkpt>
      <trkpt lat="49.39166" lon="1.39057">
        <ele>124</ele>
        <time>2017-02-07T14:32:26Z</time>
      </trkpt>
      <trkpt lat="49.3917" lon="1.39059">
        <ele>124</ele>
        <time>2017-02-07T14:32:26Z</time>
      </trkpt>
      <trkpt lat="49.39177" lon="1.39063">
        <ele>124</ele>
        <time>2017-02-07T14:32:41Z</time>
      </trkpt>
      <trkpt lat="49.3918" lon="1.39066">
        <ele>124</ele>
        <time>2017-02-07T14:32:41Z</time>
      </trkpt>
      <trkpt lat="49.39184" lon="1.3907">
        <ele>124</ele>
        <time>2017-02-07T14:32:42Z</time>
      </trkpt>
      <trkpt lat="49.39189" lon="1.3907">
        <ele>124</ele>
        <time>2017-02-07T14:32:42Z</time>
      </trkpt>
      <trkpt lat="49.39195" lon="1.39074">
        <ele>124</ele>
        <time>2017-02-07T14:32:58Z</time>
      </trkpt>
      <trkpt lat="49.39199" lon="1.39078">
        <ele>124</ele>
        <time>2017-02-07T14:32:58Z</time>
      </trkpt>
      <trkpt lat="49.39203" lon="1.39081">
        <ele>124</ele>
        <time>2017-02-07T14:32:58Z</time>
      </trkpt>
      <trkpt lat="49.39208" lon="1.39086">
        <ele>124</ele>
        <time>2017-02-07T14:32:58Z</time>
      </trkpt>
      <trkpt lat="49.39213" lon="1.39089">
        <ele>124</ele>
        <time>2017-02-07T14:33:15Z</time>
      </trkpt>
      <trkpt lat="49.39214" lon="1.39092">
        <ele>124</ele>
        <time>2017-02-07T14:33:15Z</time>
      </trkpt>
      <trkpt lat="49.39221" lon="1.39097">
        <ele>124</ele>
        <time>2017-02-07T14:33:15Z</time>
      </trkpt>
      <trkpt lat="49.39223" lon="1.39096">
        <ele>124</ele>
        <time>2017-02-07T14:33:15Z</time>
      </trkpt>
      <trkpt lat="49.39231" lon="1.391">
        <ele>124</ele>
        <time>2017-02-07T14:33:30Z</time>
      </trkpt>
      <trkpt lat="49.39236" lon="1.39102">
        <ele>124</ele>
        <time>2017-02-07T14:33:30Z</time>
      </trkpt>
      <trkpt lat="49.39239" lon="1.39102">
        <ele>124</ele>
        <time>2017-02-07T14:33:30Z</time>
      </trkpt>
      <trkpt lat="49.39243" lon="1.39104">
        <ele>124</ele>
        <time>2017-02-07T14:33:30Z</time>
      </trkpt>
      <trkpt lat="49.39253" lon="1.39107">
        <ele>124</ele>
        <time>2017-02-07T14:33:50Z</time>
      </trkpt>
      <trkpt lat="49.39259" lon="1.39109">
        <ele>124</ele>
        <time>2017-02-07T14:33:50Z</time>
      </trkpt>
      <trkpt lat="49.39265" lon="1.3911">
        <ele>124</ele>
        <time>2017-02-07T14:33:50Z</time>
      </trkpt>
      <trkpt lat="49.39269" lon="1.39112">
        <ele>124</ele>
        <time>2017-02-07T14:33:50Z</time>
      </trkpt>
      <trkpt lat="49.39275" lon="1.39114">
        <ele>124</ele>
        <time>2017-02-07T14:34:05Z</time>
      </trkpt>
      <trkpt lat="49.39279" lon="1.39115">
        <ele>124</ele>
        <time>2017-02-07T14:34:05Z</time>
      </trkpt>
      <trkpt lat="49.39286" lon="1.39118">
        <ele>124</ele>
        <time>2017-02-07T14:34:05Z</time>
      </trkpt>
      <trkpt lat="49.39291" lon="1.3912">
        <ele>124</ele>
        <time>2017-02-07T14:34:06Z</time>
      </trkpt>
      <trkpt lat="49.39296" lon="1.39122">
        <ele>125</ele>
        <time>2017-02-07T14:34:22Z</time>
      </trkpt>
      <trkpt lat="49.39301" lon="1.39124">
        <ele>125</ele>
        <time>2017-02-07T14:34:22Z</time>
      </trkpt>
      <trkpt lat="49.39305" lon="1.39126">
        <ele>125</ele>
        <time>2017-02-07T14:34:22Z</time>
      </trkpt>
      <trkpt lat="49.3931" lon="1.39128">
        <ele>125</ele>
        <time>2017-02-07T14:34:22Z</time>
      </trkpt>
      <trkpt lat="49.39314" lon="1.3913">
        <ele>125</ele>
        <time>2017-02-07T14:34:40Z</time>
      </trkpt>
      <trkpt lat="49.39317" lon="1.39131">
        <ele>125</ele>
        <time>2017-02-07T14:34:40Z</time>
      </trkpt>
      <trkpt lat="49.39324" lon="1.39132">
        <ele>125</ele>
        <time>2017-02-07T14:34:40Z</time>
      </trkpt>
      <trkpt lat="49.39329" lon="1.39131">
        <ele>125</ele>
        <time>2017-02-07T14:34:40Z</time>
      </trkpt>
      <trkpt lat="49.39338" lon="1.39132">
        <ele>125</ele>
        <time>2017-02-07T14:35:18Z</time>
      </trkpt>
      <trkpt lat="49.39361" lon="1.39122">
        <ele>125</ele>
        <time>2017-02-07T14:35:18Z</time>
      </trkpt>
      <trkpt lat="49.39365" lon="1.39118">
        <ele>125</ele>
        <time>2017-02-07T14:35:20Z</time>
      </trkpt>
      <trkpt lat="49.39371" lon="1.39115">
        <ele>125</ele>
        <time>2017-02-07T14:35:20Z</time>
      </trkpt>
      <trkpt lat="49.39373" lon="1.39114">
        <ele>125</ele>
        <time>2017-02-07T14:35:35Z</time>
      </trkpt>
      <trkpt lat="49.39381" lon="1.39108">
        <ele>124</ele>
        <time>2017-02-07T14:35:35Z</time>
      </trkpt>
      <trkpt lat="49.39384" lon="1.39107">
        <ele>124</ele>
        <time>2017-02-07T14:35:35Z</time>
      </trkpt>
      <trkpt lat="49.39393" lon="1.39102">
        <ele>124</ele>
        <time>2017-02-07T14:35:35Z</time>
      </trkpt>
      <trkpt lat="49.39395" lon="1.39099">
        <ele>124</ele>
        <time>2017-02-07T14:35:52Z</time>
      </trkpt>
      <trkpt lat="49.39397" lon="1.39097">
        <ele>124</ele>
        <time>2017-02-07T14:35:52Z</time>
      </trkpt>
      <trkpt lat="49.39402" lon="1.39092">
        <ele>124</ele>
        <time>2017-02-07T14:35:52Z</time>
      </trkpt>
      <trkpt lat="49.39407" lon="1.39089">
        <ele>124</ele>
        <time>2017-02-07T14:35:52Z</time>
      </trkpt>
      <trkpt lat="49.39412" lon="1.39086">
        <ele>124</ele>
        <time>2017-02-07T14:36:07Z</time>
      </trkpt>
      <trkpt lat="49.39416" lon="1.39083">
        <ele>124</ele>
        <time>2017-02-07T14:36:07Z</time>
      </trkpt>
      <trkpt lat="49.3942" lon="1.39082">
        <ele>124</ele>
        <time>2017-02-07T14:36:07Z</time>
      </trkpt>
      <trkpt lat="49.39424" lon="1.39079">
        <ele>124</ele>
        <time>2017-02-07T14:36:07Z</time>
      </trkpt>
      <trkpt lat="49.39428" lon="1.39078">
        <ele>124</ele>
        <time>2017-02-07T14:36:22Z</time>
      </trkpt>
      <trkpt lat="49.39435" lon="1.39076">
        <ele>124</ele>
        <time>2017-02-07T14:36:22Z</time>
      </trkpt>
      <trkpt lat="49.39438" lon="1.39075">
        <ele>124</ele>
        <time>2017-02-07T14:36:22Z</time>
      </trkpt>
      <trkpt lat="49.39444" lon="1.39072">
        <ele>124</ele>
        <time>2017-02-07T14:36:22Z</time>
      </trkpt>
      <trkpt lat="49.39446" lon="1.39071">
        <ele>124</ele>
        <time>2017-02-07T14:36:38Z</time>
      </trkpt>
      <trkpt lat="49.3945" lon="1.39069">
        <ele>124</ele>
        <time>2017-02-07T14:36:39Z</time>
      </trkpt>
      <trkpt lat="49.39455" lon="1.39067">
        <ele>124</ele>
        <time>2017-02-07T14:36:39Z</time>
      </trkpt>
      <trkpt lat="49.3946" lon="1.39066">
        <ele>123</ele>
        <time>2017-02-07T14:36:39Z</time>
      </trkpt>
      <trkpt lat="49.39464" lon="1.39065">
        <ele>123</ele>
        <time>2017-02-07T14:36:55Z</time>
      </trkpt>
      <trkpt lat="49.39469" lon="1.39064">
        <ele>123</ele>
        <time>2017-02-07T14:36:55Z</time>
      </trkpt>
      <trkpt lat="49.39474" lon="1.39064">
        <ele>123</ele>
        <time>2017-02-07T14:36:55Z</time>
      </trkpt>
      <trkpt lat="49.39479" lon="1.39062">
        <ele>123</ele>
        <time>2017-02-07T14:36:55Z</time>
      </trkpt>
      <trkpt lat="49.39483" lon="1.39061">
        <ele>123</ele>
        <time>2017-02-07T14:37:09Z</time>
      </trkpt>
      <trkpt lat="49.39485" lon="1.3906">
        <ele>123</ele>
        <time>2017-02-07T14:37:10Z</time>
      </trkpt>
      <trkpt lat="49.39491" lon="1.39058">
        <ele>123</ele>
        <time>2017-02-07T14:37:10Z</time>
      </trkpt>
      <trkpt lat="49.39496" lon="1.39057">
        <ele>123</ele>
        <time>2017-02-07T14:37:11Z</time>
      </trkpt>
      <trkpt lat="49.39501" lon="1.39056">
        <ele>123</ele>
        <time>2017-02-07T14:37:28Z</time>
      </trkpt>
      <trkpt lat="49.39505" lon="1.39055">
        <ele>123</ele>
        <time>2017-02-07T14:37:28Z</time>
      </trkpt>
      <trkpt lat="49.39509" lon="1.39057">
        <ele>123</ele>
        <time>2017-02-07T14:37:28Z</time>
      </trkpt>
      <trkpt lat="49.39516" lon="1.3906">
        <ele>123</ele>
        <time>2017-02-07T14:37:28Z</time>
      </trkpt>
      <trkpt lat="49.3952" lon="1.39061">
        <ele>123</ele>
        <time>2017-02-07T14:37:50Z</time>
      </trkpt>
      <trkpt lat="49.39524" lon="1.39063">
        <ele>123</ele>
        <time>2017-02-07T14:37:50Z</time>
      </trkpt>
      <trkpt lat="49.39526" lon="1.39063">
        <ele>123</ele>
        <time>2017-02-07T14:37:50Z</time>
      </trkpt>
      <trkpt lat="49.39526" lon="1.39063">
        <ele>123</ele>
        <time>2017-02-07T14:37:50Z</time>
      </trkpt>
      <trkpt lat="49.39527" lon="1.39063">
        <ele>123</ele>
        <time>2017-02-07T14:37:50Z</time>
      </trkpt>
      <trkpt lat="49.39527" lon="1.39063">
        <ele>123</ele>
        <time>2017-02-07T14:40:10Z</time>
      </trkpt>
      <trkpt lat="49.39528" lon="1.39064">
        <ele>123</ele>
        <time>2017-02-07T14:40:10Z</time>
      </trkpt>
      <trkpt lat="49.39533" lon="1.39068">
        <ele>123</ele>
        <time>2017-02-07T14:40:10Z</time>
      </trkpt>
      <trkpt lat="49.39541" lon="1.39072">
        <ele>123</ele>
        <time>2017-02-07T14:40:10Z</time>
      </trkpt>
      <trkpt lat="49.39545" lon="1.39073">
        <ele>130</ele>
        <time>2017-02-07T14:40:10Z</time>
      </trkpt>
      <trkpt lat="49.3955" lon="1.39078">
        <ele>130</ele>
        <time>2017-02-07T14:40:26Z</time>
      </trkpt>
      <trkpt lat="49.39555" lon="1.39081">
        <ele>130</ele>
        <time>2017-02-07T14:40:27Z</time>
      </trkpt>
      <trkpt lat="49.3956" lon="1.39085">
        <ele>130</ele>
        <time>2017-02-07T14:40:27Z</time>
      </trkpt>
      <trkpt lat="49.39562" lon="1.39089">
        <ele>130</ele>
        <time>2017-02-07T14:40:27Z</time>
      </trkpt>
      <trkpt lat="49.39563" lon="1.39087">
        <ele>130</ele>
        <time>2017-02-07T14:40:46Z</time>
      </trkpt>
      <trkpt lat="49.39573" lon="1.39091">
        <ele>130</ele>
        <time>2017-02-07T14:40:47Z</time>
      </trkpt>
      <trkpt lat="49.39578" lon="1.39093">
        <ele>130</ele>
        <time>2017-02-07T14:40:47Z</time>
      </trkpt>
      <trkpt lat="49.39582" lon="1.39097">
        <ele>130</ele>
        <time>2017-02-07T14:40:47Z</time>
      </trkpt>
      <trkpt lat="49.39586" lon="1.391">
        <ele>130</ele>
        <time>2017-02-07T14:41:03Z</time>
      </trkpt>
      <trkpt lat="49.39592" lon="1.39105">
        <ele>130</ele>
        <time>2017-02-07T14:41:03Z</time>
      </trkpt>
      <trkpt lat="49.39597" lon="1.39109">
        <ele>130</ele>
        <time>2017-02-07T14:41:03Z</time>
      </trkpt>
      <trkpt lat="49.396" lon="1.39113">
        <ele>130</ele>
        <time>2017-02-07T14:41:03Z</time>
      </trkpt>
      <trkpt lat="49.39605" lon="1.39116">
        <ele>130</ele>
        <time>2017-02-07T14:41:18Z</time>
      </trkpt>
      <trkpt lat="49.39609" lon="1.39118">
        <ele>130</ele>
        <time>2017-02-07T14:41:19Z</time>
      </trkpt>
      <trkpt lat="49.39613" lon="1.39121">
        <ele>130</ele>
        <time>2017-02-07T14:41:19Z</time>
      </trkpt>
      <trkpt lat="49.39617" lon="1.39124">
        <ele>130</ele>
        <time>2017-02-07T14:41:19Z</time>
      </trkpt>
      <trkpt lat="49.39625" lon="1.39128">
        <ele>123</ele>
        <time>2017-02-07T14:41:37Z</time>
      </trkpt>
      <trkpt lat="49.39635" lon="1.39131">
        <ele>133</ele>
        <time>2017-02-07T14:41:38Z</time>
      </trkpt>
      <trkpt lat="49.39639" lon="1.39137">
        <ele>133</ele>
        <time>2017-02-07T14:41:38Z</time>
      </trkpt>
      <trkpt lat="49.39643" lon="1.3914">
        <ele>133</ele>
        <time>2017-02-07T14:41:38Z</time>
      </trkpt>
      <trkpt lat="49.3965" lon="1.39147">
        <ele>133</ele>
        <time>2017-02-07T14:41:54Z</time>
      </trkpt>
      <trkpt lat="49.39652" lon="1.39151">
        <ele>133</ele>
        <time>2017-02-07T14:41:54Z</time>
      </trkpt>
      <trkpt lat="49.39657" lon="1.39155">
        <ele>133</ele>
        <time>2017-02-07T14:41:54Z</time>
      </trkpt>
      <trkpt lat="49.39662" lon="1.39159">
        <ele>133</ele>
        <time>2017-02-07T14:41:54Z</time>
      </trkpt>
      <trkpt lat="49.39671" lon="1.39164">
        <ele>133</ele>
        <time>2017-02-07T14:42:34Z</time>
      </trkpt>
      <trkpt lat="49.39672" lon="1.39164">
        <ele>133</ele>
        <time>2017-02-07T14:42:34Z</time>
      </trkpt>
      <trkpt lat="49.39674" lon="1.39166">
        <ele>133</ele>
        <time>2017-02-07T14:42:34Z</time>
      </trkpt>
      <trkpt lat="49.39686" lon="1.39173">
        <ele>133</ele>
        <time>2017-02-07T14:42:34Z</time>
      </trkpt>
      <trkpt lat="49.39688" lon="1.39176">
        <ele>133</ele>
        <time>2017-02-07T14:42:35Z</time>
      </trkpt>
      <trkpt lat="49.39691" lon="1.39182">
        <ele>133</ele>
        <time>2017-02-07T14:42:50Z</time>
      </trkpt>
      <trkpt lat="49.39695" lon="1.39184">
        <ele>133</ele>
        <time>2017-02-07T14:42:50Z</time>
      </trkpt>
      <trkpt lat="49.39696" lon="1.39186">
        <ele>133</ele>
        <time>2017-02-07T14:42:51Z</time>
      </trkpt>
      <trkpt lat="49.397" lon="1.39191">
        <ele>133</ele>
        <time>2017-02-07T14:42:51Z</time>
      </trkpt>
      <trkpt lat="49.39719" lon="1.39198">
        <ele>136</ele>
        <time>2017-02-07T14:43:25Z</time>
      </trkpt>
      <trkpt lat="49.39723" lon="1.39198">
        <ele>136</ele>
        <time>2017-02-07T14:43:26Z</time>
      </trkpt>
      <trkpt lat="49.39728" lon="1.39197">
        <ele>136</ele>
        <time>2017-02-07T14:43:26Z</time>
      </trkpt>
      <trkpt lat="49.39732" lon="1.39197">
        <ele>136</ele>
        <time>2017-02-07T14:43:26Z</time>
      </trkpt>
      <trkpt lat="49.39735" lon="1.39197">
        <ele>136</ele>
        <time>2017-02-07T14:43:26Z</time>
      </trkpt>
      <trkpt lat="49.3974" lon="1.39199">
        <ele>136</ele>
        <time>2017-02-07T14:43:42Z</time>
      </trkpt>
      <trkpt lat="49.39744" lon="1.392">
        <ele>136</ele>
        <time>2017-02-07T14:43:42Z</time>
      </trkpt>
      <trkpt lat="49.3975" lon="1.39203">
        <ele>136</ele>
        <time>2017-02-07T14:43:42Z</time>
      </trkpt>
      <trkpt lat="49.39751" lon="1.39203">
        <ele>136</ele>
        <time>2017-02-07T14:43:42Z</time>
      </trkpt>
      <trkpt lat="49.39759" lon="1.39202">
        <ele>136</ele>
        <time>2017-02-07T14:43:58Z</time>
      </trkpt>
      <trkpt lat="49.39764" lon="1.39204">
        <ele>136</ele>
        <time>2017-02-07T14:43:59Z</time>
      </trkpt>
      <trkpt lat="49.3977" lon="1.39205">
        <ele>136</ele>
        <time>2017-02-07T14:43:59Z</time>
      </trkpt>
      <trkpt lat="49.39776" lon="1.39207">
        <ele>136</ele>
        <time>2017-02-07T14:43:59Z</time>
      </trkpt>
      <trkpt lat="49.39779" lon="1.39208">
        <ele>136</ele>
        <time>2017-02-07T14:44:14Z</time>
      </trkpt>
      <trkpt lat="49.39782" lon="1.3921">
        <ele>135</ele>
        <time>2017-02-07T14:44:15Z</time>
      </trkpt>
      <trkpt lat="49.39787" lon="1.3921">
        <ele>135</ele>
        <time>2017-02-07T14:44:15Z</time>
      </trkpt>
      <trkpt lat="49.39791" lon="1.3921">
        <ele>135</ele>
        <time>2017-02-07T14:44:15Z</time>
      </trkpt>
      <trkpt lat="49.39795" lon="1.39212">
        <ele>136</ele>
        <time>2017-02-07T14:44:29Z</time>
      </trkpt>
      <trkpt lat="49.39799" lon="1.39213">
        <ele>136</ele>
        <time>2017-02-07T14:44:29Z</time>
      </trkpt>
      <trkpt lat="49.39803" lon="1.39214">
        <ele>136</ele>
        <time>2017-02-07T14:44:29Z</time>
      </trkpt>
      <trkpt lat="49.39807" lon="1.39215">
        <ele>136</ele>
        <time>2017-02-07T14:44:29Z</time>
      </trkpt>
      <trkpt lat="49.3981" lon="1.39216">
        <ele>136</ele>
        <time>2017-02-07T14:44:46Z</time>
      </trkpt>
      <trkpt lat="49.39815" lon="1.39219">
        <ele>136</ele>
        <time>2017-02-07T14:44:47Z</time>
      </trkpt>
      <trkpt lat="49.39822" lon="1.39218">
        <ele>136</ele>
        <time>2017-02-07T14:44:47Z</time>
      </trkpt>
      <trkpt lat="49.39827" lon="1.39217">
        <ele>136</ele>
        <time>2017-02-07T14:44:47Z</time>
      </trkpt>
      <trkpt lat="49.39841" lon="1.39221">
        <ele>136</ele>
        <time>2017-02-07T14:45:08Z</time>
      </trkpt>
      <trkpt lat="49.39843" lon="1.3922">
        <ele>136</ele>
        <time>2017-02-07T14:45:08Z</time>
      </trkpt>
      <trkpt lat="49.39848" lon="1.3922">
        <ele>136</ele>
        <time>2017-02-07T14:45:08Z</time>
      </trkpt>
      <trkpt lat="49.39851" lon="1.39223">
        <ele>136</ele>
        <time>2017-02-07T14:45:08Z</time>
      </trkpt>
      <trkpt lat="49.39856" lon="1.39225">
        <ele>136</ele>
        <time>2017-02-07T14:45:21Z</time>
      </trkpt>
      <trkpt lat="49.3986" lon="1.39226">
        <ele>136</ele>
        <time>2017-02-07T14:45:22Z</time>
      </trkpt>
      <trkpt lat="49.39863" lon="1.39225">
        <ele>136</ele>
        <time>2017-02-07T14:45:22Z</time>
      </trkpt>
      <trkpt lat="49.3987" lon="1.39225">
        <ele>136</ele>
        <time>2017-02-07T14:45:22Z</time>
      </trkpt>
      <trkpt lat="49.39877" lon="1.39225">
        <ele>134</ele>
        <time>2017-02-07T14:45:38Z</time>
      </trkpt>
      <trkpt lat="49.39879" lon="1.39225">
        <ele>134</ele>
        <time>2017-02-07T14:45:38Z</time>
      </trkpt>
      <trkpt lat="49.39884" lon="1.39226">
        <ele>134</ele>
        <time>2017-02-07T14:45:38Z</time>
      </trkpt>
      <trkpt lat="49.39888" lon="1.39228">
        <ele>134</ele>
        <time>2017-02-07T14:45:38Z</time>
      </trkpt>
      <trkpt lat="49.39892" lon="1.39229">
        <ele>134</ele>
        <time>2017-02-07T14:45:53Z</time>
      </trkpt>
      <trkpt lat="49.39897" lon="1.3923">
        <ele>134</ele>
        <time>2017-02-07T14:45:53Z</time>
      </trkpt>
      <trkpt lat="49.39905" lon="1.39233">
        <ele>134</ele>
        <time>2017-02-07T14:45:53Z</time>
      </trkpt>
      <trkpt lat="49.39908" lon="1.39234">
        <ele>134</ele>
        <time>2017-02-07T14:45:54Z</time>
      </trkpt>
      <trkpt lat="49.39912" lon="1.39235">
        <ele>134</ele>
        <time>2017-02-07T14:46:11Z</time>
      </trkpt>
      <trkpt lat="49.39919" lon="1.39237">
        <ele>134</ele>
        <time>2017-02-07T14:46:11Z</time>
      </trkpt>
      <trkpt lat="49.39921" lon="1.39238">
        <ele>134</ele>
        <time>2017-02-07T14:46:11Z</time>
      </trkpt>
      <trkpt lat="49.39926" lon="1.3924">
        <ele>134</ele>
        <time>2017-02-07T14:46:11Z</time>
      </trkpt>
      <trkpt lat="49.39934" lon="1.39239">
        <ele>134</ele>
        <time>2017-02-07T14:46:28Z</time>
      </trkpt>
      <trkpt lat="49.39939" lon="1.3924">
        <ele>134</ele>
        <time>2017-02-07T14:46:28Z</time>
      </trkpt>
      <trkpt lat="49.39942" lon="1.3924">
        <ele>134</ele>
        <time>2017-02-07T14:46:28Z</time>
      </trkpt>
      <trkpt lat="49.39949" lon="1.39241">
        <ele>134</ele>
        <time>2017-02-07T14:46:28Z</time>
      </trkpt>
      <trkpt lat="49.39952" lon="1.39242">
        <ele>134</ele>
        <time>2017-02-07T14:46:43Z</time>
      </trkpt>
      <trkpt lat="49.39956" lon="1.39241">
        <ele>134</ele>
        <time>2017-02-07T14:46:43Z</time>
      </trkpt>
      <trkpt lat="49.39959" lon="1.39242">
        <ele>134</ele>
        <time>2017-02-07T14:46:43Z</time>
      </trkpt>
      <trkpt lat="49.39964" lon="1.39243">
        <ele>134</ele>
        <time>2017-02-07T14:46:43Z</time>
      </trkpt>
      <trkpt lat="49.39969" lon="1.39243">
        <ele>134</ele>
        <time>2017-02-07T14:46:58Z</time>
      </trkpt>
      <trkpt lat="49.39974" lon="1.39243">
        <ele>134</ele>
        <time>2017-02-07T14:46:58Z</time>
      </trkpt>
      <trkpt lat="49.39979" lon="1.39244">
        <ele>134</ele>
        <time>2017-02-07T14:46:58Z</time>
      </trkpt>
      <trkpt lat="49.39983" lon="1.39246">
        <ele>134</ele>
        <time>2017-02-07T14:46:58Z</time>
      </trkpt>
      <trkpt lat="49.39988" lon="1.3926">
        <ele>134</ele>
        <time>2017-02-07T14:47:49Z</time>
      </trkpt>
      <trkpt lat="49.39988" lon="1.3926">
        <ele>134</ele>
        <time>2017-02-07T14:47:50Z</time>
      </trkpt>
      <trkpt lat="49.39988" lon="1.39261">
        <ele>134</ele>
        <time>2017-02-07T14:47:50Z</time>
      </trkpt>
      <trkpt lat="49.39989" lon="1.39264">
        <ele>134</ele>
        <time>2017-02-07T14:47:50Z</time>
      </trkpt>
      <trkpt lat="49.3999" lon="1.39268">
        <ele>134</ele>
        <time>2017-02-07T14:47:50Z</time>
      </trkpt>
      <trkpt lat="49.39994" lon="1.39271">
        <ele>134</ele>
        <time>2017-02-07T14:48:07Z</time>
      </trkpt>
      <trkpt lat="49.39997" lon="1.39275">
        <ele>134</ele>
        <time>2017-02-07T14:48:07Z</time>
      </trkpt>
      <trkpt lat="49.40002" lon="1.39275">
        <ele>134</ele>
        <time>2017-02-07T14:48:07Z</time>
      </trkpt>
      <trkpt lat="49.40005" lon="1.39281">
        <ele>134</ele>
        <time>2017-02-07T14:48:07Z</time>
      </trkpt>
      <trkpt lat="49.40007" lon="1.39286">
        <ele>134</ele>
        <time>2017-02-07T14:48:22Z</time>
      </trkpt>
      <trkpt lat="49.40013" lon="1.39289">
        <ele>134</ele>
        <time>2017-02-07T14:48:23Z</time>
      </trkpt>
      <trkpt lat="49.40018" lon="1.39298">
        <ele>130</ele>
        <time>2017-02-07T14:48:23Z</time>
      </trkpt>
      <trkpt lat="49.40024" lon="1.393">
        <ele>130</ele>
        <time>2017-02-07T14:48:23Z</time>
      </trkpt>
      <trkpt lat="49.40025" lon="1.39304">
        <ele>130</ele>
        <time>2017-02-07T14:48:46Z</time>
      </trkpt>
      <trkpt lat="49.40026" lon="1.39306">
        <ele>130</ele>
        <time>2017-02-07T14:48:46Z</time>
      </trkpt>
      <trkpt lat="49.40026" lon="1.39306">
        <ele>130</ele>
        <time>2017-02-07T14:48:49Z</time>
      </trkpt>
      <trkpt lat="49.40031" lon="1.3931">
        <ele>130</ele>
        <time>2017-02-07T14:48:49Z</time>
      </trkpt>
      <trkpt lat="49.40032" lon="1.39315">
        <ele>130</ele>
        <time>2017-02-07T14:48:49Z</time>
      </trkpt>
      <trkpt lat="49.40043" lon="1.39336">
        <ele>141</ele>
        <time>2017-02-07T14:49:06Z</time>
      </trkpt>
      <trkpt lat="49.40043" lon="1.39343">
        <ele>141</ele>
        <time>2017-02-07T14:49:06Z</time>
      </trkpt>
      <trkpt lat="49.40047" lon="1.39345">
        <ele>141</ele>
        <time>2017-02-07T14:49:06Z</time>
      </trkpt>
      <trkpt lat="49.40051" lon="1.39351">
        <ele>141</ele>
        <time>2017-02-07T14:49:06Z</time>
      </trkpt>
      <trkpt lat="49.40053" lon="1.39357">
        <ele>141</ele>
        <time>2017-02-07T14:49:23Z</time>
      </trkpt>
      <trkpt lat="49.40059" lon="1.39358">
        <ele>141</ele>
        <time>2017-02-07T14:49:24Z</time>
      </trkpt>
      <trkpt lat="49.40064" lon="1.39362">
        <ele>141</ele>
        <time>2017-02-07T14:49:24Z</time>
      </trkpt>
      <trkpt lat="49.40067" lon="1.39363">
        <ele>141</ele>
        <time>2017-02-07T14:49:24Z</time>
      </trkpt>
      <trkpt lat="49.4007" lon="1.39367">
        <ele>141</ele>
        <time>2017-02-07T14:49:37Z</time>
      </trkpt>
      <trkpt lat="49.40073" lon="1.39369">
        <ele>141</ele>
        <time>2017-02-07T14:49:39Z</time>
      </trkpt>
      <trkpt lat="49.40078" lon="1.39374">
        <ele>141</ele>
        <time>2017-02-07T14:49:39Z</time>
      </trkpt>
      <trkpt lat="49.40082" lon="1.39384">
        <ele>137</ele>
        <time>2017-02-07T14:49:39Z</time>
      </trkpt>
      <trkpt lat="49.4009" lon="1.39387">
        <ele>137</ele>
        <time>2017-02-07T14:49:55Z</time>
      </trkpt>
      <trkpt lat="49.40094" lon="1.39392">
        <ele>137</ele>
        <time>2017-02-07T14:49:55Z</time>
      </trkpt>
      <trkpt lat="49.40096" lon="1.39399">
        <ele>137</ele>
        <time>2017-02-07T14:49:55Z</time>
      </trkpt>
      <trkpt lat="49.40098" lon="1.39403">
        <ele>137</ele>
        <time>2017-02-07T14:49:55Z</time>
      </trkpt>
      <trkpt lat="49.40101" lon="1.39408">
        <ele>137</ele>
        <time>2017-02-07T14:50:09Z</time>
      </trkpt>
      <trkpt lat="49.40103" lon="1.39412">
        <ele>137</ele>
        <time>2017-02-07T14:50:09Z</time>
      </trkpt>
      <trkpt lat="49.40106" lon="1.39415">
        <ele>137</ele>
        <time>2017-02-07T14:50:09Z</time>
      </trkpt>
      <trkpt lat="49.40109" lon="1.39417">
        <ele>137</ele>
        <time>2017-02-07T14:50:09Z</time>
      </trkpt>
      <trkpt lat="49.40115" lon="1.39423">
        <ele>137</ele>
        <time>2017-02-07T14:50:26Z</time>
      </trkpt>
      <trkpt lat="49.4012" lon="1.39428">
        <ele>137</ele>
        <time>2017-02-07T14:50:26Z</time>
      </trkpt>
      <trkpt lat="49.40122" lon="1.39434">
        <ele>137</ele>
        <time>2017-02-07T14:50:27Z</time>
      </trkpt>
      <trkpt lat="49.4013" lon="1.39436">
        <ele>147</ele>
        <time>2017-02-07T14:50:27Z</time>
      </trkpt>
      <trkpt lat="49.40138" lon="1.3944">
        <ele>147</ele>
        <time>2017-02-07T14:50:42Z</time>
      </trkpt>
      <trkpt lat="49.40144" lon="1.39448">
        <ele>147</ele>
        <time>2017-02-07T14:50:42Z</time>
      </trkpt>
      <trkpt lat="49.40151" lon="1.39448">
        <ele>147</ele>
        <time>2017-02-07T14:50:42Z</time>
      </trkpt>
      <trkpt lat="49.4015" lon="1.39452">
        <ele>147</ele>
        <time>2017-02-07T14:50:42Z</time>
      </trkpt>
      <trkpt lat="49.40153" lon="1.39459">
        <ele>142</ele>
        <time>2017-02-07T14:50:58Z</time>
      </trkpt>
      <trkpt lat="49.40157" lon="1.39461">
        <ele>142</ele>
        <time>2017-02-07T14:50:58Z</time>
      </trkpt>
      <trkpt lat="49.40162" lon="1.39464">
        <ele>142</ele>
        <time>2017-02-07T14:50:58Z</time>
      </trkpt>
      <trkpt lat="49.40163" lon="1.39465">
        <ele>142</ele>
        <time>2017-02-07T14:50:58Z</time>
      </trkpt>
      <trkpt lat="49.40166" lon="1.39465">
        <ele>142</ele>
        <time>2017-02-07T14:51:15Z</time>
      </trkpt>
      <trkpt lat="49.4017" lon="1.39468">
        <ele>142</ele>
        <time>2017-02-07T14:51:15Z</time>
      </trkpt>
      <trkpt lat="49.40173" lon="1.39472">
        <ele>142</ele>
        <time>2017-02-07T14:51:15Z</time>
      </trkpt>
      <trkpt lat="49.4018" lon="1.39472">
        <ele>142</ele>
        <time>2017-02-07T14:51:15Z</time>
      </trkpt>
      <trkpt lat="49.40178" lon="1.3948">
        <ele>142</ele>
        <time>2017-02-07T14:51:42Z</time>
      </trkpt>
      <trkpt lat="49.40179" lon="1.39481">
        <ele>142</ele>
        <time>2017-02-07T14:51:42Z</time>
      </trkpt>
      <trkpt lat="49.4018" lon="1.39481">
        <ele>142</ele>
        <time>2017-02-07T14:51:42Z</time>
      </trkpt>
      <trkpt lat="49.4018" lon="1.39481">
        <ele>142</ele>
        <time>2017-02-07T14:51:42Z</time>
      </trkpt>
      <trkpt lat="49.40182" lon="1.3949">
        <ele>142</ele>
        <time>2017-02-07T14:51:42Z</time>
      </trkpt>
      <trkpt lat="49.40181" lon="1.39502">
        <ele>142</ele>
        <time>2017-02-07T14:51:58Z</time>
      </trkpt>
      <trkpt lat="49.4018" lon="1.39508">
        <ele>142</ele>
        <time>2017-02-07T14:52:00Z</time>
      </trkpt>
      <trkpt lat="49.4018" lon="1.39513">
        <ele>142</ele>
        <time>2017-02-07T14:52:00Z</time>
      </trkpt>
      <trkpt lat="49.40179" lon="1.39529">
        <ele>142</ele>
        <time>2017-02-07T14:52:00Z</time>
      </trkpt>
      <trkpt lat="49.40183" lon="1.39533">
        <ele>142</ele>
        <time>2017-02-07T14:52:18Z</time>
      </trkpt>
      <trkpt lat="49.40177" lon="1.39553">
        <ele>140</ele>
        <time>2017-02-07T14:52:18Z</time>
      </trkpt>
      <trkpt lat="49.40178" lon="1.3956">
        <ele>140</ele>
        <time>2017-02-07T14:52:18Z</time>
      </trkpt>
      <trkpt lat="49.40173" lon="1.39571">
        <ele>140</ele>
        <time>2017-02-07T14:52:18Z</time>
      </trkpt>
      <trkpt lat="49.40171" lon="1.39582">
        <ele>140</ele>
        <time>2017-02-07T14:52:43Z</time>
      </trkpt>
      <trkpt lat="49.4017" lon="1.39585">
        <ele>140</ele>
        <time>2017-02-07T14:52:44Z</time>
      </trkpt>
      <trkpt lat="49.4017" lon="1.39586">
        <ele>140</ele>
        <time>2017-02-07T14:52:44Z</time>
      </trkpt>
      <trkpt lat="49.4017" lon="1.39593">
        <ele>140</ele>
        <time>2017-02-07T14:52:44Z</time>
      </trkpt>
      <trkpt lat="49.4017" lon="1.39596">
        <ele>140</ele>
        <time>2017-02-07T14:52:44Z</time>
      </trkpt>
      <trkpt lat="49.40163" lon="1.39617">
        <ele>140</ele>
        <time>2017-02-07T14:53:06Z</time>
      </trkpt>
      <trkpt lat="49.40159" lon="1.39628">
        <ele>142</ele>
        <time>2017-02-07T14:53:08Z</time>
      </trkpt>
      <trkpt lat="49.40158" lon="1.39637">
        <ele>142</ele>
        <time>2017-02-07T14:53:08Z</time>
      </trkpt>
      <trkpt lat="49.40158" lon="1.39644">
        <ele>142</ele>
        <time>2017-02-07T14:53:08Z</time>
      </trkpt>
      <trkpt lat="49.40156" lon="1.39653">
        <ele>142</ele>
        <time>2017-02-07T14:53:21Z</time>
      </trkpt>
      <trkpt lat="49.40158" lon="1.3966">
        <ele>142</ele>
        <time>2017-02-07T14:53:22Z</time>
      </trkpt>
      <trkpt lat="49.40157" lon="1.39667">
        <ele>142</ele>
        <time>2017-02-07T14:53:22Z</time>
      </trkpt>
      <trkpt lat="49.40157" lon="1.39673">
        <ele>142</ele>
        <time>2017-02-07T14:53:22Z</time>
      </trkpt>
      <trkpt lat="49.40157" lon="1.39678">
        <ele>142</ele>
        <time>2017-02-07T14:53:38Z</time>
      </trkpt>
      <trkpt lat="49.40158" lon="1.39685">
        <ele>142</ele>
        <time>2017-02-07T14:53:39Z</time>
      </trkpt>
      <trkpt lat="49.40162" lon="1.39691">
        <ele>142</ele>
        <time>2017-02-07T14:53:41Z</time>
      </trkpt>
      <trkpt lat="49.40163" lon="1.39702">
        <ele>142</ele>
        <time>2017-02-07T14:53:41Z</time>
      </trkpt>
      <trkpt lat="49.40168" lon="1.39712">
        <ele>145</ele>
        <time>2017-02-07T14:53:54Z</time>
      </trkpt>
      <trkpt lat="49.40169" lon="1.39716">
        <ele>145</ele>
        <time>2017-02-07T14:53:54Z</time>
      </trkpt>
      <trkpt lat="49.40171" lon="1.39724">
        <ele>145</ele>
        <time>2017-02-07T14:53:54Z</time>
      </trkpt>
      <trkpt lat="49.40169" lon="1.3973">
        <ele>145</ele>
        <time>2017-02-07T14:53:54Z</time>
      </trkpt>
      <trkpt lat="49.4017" lon="1.39737">
        <ele>145</ele>
        <time>2017-02-07T14:54:10Z</time>
      </trkpt>
      <trkpt lat="49.4017" lon="1.39743">
        <ele>145</ele>
        <time>2017-02-07T14:54:10Z</time>
      </trkpt>
      <trkpt lat="49.40168" lon="1.39753">
        <ele>145</ele>
        <time>2017-02-07T14:54:10Z</time>
      </trkpt>
      <trkpt lat="49.40169" lon="1.39758">
        <ele>145</ele>
        <time>2017-02-07T14:54:10Z</time>
      </trkpt>
      <trkpt lat="49.40168" lon="1.39757">
        <ele>145</ele>
        <time>2017-02-07T14:54:26Z</time>
      </trkpt>
      <trkpt lat="49.40168" lon="1.39758">
        <ele>145</ele>
        <time>2017-02-07T14:54:26Z</time>
      </trkpt>
      <trkpt lat="49.40167" lon="1.39761">
        <ele>145</ele>
        <time>2017-02-07T14:54:27Z</time>
      </trkpt>
      <trkpt lat="49.40163" lon="1.39771">
        <ele>145</ele>
        <time>2017-02-07T14:54:27Z</time>
      </trkpt>
      <trkpt lat="49.40161" lon="1.39779">
        <ele>145</ele>
        <time>2017-02-07T14:54:42Z</time>
      </trkpt>
      <trkpt lat="49.40159" lon="1.39789">
        <ele>145</ele>
        <time>2017-02-07T14:54:42Z</time>
      </trkpt>
      <trkpt lat="49.40159" lon="1.39793">
        <ele>144</ele>
        <time>2017-02-07T14:54:42Z</time>
      </trkpt>
      <trkpt lat="49.40157" lon="1.39805">
        <ele>144</ele>
        <time>2017-02-07T14:54:42Z</time>
      </trkpt>
      <trkpt lat="49.40155" lon="1.39813">
        <ele>144</ele>
        <time>2017-02-07T14:54:59Z</time>
      </trkpt>
      <trkpt lat="49.40154" lon="1.3982">
        <ele>144</ele>
        <time>2017-02-07T14:54:59Z</time>
      </trkpt>
      <trkpt lat="49.40154" lon="1.39826">
        <ele>144</ele>
        <time>2017-02-07T14:54:59Z</time>
      </trkpt>
      <trkpt lat="49.40149" lon="1.39836">
        <ele>144</ele>
        <time>2017-02-07T14:54:59Z</time>
      </trkpt>
      <trkpt lat="49.40147" lon="1.39838">
        <ele>144</ele>
        <time>2017-02-07T14:55:14Z</time>
      </trkpt>
      <trkpt lat="49.40142" lon="1.39843">
        <ele>144</ele>
        <time>2017-02-07T14:55:15Z</time>
      </trkpt>
      <trkpt lat="49.40138" lon="1.39844">
        <ele>144</ele>
        <time>2017-02-07T14:55:15Z</time>
      </trkpt>
      <trkpt lat="49.40132" lon="1.39849">
        <ele>144</ele>
        <time>2017-02-07T14:55:15Z</time>
      </trkpt>
      <trkpt lat="49.40127" lon="1.39855">
        <ele>144</ele>
        <time>2017-02-07T14:55:29Z</time>
      </trkpt>
      <trkpt lat="49.40122" lon="1.39857">
        <ele>132</ele>
        <time>2017-02-07T14:55:29Z</time>
      </trkpt>
      <trkpt lat="49.4012" lon="1.3986">
        <ele>132</ele>
        <time>2017-02-07T14:55:29Z</time>
      </trkpt>
      <trkpt lat="49.40118" lon="1.39864">
        <ele>132</ele>
        <time>2017-02-07T14:55:30Z</time>
      </trkpt>
      <trkpt lat="49.40117" lon="1.39869">
        <ele>132</ele>
        <time>2017-02-07T14:55:49Z</time>
      </trkpt>
      <trkpt lat="49.40116" lon="1.39872">
        <ele>132</ele>
        <time>2017-02-07T14:55:49Z</time>
      </trkpt>
      <trkpt lat="49.40114" lon="1.39877">
        <ele>130</ele>
        <time>2017-02-07T14:55:49Z</time>
      </trkpt>
      <trkpt lat="49.40113" lon="1.39882">
        <ele>130</ele>
        <time>2017-02-07T14:55:50Z</time>
      </trkpt>
      <trkpt lat="49.40112" lon="1.39889">
        <ele>130</ele>
        <time>2017-02-07T14:55:50Z</time>
      </trkpt>
      <trkpt lat="49.40113" lon="1.39901">
        <ele>130</ele>
        <time>2017-02-07T14:56:06Z</time>
      </trkpt>
      <trkpt lat="49.40115" lon="1.39906">
        <ele>130</ele>
        <time>2017-02-07T14:56:06Z</time>
      </trkpt>
      <trkpt lat="49.40115" lon="1.39913">
        <ele>130</ele>
        <time>2017-02-07T14:56:06Z</time>
      </trkpt>
      <trkpt lat="49.40116" lon="1.39917">
        <ele>130</ele>
        <time>2017-02-07T14:56:06Z</time>
      </trkpt>
      <trkpt lat="49.40116" lon="1.39924">
        <ele>130</ele>
        <time>2017-02-07T14:56:22Z</time>
      </trkpt>
      <trkpt lat="49.4012" lon="1.39926">
        <ele>130</ele>
        <time>2017-02-07T14:56:22Z</time>
      </trkpt>
      <trkpt lat="49.40122" lon="1.39937">
        <ele>130</ele>
        <time>2017-02-07T14:56:22Z</time>
      </trkpt>
      <trkpt lat="49.40125" lon="1.39944">
        <ele>130</ele>
        <time>2017-02-07T14:56:23Z</time>
      </trkpt>
      <trkpt lat="49.40125" lon="1.39953">
        <ele>140</ele>
        <time>2017-02-07T14:56:38Z</time>
      </trkpt>
      <trkpt lat="49.40129" lon="1.3996">
        <ele>137</ele>
        <time>2017-02-07T14:56:38Z</time>
      </trkpt>
      <trkpt lat="49.40131" lon="1.39968">
        <ele>137</ele>
        <time>2017-02-07T14:56:38Z</time>
      </trkpt>
      <trkpt lat="49.40131" lon="1.39977">
        <ele>137</ele>
        <time>2017-02-07T14:56:38Z</time>
      </trkpt>
      <trkpt lat="49.40131" lon="1.39981">
        <ele>137</ele>
        <time>2017-02-07T14:56:54Z</time>
      </trkpt>
      <trkpt lat="49.40136" lon="1.39988">
        <ele>137</ele>
        <time>2017-02-07T14:56:54Z</time>
      </trkpt>
      <trkpt lat="49.40136" lon="1.39992">
        <ele>137</ele>
        <time>2017-02-07T14:56:54Z</time>
      </trkpt>
      <trkpt lat="49.40139" lon="1.40004">
        <ele>137</ele>
        <time>2017-02-07T14:56:54Z</time>
      </trkpt>
      <trkpt lat="49.40139" lon="1.40009">
        <ele>137</ele>
        <time>2017-02-07T14:57:10Z</time>
      </trkpt>
      <trkpt lat="49.40141" lon="1.40017">
        <ele>137</ele>
        <time>2017-02-07T14:57:11Z</time>
      </trkpt>
      <trkpt lat="49.4014" lon="1.40028">
        <ele>137</ele>
        <time>2017-02-07T14:57:11Z</time>
      </trkpt>
      <trkpt lat="49.40143" lon="1.40033">
        <ele>137</ele>
        <time>2017-02-07T14:57:11Z</time>
      </trkpt>
      <trkpt lat="49.40144" lon="1.40057">
        <ele>135</ele>
        <time>2017-02-07T14:57:34Z</time>
      </trkpt>
      <trkpt lat="49.40144" lon="1.40063">
        <ele>135</ele>
        <time>2017-02-07T14:57:36Z</time>
      </trkpt>
      <trkpt lat="49.40144" lon="1.40067">
        <ele>135</ele>
        <time>2017-02-07T14:57:36Z</time>
      </trkpt>
      <trkpt lat="49.40154" lon="1.40067">
        <ele>135</ele>
        <time>2017-02-07T14:57:36Z</time>
      </trkpt>
      <trkpt lat="49.40155" lon="1.40069">
        <ele>135</ele>
        <time>2017-02-07T14:57:50Z</time>
      </trkpt>
      <trkpt lat="49.4015" lon="1.40086">
        <ele>135</ele>
        <time>2017-02-07T14:57:51Z</time>
      </trkpt>
      <trkpt lat="49.40149" lon="1.40095">
        <ele>135</ele>
        <time>2017-02-07T14:57:51Z</time>
      </trkpt>
      <trkpt lat="49.40151" lon="1.40103">
        <ele>135</ele>
        <time>2017-02-07T14:57:51Z</time>
      </trkpt>
      <trkpt lat="49.40155" lon="1.4011">
        <ele>135</ele>
        <time>2017-02-07T14:58:06Z</time>
      </trkpt>
      <trkpt lat="49.40156" lon="1.40112">
        <ele>135</ele>
        <time>2017-02-07T14:58:06Z</time>
      </trkpt>
      <trkpt lat="49.40158" lon="1.40119">
        <ele>135</ele>
        <time>2017-02-07T14:58:06Z</time>
      </trkpt>
      <trkpt lat="49.40161" lon="1.40126">
        <ele>132</ele>
        <time>2017-02-07T14:58:06Z</time>
      </trkpt>
      <trkpt lat="49.40168" lon="1.40147">
        <ele>132</ele>
        <time>2017-02-07T14:58:38Z</time>
      </trkpt>
      <trkpt lat="49.40169" lon="1.4015">
        <ele>132</ele>
        <time>2017-02-07T14:58:39Z</time>
      </trkpt>
      <trkpt lat="49.40169" lon="1.4015">
        <ele>132</ele>
        <time>2017-02-07T14:58:39Z</time>
      </trkpt>
      <trkpt lat="49.40169" lon="1.4015">
        <ele>132</ele>
        <time>2017-02-07T14:58:39Z</time>
      </trkpt>
      <trkpt lat="49.40173" lon="1.40163">
        <ele>132</ele>
        <time>2017-02-07T14:58:39Z</time>
      </trkpt>
      <trkpt lat="49.4017" lon="1.40186">
        <ele>132</ele>
        <time>2017-02-07T14:58:59Z</time>
      </trkpt>
      <trkpt lat="49.40169" lon="1.40196">
        <ele>132</ele>
        <time>2017-02-07T14:59:00Z</time>
      </trkpt>
      <trkpt lat="49.40171" lon="1.4021">
        <ele>127</ele>
        <time>2017-02-07T14:59:00Z</time>
      </trkpt>
      <trkpt lat="49.40173" lon="1.40214">
        <ele>127</ele>
        <time>2017-02-07T14:59:00Z</time>
      </trkpt>
      <trkpt lat="49.40174" lon="1.40221">
        <ele>127</ele>
        <time>2017-02-07T14:59:14Z</time>
      </trkpt>
      <trkpt lat="49.40178" lon="1.40231">
        <ele>127</ele>
        <time>2017-02-07T14:59:14Z</time>
      </trkpt>
      <trkpt lat="49.40177" lon="1.40237">
        <ele>127</ele>
        <time>2017-02-07T14:59:14Z</time>
      </trkpt>
      <trkpt lat="49.40179" lon="1.40249">
        <ele>127</ele>
        <time>2017-02-07T14:59:14Z</time>
      </trkpt>
      <trkpt lat="49.40178" lon="1.40255">
        <ele>127</ele>
        <time>2017-02-07T14:59:30Z</time>
      </trkpt>
      <trkpt lat="49.40179" lon="1.40265">
        <ele>127</ele>
        <time>2017-02-07T14:59:30Z</time>
      </trkpt>
      <trkpt lat="49.40181" lon="1.40273">
        <ele>127</ele>
        <time>2017-02-07T14:59:30Z</time>
      </trkpt>
      <trkpt lat="49.40186" lon="1.40278">
        <ele>127</ele>
        <time>2017-02-07T14:59:30Z</time>
      </trkpt>
      <trkpt lat="49.40187" lon="1.40281">
        <ele>127</ele>
        <time>2017-02-07T14:59:46Z</time>
      </trkpt>
      <trkpt lat="49.40186" lon="1.40288">
        <ele>127</ele>
        <time>2017-02-07T14:59:46Z</time>
      </trkpt>
      <trkpt lat="49.40188" lon="1.40294">
        <ele>123</ele>
        <time>2017-02-07T14:59:46Z</time>
      </trkpt>
      <trkpt lat="49.40204" lon="1.4029">
        <ele>127</ele>
        <time>2017-02-07T14:59:46Z</time>
      </trkpt>
      <trkpt lat="49.40202" lon="1.40297">
        <ele>123</ele>
        <time>2017-02-07T15:00:01Z</time>
      </trkpt>
      <trkpt lat="49.40199" lon="1.4032">
        <ele>123</ele>
        <time>2017-02-07T15:00:01Z</time>
      </trkpt>
      <trkpt lat="49.40196" lon="1.40326">
        <ele>123</ele>
        <time>2017-02-07T15:00:01Z</time>
      </trkpt>
      <trkpt lat="49.40196" lon="1.40332">
        <ele>123</ele>
        <time>2017-02-07T15:00:01Z</time>
      </trkpt>
      <trkpt lat="49.402" lon="1.40338">
        <ele>123</ele>
        <time>2017-02-07T15:00:18Z</time>
      </trkpt>
      <trkpt lat="49.40202" lon="1.40347">
        <ele>123</ele>
        <time>2017-02-07T15:00:18Z</time>
      </trkpt>
      <trkpt lat="49.40204" lon="1.40347">
        <ele>123</ele>
        <time>2017-02-07T15:00:19Z</time>
      </trkpt>
      <trkpt lat="49.40206" lon="1.4036">
        <ele>123</ele>
        <time>2017-02-07T15:00:19Z</time>
      </trkpt>
      <trkpt lat="49.40206" lon="1.40369">
        <ele>123</ele>
        <time>2017-02-07T15:00:35Z</time>
      </trkpt>
      <trkpt lat="49.40211" lon="1.40371">
        <ele>138</ele>
        <time>2017-02-07T15:00:35Z</time>
      </trkpt>
      <trkpt lat="49.40213" lon="1.40381">
        <ele>133</ele>
        <time>2017-02-07T15:00:35Z</time>
      </trkpt>
      <trkpt lat="49.40214" lon="1.40385">
        <ele>133</ele>
        <time>2017-02-07T15:00:35Z</time>
      </trkpt>
      <trkpt lat="49.40216" lon="1.40389">
        <ele>133</ele>
        <time>2017-02-07T15:00:55Z</time>
      </trkpt>
      <trkpt lat="49.40217" lon="1.40396">
        <ele>133</ele>
        <time>2017-02-07T15:00:56Z</time>
      </trkpt>
      <trkpt lat="49.40218" lon="1.40399">
        <ele>133</ele>
        <time>2017-02-07T15:00:56Z</time>
      </trkpt>
      <trkpt lat="49.40219" lon="1.40403">
        <ele>133</ele>
        <time>2017-02-07T15:00:56Z</time>
      </trkpt>
      <trkpt lat="49.40221" lon="1.40408">
        <ele>133</ele>
        <time>2017-02-07T15:00:56Z</time>
      </trkpt>
      <trkpt lat="49.40226" lon="1.40418">
        <ele>133</ele>
        <time>2017-02-07T15:01:14Z</time>
      </trkpt>
      <trkpt lat="49.40228" lon="1.40421">
        <ele>133</ele>
        <time>2017-02-07T15:01:14Z</time>
      </trkpt>
      <trkpt lat="49.40228" lon="1.40433">
        <ele>133</ele>
        <time>2017-02-07T15:01:14Z</time>
      </trkpt>
      <trkpt lat="49.40229" lon="1.4044">
        <ele>133</ele>
        <time>2017-02-07T15:01:14Z</time>
      </trkpt>
      <trkpt lat="49.40233" lon="1.40448">
        <ele>133</ele>
        <time>2017-02-07T15:01:31Z</time>
      </trkpt>
      <trkpt lat="49.40234" lon="1.40454">
        <ele>133</ele>
        <time>2017-02-07T15:01:31Z</time>
      </trkpt>
      <trkpt lat="49.40235" lon="1.40459">
        <ele>125</ele>
        <time>2017-02-07T15:01:31Z</time>
      </trkpt>
      <trkpt lat="49.40236" lon="1.40463">
        <ele>125</ele>
        <time>2017-02-07T15:01:31Z</time>
      </trkpt>
      <trkpt lat="49.40237" lon="1.40473">
        <ele>125</ele>
        <time>2017-02-07T15:01:50Z</time>
      </trkpt>
      <trkpt lat="49.40236" lon="1.40489">
        <ele>125</ele>
        <time>2017-02-07T15:01:50Z</time>
      </trkpt>
      <trkpt lat="49.40238" lon="1.40491">
        <ele>125</ele>
        <time>2017-02-07T15:01:50Z</time>
      </trkpt>
      <trkpt lat="49.40242" lon="1.40498">
        <ele>125</ele>
        <time>2017-02-07T15:01:50Z</time>
      </trkpt>
      <trkpt lat="49.40244" lon="1.40499">
        <ele>125</ele>
        <time>2017-02-07T15:02:11Z</time>
      </trkpt>
      <trkpt lat="49.40241" lon="1.40505">
        <ele>125</ele>
        <time>2017-02-07T15:02:11Z</time>
      </trkpt>
      <trkpt lat="49.4024" lon="1.4051">
        <ele>125</ele>
        <time>2017-02-07T15:02:11Z</time>
      </trkpt>
      <trkpt lat="49.40242" lon="1.40513">
        <ele>125</ele>
        <time>2017-02-07T15:02:11Z</time>
      </trkpt>
      <trkpt lat="49.40243" lon="1.40519">
        <ele>125</ele>
        <time>2017-02-07T15:02:11Z</time>
      </trkpt>
      <trkpt lat="49.40245" lon="1.40532">
        <ele>125</ele>
        <time>2017-02-07T15:02:35Z</time>
      </trkpt>
      <trkpt lat="49.40244" lon="1.40542">
        <ele>114</ele>
        <time>2017-02-07T15:02:35Z</time>
      </trkpt>
      <trkpt lat="49.40246" lon="1.40547">
        <ele>114</ele>
        <time>2017-02-07T15:02:35Z</time>
      </trkpt>
      <trkpt lat="49.40248" lon="1.4055">
        <ele>114</ele>
        <time>2017-02-07T15:02:35Z</time>
      </trkpt>
      <trkpt lat="49.40249" lon="1.4056">
        <ele>114</ele>
        <time>2017-02-07T15:02:54Z</time>
      </trkpt>
      <trkpt lat="49.40249" lon="1.40567">
        <ele>114</ele>
        <time>2017-02-07T15:02:55Z</time>
      </trkpt>
      <trkpt lat="49.40249" lon="1.40572">
        <ele>114</ele>
        <time>2017-02-07T15:02:55Z</time>
      </trkpt>
      <trkpt lat="49.40247" lon="1.40577">
        <ele>114</ele>
        <time>2017-02-07T15:02:55Z</time>
      </trkpt>
      <trkpt lat="49.40246" lon="1.4059">
        <ele>114</ele>
        <time>2017-02-07T15:03:10Z</time>
      </trkpt>
      <trkpt lat="49.40249" lon="1.40593">
        <ele>114</ele>
        <time>2017-02-07T15:03:11Z</time>
      </trkpt>
      <trkpt lat="49.40249" lon="1.40599">
        <ele>114</ele>
        <time>2017-02-07T15:03:11Z</time>
      </trkpt>
      <trkpt lat="49.40251" lon="1.40604">
        <ele>114</ele>
        <time>2017-02-07T15:03:11Z</time>
      </trkpt>
      <trkpt lat="49.40252" lon="1.4061">
        <ele>114</ele>
        <time>2017-02-07T15:03:26Z</time>
      </trkpt>
      <trkpt lat="49.40255" lon="1.40616">
        <ele>114</ele>
        <time>2017-02-07T15:03:26Z</time>
      </trkpt>
      <trkpt lat="49.40256" lon="1.40622">
        <ele>114</ele>
        <time>2017-02-07T15:03:26Z</time>
      </trkpt>
      <trkpt lat="49.40256" lon="1.40633">
        <ele>107</ele>
        <time>2017-02-07T15:03:26Z</time>
      </trkpt>
      <trkpt lat="49.40261" lon="1.40634">
        <ele>107</ele>
        <time>2017-02-07T15:03:42Z</time>
      </trkpt>
      <trkpt lat="49.4026" lon="1.4064">
        <ele>107</ele>
        <time>2017-02-07T15:03:43Z</time>
      </trkpt>
      <trkpt lat="49.4026" lon="1.40646">
        <ele>107</ele>
        <time>2017-02-07T15:03:43Z</time>
      </trkpt>
      <trkpt lat="49.40263" lon="1.40648">
        <ele>107</ele>
        <time>2017-02-07T15:03:43Z</time>
      </trkpt>
      <trkpt lat="49.40262" lon="1.40667">
        <ele>107</ele>
        <time>2017-02-07T15:04:09Z</time>
      </trkpt>
      <trkpt lat="49.40262" lon="1.40668">
        <ele>107</ele>
        <time>2017-02-07T15:04:10Z</time>
      </trkpt>
      <trkpt lat="49.40263" lon="1.4067">
        <ele>107</ele>
        <time>2017-02-07T15:04:10Z</time>
      </trkpt>
      <trkpt lat="49.40263" lon="1.40671">
        <ele>107</ele>
        <time>2017-02-07T15:04:10Z</time>
      </trkpt>
      <trkpt lat="49.40264" lon="1.40683">
        <ele>107</ele>
        <time>2017-02-07T15:04:10Z</time>
      </trkpt>
      <trkpt lat="49.40266" lon="1.40692">
        <ele>107</ele>
        <time>2017-02-07T15:04:25Z</time>
      </trkpt>
      <trkpt lat="49.40269" lon="1.40704">
        <ele>107</ele>
        <time>2017-02-07T15:04:26Z</time>
      </trkpt>
      <trkpt lat="49.40273" lon="1.40704">
        <ele>107</ele>
        <time>2017-02-07T15:04:26Z</time>
      </trkpt>
      <trkpt lat="49.40274" lon="1.40706">
        <ele>107</ele>
        <time>2017-02-07T15:04:26Z</time>
      </trkpt>
      <trkpt lat="49.40277" lon="1.40708">
        <ele>107</ele>
        <time>2017-02-07T15:04:55Z</time>
      </trkpt>
      <trkpt lat="49.40277" lon="1.40708">
        <ele>107</ele>
        <time>2017-02-07T15:04:55Z</time>
      </trkpt>
      <trkpt lat="49.40277" lon="1.40709">
        <ele>111</ele>
        <time>2017-02-07T15:04:55Z</time>
      </trkpt>
      <trkpt lat="49.40277" lon="1.40709">
        <ele>111</ele>
        <time>2017-02-07T15:04:55Z</time>
      </trkpt>
      <trkpt lat="49.40278" lon="1.40728">
        <ele>111</ele>
        <time>2017-02-07T15:04:55Z</time>
      </trkpt>
      <trkpt lat="49.40281" lon="1.40748">
        <ele>111</ele>
        <time>2017-02-07T15:11:26Z</time>
      </trkpt>
      <trkpt lat="49.40281" lon="1.40748">
        <ele>111</ele>
        <time>2017-02-07T15:11:26Z</time>
      </trkpt>
      <trkpt lat="49.40284" lon="1.40747">
        <ele>111</ele>
        <time>2017-02-07T15:11:27Z</time>
      </trkpt>
      <trkpt lat="49.40288" lon="1.40749">
        <ele>111</ele>
        <time>2017-02-07T15:11:27Z</time>
      </trkpt>
      <trkpt lat="49.40291" lon="1.40751">
        <ele>111</ele>
        <time>2017-02-07T15:11:27Z</time>
      </trkpt>
      <trkpt lat="49.40297" lon="1.40752">
        <ele>112</ele>
        <time>2017-02-07T15:11:43Z</time>
      </trkpt>
      <trkpt lat="49.40301" lon="1.40754">
        <ele>112</ele>
        <time>2017-02-07T15:11:43Z</time>
      </trkpt>
      <trkpt lat="49.40305" lon="1.40759">
        <ele>112</ele>
        <time>2017-02-07T15:11:43Z</time>
      </trkpt>
      <trkpt lat="49.40309" lon="1.40759">
        <ele>112</ele>
        <time>2017-02-07T15:11:43Z</time>
      </trkpt>
      <trkpt lat="49.40317" lon="1.40758">
        <ele>112</ele>
        <time>2017-02-07T15:11:57Z</time>
      </trkpt>
      <trkpt lat="49.40323" lon="1.40758">
        <ele>112</ele>
        <time>2017-02-07T15:11:57Z</time>
      </trkpt>
      <trkpt lat="49.40331" lon="1.40756">
        <ele>112</ele>
        <time>2017-02-07T15:11:58Z</time>
      </trkpt>
      <trkpt lat="49.40339" lon="1.40752">
        <ele>112</ele>
        <time>2017-02-07T15:11:58Z</time>
      </trkpt>
      <trkpt lat="49.40342" lon="1.40752">
        <ele>112</ele>
        <time>2017-02-07T15:12:13Z</time>
      </trkpt>
      <trkpt lat="49.40348" lon="1.4075">
        <ele>112</ele>
        <time>2017-02-07T15:12:14Z</time>
      </trkpt>
      <trkpt lat="49.40357" lon="1.40751">
        <ele>112</ele>
        <time>2017-02-07T15:12:15Z</time>
      </trkpt>
      <trkpt lat="49.40359" lon="1.4075">
        <ele>112</ele>
        <time>2017-02-07T15:12:15Z</time>
      </trkpt>
      <trkpt lat="49.40363" lon="1.4075">
        <ele>112</ele>
        <time>2017-02-07T15:12:29Z</time>
      </trkpt>
      <trkpt lat="49.40372" lon="1.40744">
        <ele>112</ele>
        <time>2017-02-07T15:12:30Z</time>
      </trkpt>
      <trkpt lat="49.40379" lon="1.40744">
        <ele>116</ele>
        <time>2017-02-07T15:12:30Z</time>
      </trkpt>
      <trkpt lat="49.40385" lon="1.40742">
        <ele>116</ele>
        <time>2017-02-07T15:12:30Z</time>
      </trkpt>
      <trkpt lat="49.40387" lon="1.40742">
        <ele>116</ele>
        <time>2017-02-07T15:12:46Z</time>
      </trkpt>
      <trkpt lat="49.40389" lon="1.40743">
        <ele>116</ele>
        <time>2017-02-07T15:12:46Z</time>
      </trkpt>
      <trkpt lat="49.40395" lon="1.40739">
        <ele>116</ele>
        <time>2017-02-07T15:12:48Z</time>
      </trkpt>
      <trkpt lat="49.40401" lon="1.40735">
        <ele>116</ele>
        <time>2017-02-07T15:12:48Z</time>
      </trkpt>
      <trkpt lat="49.40404" lon="1.40733">
        <ele>116</ele>
        <time>2017-02-07T15:13:01Z</time>
      </trkpt>
      <trkpt lat="49.4041" lon="1.40729">
        <ele>116</ele>
        <time>2017-02-07T15:13:02Z</time>
      </trkpt>
      <trkpt lat="49.40417" lon="1.40728">
        <ele>116</ele>
        <time>2017-02-07T15:13:02Z</time>
      </trkpt>
      <trkpt lat="49.40421" lon="1.40727">
        <ele>116</ele>
        <time>2017-02-07T15:13:02Z</time>
      </trkpt>
      <trkpt lat="49.40426" lon="1.40728">
        <ele>116</ele>
        <time>2017-02-07T15:13:19Z</time>
      </trkpt>
      <trkpt lat="49.40426" lon="1.40728">
        <ele>116</ele>
        <time>2017-02-07T15:13:19Z</time>
      </trkpt>
      <trkpt lat="49.40434" lon="1.40726">
        <ele>116</ele>
        <time>2017-02-07T15:13:19Z</time>
      </trkpt>
      <trkpt lat="49.40438" lon="1.40724">
        <ele>116</ele>
        <time>2017-02-07T15:13:19Z</time>
      </trkpt>
      <trkpt lat="49.40443" lon="1.40722">
        <ele>116</ele>
        <time>2017-02-07T15:13:35Z</time>
      </trkpt>
      <trkpt lat="49.40446" lon="1.4072">
        <ele>116</ele>
        <time>2017-02-07T15:13:35Z</time>
      </trkpt>
      <trkpt lat="49.40453" lon="1.40717">
        <ele>116</ele>
        <time>2017-02-07T15:13:35Z</time>
      </trkpt>
      <trkpt lat="49.40457" lon="1.40713">
        <ele>116</ele>
        <time>2017-02-07T15:13:35Z</time>
      </trkpt>
      <trkpt lat="49.40463" lon="1.40713">
        <ele>123</ele>
        <time>2017-02-07T15:13:50Z</time>
      </trkpt>
      <trkpt lat="49.40472" lon="1.40709">
        <ele>123</ele>
        <time>2017-02-07T15:13:52Z</time>
      </trkpt>
      <trkpt lat="49.40478" lon="1.40707">
        <ele>122</ele>
        <time>2017-02-07T15:13:52Z</time>
      </trkpt>
      <trkpt lat="49.4048" lon="1.40707">
        <ele>122</ele>
        <time>2017-02-07T15:13:52Z</time>
      </trkpt>
      <trkpt lat="49.4048" lon="1.40706">
        <ele>122</ele>
        <time>2017-02-07T15:14:07Z</time>
      </trkpt>
      <trkpt lat="49.40486" lon="1.40706">
        <ele>122</ele>
        <time>2017-02-07T15:14:07Z</time>
      </trkpt>
      <trkpt lat="49.40492" lon="1.40705">
        <ele>122</ele>
        <time>2017-02-07T15:14:07Z</time>
      </trkpt>
      <trkpt lat="49.40502" lon="1.40699">
        <ele>122</ele>
        <time>2017-02-07T15:14:07Z</time>
      </trkpt>
      <trkpt lat="49.40507" lon="1.40698">
        <ele>122</ele>
        <time>2017-02-07T15:14:23Z</time>
      </trkpt>
      <trkpt lat="49.40509" lon="1.40701">
        <ele>122</ele>
        <time>2017-02-07T15:14:23Z</time>
      </trkpt>
      <trkpt lat="49.40513" lon="1.40702">
        <ele>122</ele>
        <time>2017-02-07T15:14:23Z</time>
      </trkpt>
      <trkpt lat="49.40519" lon="1.40702">
        <ele>122</ele>
        <time>2017-02-07T15:14:23Z</time>
      </trkpt>
      <trkpt lat="49.40525" lon="1.40701">
        <ele>122</ele>
        <time>2017-02-07T15:14:38Z</time>
      </trkpt>
      <trkpt lat="49.40526" lon="1.40701">
        <ele>122</ele>
        <time>2017-02-07T15:14:38Z</time>
      </trkpt>
      <trkpt lat="49.40531" lon="1.40698">
        <ele>122</ele>
        <time>2017-02-07T15:14:38Z</time>
      </trkpt>
      <trkpt lat="49.40535" lon="1.40699">
        <ele>122</ele>
        <time>2017-02-07T15:14:38Z</time>
      </trkpt>
      <trkpt lat="49.40543" lon="1.40698">
        <ele>122</ele>
        <time>2017-02-07T15:14:55Z</time>
      </trkpt>
      <trkpt lat="49.40545" lon="1.40698">
        <ele>122</ele>
        <time>2017-02-07T15:14:55Z</time>
      </trkpt>
      <trkpt lat="49.4055" lon="1.40697">
        <ele>122</ele>
        <time>2017-02-07T15:14:55Z</time>
      </trkpt>
      <trkpt lat="49.40553" lon="1.40696">
        <ele>122</ele>
        <time>2017-02-07T15:14:55Z</time>
      </trkpt>
      <trkpt lat="49.40555" lon="1.40696">
        <ele>122</ele>
        <time>2017-02-07T15:15:12Z</time>
      </trkpt>
      <trkpt lat="49.4056" lon="1.40694">
        <ele>122</ele>
        <time>2017-02-07T15:15:12Z</time>
      </trkpt>
      <trkpt lat="49.40569" lon="1.40689">
        <ele>122</ele>
        <time>2017-02-07T15:15:12Z</time>
      </trkpt>
      <trkpt lat="49.40575" lon="1.40688">
        <ele>122</ele>
        <time>2017-02-07T15:15:12Z</time>
      </trkpt>
      <trkpt lat="49.40585" lon="1.40689">
        <ele>122</ele>
        <time>2017-02-07T15:15:30Z</time>
      </trkpt>
      <trkpt lat="49.40588" lon="1.40689">
        <ele>122</ele>
        <time>2017-02-07T15:15:30Z</time>
      </trkpt>
      <trkpt lat="49.40595" lon="1.40689">
        <ele>122</ele>
        <time>2017-02-07T15:15:30Z</time>
      </trkpt>
      <trkpt lat="49.40598" lon="1.40686">
        <ele>122</ele>
        <time>2017-02-07T15:15:30Z</time>
      </trkpt>
      <trkpt lat="49.40609" lon="1.40686">
        <ele>122</ele>
        <time>2017-02-07T15:15:58Z</time>
      </trkpt>
      <trkpt lat="49.40616" lon="1.40686">
        <ele>122</ele>
        <time>2017-02-07T15:15:58Z</time>
      </trkpt>
      <trkpt lat="49.40623" lon="1.40685">
        <ele>122</ele>
        <time>2017-02-07T15:15:58Z</time>
      </trkpt>
      <trkpt lat="49.40626" lon="1.40686">
        <ele>125</ele>
        <time>2017-02-07T15:15:58Z</time>
      </trkpt>
      <trkpt lat="49.40633" lon="1.40683">
        <ele>125</ele>
        <time>2017-02-07T15:15:58Z</time>
      </trkpt>
      <trkpt lat="49.40639" lon="1.40681">
        <ele>125</ele>
        <time>2017-02-07T15:16:15Z</time>
      </trkpt>
      <trkpt lat="49.40641" lon="1.40685">
        <ele>125</ele>
        <time>2017-02-07T15:16:15Z</time>
      </trkpt>
      <trkpt lat="49.40644" lon="1.40691">
        <ele>125</ele>
        <time>2017-02-07T15:16:15Z</time>
      </trkpt>
      <trkpt lat="49.40646" lon="1.40697">
        <ele>125</ele>
        <time>2017-02-07T15:16:15Z</time>
      </trkpt>
      <trkpt lat="49.40649" lon="1.40709">
        <ele>125</ele>
        <time>2017-02-07T15:16:33Z</time>
      </trkpt>
      <trkpt lat="49.40651" lon="1.40722">
        <ele>125</ele>
        <time>2017-02-07T15:16:33Z</time>
      </trkpt>
      <trkpt lat="49.40653" lon="1.40729">
        <ele>125</ele>
        <time>2017-02-07T15:16:33Z</time>
      </trkpt>
      <trkpt lat="49.40654" lon="1.40736">
        <ele>125</ele>
        <time>2017-02-07T15:16:33Z</time>
      </trkpt>
      <trkpt lat="49.40655" lon="1.40743">
        <ele>125</ele>
        <time>2017-02-07T15:16:49Z</time>
      </trkpt>
      <trkpt lat="49.40656" lon="1.4075">
        <ele>125</ele>
        <time>2017-02-07T15:16:50Z</time>
      </trkpt>
      <trkpt lat="49.40655" lon="1.40758">
        <ele>125</ele>
        <time>2017-02-07T15:16:50Z</time>
      </trkpt>
      <trkpt lat="49.40649" lon="1.40763">
        <ele>125</ele>
        <time>2017-02-07T15:16:50Z</time>
      </trkpt>
      <trkpt lat="49.40648" lon="1.40765">
        <ele>125</ele>
        <time>2017-02-07T15:17:10Z</time>
      </trkpt>
      <trkpt lat="49.40647" lon="1.40767">
        <ele>125</ele>
        <time>2017-02-07T15:17:11Z</time>
      </trkpt>
      <trkpt lat="49.40647" lon="1.40767">
        <ele>125</ele>
        <time>2017-02-07T15:17:11Z</time>
      </trkpt>
      <trkpt lat="49.40644" lon="1.40774">
        <ele>125</ele>
        <time>2017-02-07T15:17:11Z</time>
      </trkpt>
      <trkpt lat="49.40641" lon="1.40781">
        <ele>125</ele>
        <time>2017-02-07T15:17:11Z</time>
      </trkpt>
      <trkpt lat="49.40639" lon="1.40787">
        <ele>125</ele>
        <time>2017-02-07T15:17:43Z</time>
      </trkpt>
      <trkpt lat="49.40639" lon="1.40787">
        <ele>125</ele>
        <time>2017-02-07T15:17:43Z</time>
      </trkpt>
      <trkpt lat="49.40639" lon="1.40787">
        <ele>125</ele>
        <time>2017-02-07T15:17:43Z</time>
      </trkpt>
      <trkpt lat="49.40638" lon="1.40788">
        <ele>125</ele>
        <time>2017-02-07T15:17:43Z</time>
      </trkpt>
      <trkpt lat="49.4063" lon="1.40799">
        <ele>131</ele>
        <time>2017-02-07T15:17:43Z</time>
      </trkpt>
      <trkpt lat="49.40627" lon="1.40804">
        <ele>131</ele>
        <time>2017-02-07T15:17:58Z</time>
      </trkpt>
      <trkpt lat="49.40622" lon="1.40816">
        <ele>131</ele>
        <time>2017-02-07T15:17:58Z</time>
      </trkpt>
      <trkpt lat="49.4062" lon="1.40822">
        <ele>131</ele>
        <time>2017-02-07T15:17:58Z</time>
      </trkpt>
      <trkpt lat="49.40615" lon="1.4083">
        <ele>131</ele>
        <time>2017-02-07T15:17:58Z</time>
      </trkpt>
      <trkpt lat="49.40613" lon="1.40835">
        <ele>131</ele>
        <time>2017-02-07T15:18:33Z</time>
      </trkpt>
      <trkpt lat="49.40613" lon="1.40835">
        <ele>131</ele>
        <time>2017-02-07T15:18:33Z</time>
      </trkpt>
      <trkpt lat="49.40609" lon="1.40839">
        <ele>131</ele>
        <time>2017-02-07T15:18:33Z</time>
      </trkpt>
      <trkpt lat="49.40604" lon="1.40841">
        <ele>131</ele>
        <time>2017-02-07T15:18:33Z</time>
      </trkpt>
      <trkpt lat="49.40602" lon="1.40849">
        <ele>131</ele>
        <time>2017-02-07T15:18:34Z</time>
      </trkpt>
      <trkpt lat="49.40601" lon="1.40856">
        <ele>131</ele>
        <time>2017-02-07T15:18:57Z</time>
      </trkpt>
      <trkpt lat="49.406" lon="1.40856">
        <ele>131</ele>
        <time>2017-02-07T15:18:57Z</time>
      </trkpt>
      <trkpt lat="49.40598" lon="1.40859">
        <ele>131</ele>
        <time>2017-02-07T15:18:57Z</time>
      </trkpt>
      <trkpt lat="49.40596" lon="1.40861">
        <ele>131</ele>
        <time>2017-02-07T15:18:58Z</time>
      </trkpt>
      <trkpt lat="49.40594" lon="1.40864">
        <ele>131</ele>
        <time>2017-02-07T15:18:58Z</time>
      </trkpt>
      <trkpt lat="49.40592" lon="1.40864">
        <ele>131</ele>
        <time>2017-02-07T15:19:13Z</time>
      </trkpt>
      <trkpt lat="49.40584" lon="1.40868">
        <ele>131</ele>
        <time>2017-02-07T15:19:13Z</time>
      </trkpt>
      <trkpt lat="49.40583" lon="1.40869">
        <ele>131</ele>
        <time>2017-02-07T15:19:13Z</time>
      </trkpt>
      <trkpt lat="49.40575" lon="1.40871">
        <ele>131</ele>
        <time>2017-02-07T15:19:13Z</time>
      </trkpt>
      <trkpt lat="49.40562" lon="1.40876">
        <ele>134</ele>
        <time>2017-02-07T15:19:46Z</time>
      </trkpt>
      <trkpt lat="49.40559" lon="1.40879">
        <ele>134</ele>
        <time>2017-02-07T15:19:46Z</time>
      </trkpt>
      <trkpt lat="49.40547" lon="1.4089">
        <ele>134</ele>
        <time>2017-02-07T15:19:46Z</time>
      </trkpt>
      <trkpt lat="49.40546" lon="1.40896">
        <ele>134</ele>
        <time>2017-02-07T15:19:47Z</time>
      </trkpt>
      <trkpt lat="49.40543" lon="1.40904">
        <ele>134</ele>
        <time>2017-02-07T15:19:47Z</time>
      </trkpt>
      <trkpt lat="49.40538" lon="1.40912">
        <ele>135</ele>
        <time>2017-02-07T15:20:03Z</time>
      </trkpt>
      <trkpt lat="49.40534" lon="1.40913">
        <ele>135</ele>
        <time>2017-02-07T15:20:03Z</time>
      </trkpt>
      <trkpt lat="49.40528" lon="1.40917">
        <ele>135</ele>
        <time>2017-02-07T15:20:03Z</time>
      </trkpt>
      <trkpt lat="49.40524" lon="1.40921">
        <ele>135</ele>
        <time>2017-02-07T15:20:03Z</time>
      </trkpt>
      <trkpt lat="49.40506" lon="1.40951">
        <ele>135</ele>
        <time>2017-02-07T15:20:43Z</time>
      </trkpt>
      <trkpt lat="49.40505" lon="1.40954">
        <ele>135</ele>
        <time>2017-02-07T15:20:43Z</time>
      </trkpt>
      <trkpt lat="49.40505" lon="1.40957">
        <ele>135</ele>
        <time>2017-02-07T15:20:43Z</time>
      </trkpt>
      <trkpt lat="49.40503" lon="1.40959">
        <ele>137</ele>
        <time>2017-02-07T15:20:43Z</time>
      </trkpt>
      <trkpt lat="49.40503" lon="1.4096">
        <ele>137</ele>
        <time>2017-02-07T15:20:44Z</time>
      </trkpt>
      <trkpt lat="49.40503" lon="1.4096">
        <ele>137</ele>
        <time>2017-02-07T15:20:59Z</time>
      </trkpt>
      <trkpt lat="49.40496" lon="1.4097">
        <ele>137</ele>
        <time>2017-02-07T15:21:00Z</time>
      </trkpt>
      <trkpt lat="49.40496" lon="1.40977">
        <ele>137</ele>
        <time>2017-02-07T15:21:00Z</time>
      </trkpt>
      <trkpt lat="49.40485" lon="1.40985">
        <ele>137</ele>
        <time>2017-02-07T15:21:00Z</time>
      </trkpt>
      <trkpt lat="49.40482" lon="1.40989">
        <ele>137</ele>
        <time>2017-02-07T15:21:14Z</time>
      </trkpt>
      <trkpt lat="49.40479" lon="1.40991">
        <ele>137</ele>
        <time>2017-02-07T15:21:14Z</time>
      </trkpt>
      <trkpt lat="49.40475" lon="1.40997">
        <ele>137</ele>
        <time>2017-02-07T15:21:14Z</time>
      </trkpt>
      <trkpt lat="49.40474" lon="1.40999">
        <ele>137</ele>
        <time>2017-02-07T15:21:14Z</time>
      </trkpt>
      <trkpt lat="49.40452" lon="1.41026">
        <ele>132</ele>
        <time>2017-02-07T15:21:50Z</time>
      </trkpt>
      <trkpt lat="49.40446" lon="1.41036">
        <ele>132</ele>
        <time>2017-02-07T15:21:50Z</time>
      </trkpt>
      <trkpt lat="49.40443" lon="1.41041">
        <ele>132</ele>
        <time>2017-02-07T15:21:50Z</time>
      </trkpt>
      <trkpt lat="49.4044" lon="1.41045">
        <ele>136</ele>
        <time>2017-02-07T15:21:50Z</time>
      </trkpt>
      <trkpt lat="49.40439" lon="1.41052">
        <ele>136</ele>
        <time>2017-02-07T15:21:51Z</time>
      </trkpt>
      <trkpt lat="49.40439" lon="1.41053">
        <ele>136</ele>
        <time>2017-02-07T15:22:07Z</time>
      </trkpt>
      <trkpt lat="49.40433" lon="1.41063">
        <ele>136</ele>
        <time>2017-02-07T15:22:07Z</time>
      </trkpt>
      <trkpt lat="49.40424" lon="1.41076">
        <ele>136</ele>
        <time>2017-02-07T15:22:07Z</time>
      </trkpt>
      <trkpt lat="49.40425" lon="1.4108">
        <ele>136</ele>
        <time>2017-02-07T15:22:07Z</time>
      </trkpt>
      <trkpt lat="49.4042" lon="1.41084">
        <ele>136</ele>
        <time>2017-02-07T15:22:22Z</time>
      </trkpt>
      <trkpt lat="49.40415" lon="1.4109">
        <ele>136</ele>
        <time>2017-02-07T15:22:22Z</time>
      </trkpt>
      <trkpt lat="49.4041" lon="1.41092">
        <ele>136</ele>
        <time>2017-02-07T15:22:22Z</time>
      </trkpt>
      <trkpt lat="49.40407" lon="1.41096">
        <ele>136</ele>
        <time>2017-02-07T15:22:22Z</time>
      </trkpt>
      <trkpt lat="49.40404" lon="1.41101">
        <ele>136</ele>
        <time>2017-02-07T15:22:41Z</time>
      </trkpt>
      <trkpt lat="49.40402" lon="1.41105">
        <ele>136</ele>
        <time>2017-02-07T15:22:41Z</time>
      </trkpt>
      <trkpt lat="49.404" lon="1.41104">
        <ele>136</ele>
        <time>2017-02-07T15:22:42Z</time>
      </trkpt>
      <trkpt lat="49.40398" lon="1.41107">
        <ele>136</ele>
        <time>2017-02-07T15:22:42Z</time>
      </trkpt>
      <trkpt lat="49.40397" lon="1.41113">
        <ele>136</ele>
        <time>2017-02-07T15:22:42Z</time>
      </trkpt>
      <trkpt lat="49.40394" lon="1.41117">
        <ele>136</ele>
        <time>2017-02-07T15:22:58Z</time>
      </trkpt>
      <trkpt lat="49.40392" lon="1.41122">
        <ele>136</ele>
        <time>2017-02-07T15:22:58Z</time>
      </trkpt>
      <trkpt lat="49.40391" lon="1.41126">
        <ele>140</ele>
        <time>2017-02-07T15:22:58Z</time>
      </trkpt>
      <trkpt lat="49.40391" lon="1.41151">
        <ele>140</ele>
        <time>2017-02-07T15:22:58Z</time>
      </trkpt>
      <trkpt lat="49.40387" lon="1.41172">
        <ele>140</ele>
        <time>2017-02-07T15:25:26Z</time>
      </trkpt>
      <trkpt lat="49.40387" lon="1.41172">
        <ele>140</ele>
        <time>2017-02-07T15:25:27Z</time>
      </trkpt>
      <trkpt lat="49.40387" lon="1.41172">
        <ele>140</ele>
        <time>2017-02-07T15:25:27Z</time>
      </trkpt>
      <trkpt lat="49.40387" lon="1.41172">
        <ele>140</ele>
        <time>2017-02-07T15:25:27Z</time>
      </trkpt>
      <trkpt lat="49.40389" lon="1.4118">
        <ele>140</ele>
        <time>2017-02-07T15:25:27Z</time>
      </trkpt>
      <trkpt lat="49.40392" lon="1.41197">
        <ele>140</ele>
        <time>2017-02-07T15:25:46Z</time>
      </trkpt>
      <trkpt lat="49.40393" lon="1.412">
        <ele>140</ele>
        <time>2017-02-07T15:25:46Z</time>
      </trkpt>
      <trkpt lat="49.40397" lon="1.41212">
        <ele>144</ele>
        <time>2017-02-07T15:25:46Z</time>
      </trkpt>
      <trkpt lat="49.40399" lon="1.41221">
        <ele>144</ele>
        <time>2017-02-07T15:25:46Z</time>
      </trkpt>
      <trkpt lat="49.404" lon="1.41229">
        <ele>144</ele>
        <time>2017-02-07T15:26:02Z</time>
      </trkpt>
      <trkpt lat="49.40402" lon="1.41238">
        <ele>144</ele>
        <time>2017-02-07T15:26:02Z</time>
      </trkpt>
      <trkpt lat="49.40404" lon="1.41246">
        <ele>144</ele>
        <time>2017-02-07T15:26:02Z</time>
      </trkpt>
      <trkpt lat="49.40405" lon="1.41253">
        <ele>144</ele>
        <time>2017-02-07T15:26:02Z</time>
      </trkpt>
      <trkpt lat="49.40407" lon="1.41258">
        <ele>144</ele>
        <time>2017-02-07T15:26:20Z</time>
      </trkpt>
      <trkpt lat="49.40405" lon="1.41272">
        <ele>144</ele>
        <time>2017-02-07T15:26:20Z</time>
      </trkpt>
      <trkpt lat="49.40402" lon="1.41284">
        <ele>144</ele>
        <time>2017-02-07T15:26:20Z</time>
      </trkpt>
      <trkpt lat="49.40405" lon="1.41286">
        <ele>144</ele>
        <time>2017-02-07T15:26:20Z</time>
      </trkpt>
      <trkpt lat="49.40411" lon="1.41302">
        <ele>147</ele>
        <time>2017-02-07T15:26:37Z</time>
      </trkpt>
      <trkpt lat="49.4041" lon="1.41307">
        <ele>147</ele>
        <time>2017-02-07T15:26:38Z</time>
      </trkpt>
      <trkpt lat="49.40409" lon="1.41316">
        <ele>147</ele>
        <time>2017-02-07T15:26:38Z</time>
      </trkpt>
      <trkpt lat="49.4041" lon="1.41322">
        <ele>147</ele>
        <time>2017-02-07T15:26:38Z</time>
      </trkpt>
      <trkpt lat="49.40413" lon="1.4133">
        <ele>147</ele>
        <time>2017-02-07T15:26:53Z</time>
      </trkpt>
      <trkpt lat="49.40413" lon="1.41335">
        <ele>147</ele>
        <time>2017-02-07T15:26:53Z</time>
      </trkpt>
      <trkpt lat="49.40413" lon="1.41344">
        <ele>147</ele>
        <time>2017-02-07T15:26:54Z</time>
      </trkpt>
      <trkpt lat="49.40417" lon="1.41354">
        <ele>147</ele>
        <time>2017-02-07T15:26:54Z</time>
      </trkpt>
      <trkpt lat="49.40415" lon="1.41368">
        <ele>147</ele>
        <time>2017-02-07T15:27:12Z</time>
      </trkpt>
      <trkpt lat="49.40414" lon="1.41377">
        <ele>149</ele>
        <time>2017-02-07T15:27:13Z</time>
      </trkpt>
      <trkpt lat="49.40421" lon="1.41386">
        <ele>149</ele>
        <time>2017-02-07T15:27:13Z</time>
      </trkpt>
      <trkpt lat="49.40421" lon="1.41395">
        <ele>149</ele>
        <time>2017-02-07T15:27:13Z</time>
      </trkpt>
      <trkpt lat="49.40422" lon="1.41411">
        <ele>149</ele>
        <time>2017-02-07T15:27:43Z</time>
      </trkpt>
      <trkpt lat="49.40426" lon="1.41418">
        <ele>149</ele>
        <time>2017-02-07T15:27:43Z</time>
      </trkpt>
      <trkpt lat="49.40427" lon="1.41433">
        <ele>149</ele>
        <time>2017-02-07T15:27:43Z</time>
      </trkpt>
      <trkpt lat="49.40425" lon="1.41441">
        <ele>149</ele>
        <time>2017-02-07T15:27:43Z</time>
      </trkpt>
      <trkpt lat="49.40423" lon="1.41456">
        <ele>149</ele>
        <time>2017-02-07T15:27:58Z</time>
      </trkpt>
      <trkpt lat="49.40424" lon="1.41463">
        <ele>150</ele>
        <time>2017-02-07T15:27:59Z</time>
      </trkpt>
      <trkpt lat="49.40423" lon="1.4147">
        <ele>150</ele>
        <time>2017-02-07T15:27:59Z</time>
      </trkpt>
      <trkpt lat="49.40428" lon="1.41474">
        <ele>150</ele>
        <time>2017-02-07T15:27:59Z</time>
      </trkpt>
      <trkpt lat="49.40428" lon="1.4148">
        <ele>150</ele>
        <time>2017-02-07T15:28:14Z</time>
      </trkpt>
      <trkpt lat="49.40422" lon="1.41505">
        <ele>150</ele>
        <time>2017-02-07T15:28:14Z</time>
      </trkpt>
      <trkpt lat="49.40424" lon="1.41515">
        <ele>150</ele>
        <time>2017-02-07T15:28:15Z</time>
      </trkpt>
      <trkpt lat="49.40426" lon="1.41521">
        <ele>150</ele>
        <time>2017-02-07T15:28:15Z</time>
      </trkpt>
      <trkpt lat="49.40431" lon="1.41529">
        <ele>150</ele>
        <time>2017-02-07T15:28:37Z</time>
      </trkpt>
      <trkpt lat="49.40434" lon="1.41543">
        <ele>149</ele>
        <time>2017-02-07T15:28:38Z</time>
      </trkpt>
      <trkpt lat="49.40436" lon="1.41544">
        <ele>149</ele>
        <time>2017-02-07T15:28:38Z</time>
      </trkpt>
      <trkpt lat="49.40436" lon="1.41552">
        <ele>149</ele>
        <time>2017-02-07T15:28:38Z</time>
      </trkpt>
      <trkpt lat="49.40433" lon="1.41561">
        <ele>149</ele>
        <time>2017-02-07T15:28:54Z</time>
      </trkpt>
      <trkpt lat="49.40435" lon="1.4156">
        <ele>149</ele>
        <time>2017-02-07T15:28:54Z</time>
      </trkpt>
      <trkpt lat="49.40434" lon="1.41568">
        <ele>149</ele>
        <time>2017-02-07T15:28:54Z</time>
      </trkpt>
      <trkpt lat="49.40434" lon="1.41576">
        <ele>149</ele>
        <time>2017-02-07T15:28:54Z</time>
      </trkpt>
      <trkpt lat="49.40435" lon="1.41586">
        <ele>149</ele>
        <time>2017-02-07T15:29:38Z</time>
      </trkpt>
      <trkpt lat="49.40436" lon="1.41592">
        <ele>149</ele>
        <time>2017-02-07T15:29:39Z</time>
      </trkpt>
      <trkpt lat="49.40443" lon="1.41637">
        <ele>149</ele>
        <time>2017-02-07T15:29:39Z</time>
      </trkpt>
      <trkpt lat="49.40447" lon="1.41667">
        <ele>149</ele>
        <time>2017-02-07T15:29:39Z</time>
      </trkpt>
      <trkpt lat="49.40447" lon="1.41683">
        <ele>149</ele>
        <time>2017-02-07T15:29:59Z</time>
      </trkpt>
      <trkpt lat="49.40448" lon="1.41689">
        <ele>149</ele>
        <time>2017-02-07T15:30:00Z</time>
      </trkpt>
      <trkpt lat="49.40448" lon="1.41697">
        <ele>149</ele>
        <time>2017-02-07T15:30:00Z</time>
      </trkpt>
      <trkpt lat="49.40448" lon="1.41706">
        <ele>149</ele>
        <time>2017-02-07T15:30:00Z</time>
      </trkpt>
      <trkpt lat="49.40449" lon="1.41708">
        <ele>149</ele>
        <time>2017-02-07T15:30:15Z</time>
      </trkpt>
      <trkpt lat="49.40452" lon="1.41713">
        <ele>148</ele>
        <time>2017-02-07T15:30:15Z</time>
      </trkpt>
      <trkpt lat="49.40455" lon="1.41719">
        <ele>148</ele>
        <time>2017-02-07T15:30:15Z</time>
      </trkpt>
      <trkpt lat="49.40453" lon="1.41724">
        <ele>148</ele>
        <time>2017-02-07T15:30:15Z</time>
      </trkpt>
      <trkpt lat="49.40452" lon="1.41748">
        <ele>148</ele>
        <time>2017-02-07T15:30:33Z</time>
      </trkpt>
      <trkpt lat="49.40451" lon="1.41753">
        <ele>148</ele>
        <time>2017-02-07T15:30:34Z</time>
      </trkpt>
      <trkpt lat="49.40452" lon="1.41759">
        <ele>148</ele>
        <time>2017-02-07T15:30:34Z</time>
      </trkpt>
      <trkpt lat="49.40452" lon="1.41765">
        <ele>148</ele>
        <time>2017-02-07T15:30:34Z</time>
      </trkpt>
      <trkpt lat="49.40453" lon="1.41772">
        <ele>148</ele>
        <time>2017-02-07T15:30:53Z</time>
      </trkpt>
      <trkpt lat="49.40455" lon="1.41781">
        <ele>148</ele>
        <time>2017-02-07T15:30:53Z</time>
      </trkpt>
      <trkpt lat="49.40453" lon="1.41786">
        <ele>148</ele>
        <time>2017-02-07T15:30:53Z</time>
      </trkpt>
      <trkpt lat="49.40452" lon="1.418">
        <ele>148</ele>
        <time>2017-02-07T15:30:53Z</time>
      </trkpt>
      <trkpt lat="49.40451" lon="1.41809">
        <ele>148</ele>
        <time>2017-02-07T15:31:07Z</time>
      </trkpt>
      <trkpt lat="49.40453" lon="1.41817">
        <ele>148</ele>
        <time>2017-02-07T15:31:07Z</time>
      </trkpt>
      <trkpt lat="49.40451" lon="1.41827">
        <ele>148</ele>
        <time>2017-02-07T15:31:07Z</time>
      </trkpt>
      <trkpt lat="49.40455" lon="1.41834">
        <ele>148</ele>
        <time>2017-02-07T15:31:07Z</time>
      </trkpt>
      <trkpt lat="49.40459" lon="1.41839">
        <ele>152</ele>
        <time>2017-02-07T15:31:22Z</time>
      </trkpt>
      <trkpt lat="49.4046" lon="1.41844">
        <ele>152</ele>
        <time>2017-02-07T15:31:22Z</time>
      </trkpt>
      <trkpt lat="49.40462" lon="1.41848">
        <ele>152</ele>
        <time>2017-02-07T15:31:22Z</time>
      </trkpt>
      <trkpt lat="49.40462" lon="1.41853">
        <ele>152</ele>
        <time>2017-02-07T15:31:22Z</time>
      </trkpt>
      <trkpt lat="49.40462" lon="1.41868">
        <ele>152</ele>
        <time>2017-02-07T15:31:50Z</time>
      </trkpt>
      <trkpt lat="49.40463" lon="1.41873">
        <ele>152</ele>
        <time>2017-02-07T15:31:50Z</time>
      </trkpt>
      <trkpt lat="49.40468" lon="1.41902">
        <ele>153</ele>
        <time>2017-02-07T15:31:50Z</time>
      </trkpt>
      <trkpt lat="49.40469" lon="1.41907">
        <ele>153</ele>
        <time>2017-02-07T15:31:50Z</time>
      </trkpt>
      <trkpt lat="49.40472" lon="1.41911">
        <ele>153</ele>
        <time>2017-02-07T15:32:06Z</time>
      </trkpt>
      <trkpt lat="49.40473" lon="1.4192">
        <ele>153</ele>
        <time>2017-02-07T15:32:06Z</time>
      </trkpt>
      <trkpt lat="49.40472" lon="1.41929">
        <ele>153</ele>
        <time>2017-02-07T15:32:06Z</time>
      </trkpt>
      <trkpt lat="49.40471" lon="1.41939">
        <ele>153</ele>
        <time>2017-02-07T15:32:06Z</time>
      </trkpt>
      <trkpt lat="49.40472" lon="1.41942">
        <ele>153</ele>
        <time>2017-02-07T15:32:22Z</time>
      </trkpt>
      <trkpt lat="49.40472" lon="1.41951">
        <ele>153</ele>
        <time>2017-02-07T15:32:22Z</time>
      </trkpt>
      <trkpt lat="49.40471" lon="1.41957">
        <ele>153</ele>
        <time>2017-02-07T15:32:22Z</time>
      </trkpt>
      <trkpt lat="49.40472" lon="1.41967">
        <ele>152</ele>
        <time>2017-02-07T15:32:22Z</time>
      </trkpt>
      <trkpt lat="49.40473" lon="1.41973">
        <ele>152</ele>
        <time>2017-02-07T15:32:37Z</time>
      </trkpt>
      <trkpt lat="49.40473" lon="1.4198">
        <ele>152</ele>
        <time>2017-02-07T15:32:37Z</time>
      </trkpt>
      <trkpt lat="49.40475" lon="1.41988">
        <ele>152</ele>
        <time>2017-02-07T15:32:37Z</time>
      </trkpt>
      <trkpt lat="49.40473" lon="1.42001">
        <ele>152</ele>
        <time>2017-02-07T15:32:37Z</time>
      </trkpt>
      <trkpt lat="49.40473" lon="1.42009">
        <ele>152</ele>
        <time>2017-02-07T15:32:55Z</time>
      </trkpt>
      <trkpt lat="49.40469" lon="1.42019">
        <ele>152</ele>
        <time>2017-02-07T15:32:56Z</time>
      </trkpt>
      <trkpt lat="49.40469" lon="1.42025">
        <ele>152</ele>
        <time>2017-02-07T15:32:56Z</time>
      </trkpt>
      <trkpt lat="49.40466" lon="1.42036">
        <ele>152</ele>
        <time>2017-02-07T15:32:56Z</time>
      </trkpt>
      <trkpt lat="49.40468" lon="1.42056">
        <ele>152</ele>
        <time>2017-02-07T15:33:30Z</time>
      </trkpt>
      <trkpt lat="49.40467" lon="1.42062">
        <ele>152</ele>
        <time>2017-02-07T15:33:30Z</time>
      </trkpt>
      <trkpt lat="49.40467" lon="1.42075">
        <ele>152</ele>
        <time>2017-02-07T15:33:30Z</time>
      </trkpt>
      <trkpt lat="49.40465" lon="1.4208">
        <ele>152</ele>
        <time>2017-02-07T15:33:30Z</time>
      </trkpt>
      <trkpt lat="49.40466" lon="1.42089">
        <ele>152</ele>
        <time>2017-02-07T15:33:30Z</time>
      </trkpt>
      <trkpt lat="49.40467" lon="1.42098">
        <ele>152</ele>
        <time>2017-02-07T15:33:46Z</time>
      </trkpt>
      <trkpt lat="49.40466" lon="1.42109">
        <ele>152</ele>
        <time>2017-02-07T15:33:46Z</time>
      </trkpt>
      <trkpt lat="49.40466" lon="1.42119">
        <ele>152</ele>
        <time>2017-02-07T15:33:46Z</time>
      </trkpt>
      <trkpt lat="49.40465" lon="1.42129">
        <ele>154</ele>
        <time>2017-02-07T15:33:46Z</time>
      </trkpt>
      <trkpt lat="49.40464" lon="1.42137">
        <ele>154</ele>
        <time>2017-02-07T15:34:02Z</time>
      </trkpt>
      <trkpt lat="49.40468" lon="1.4214">
        <ele>154</ele>
        <time>2017-02-07T15:34:02Z</time>
      </trkpt>
      <trkpt lat="49.4047" lon="1.42144">
        <ele>154</ele>
        <time>2017-02-07T15:34:02Z</time>
      </trkpt>
      <trkpt lat="49.40464" lon="1.42159">
        <ele>154</ele>
        <time>2017-02-07T15:34:03Z</time>
      </trkpt>
      <trkpt lat="49.40463" lon="1.42162">
        <ele>154</ele>
        <time>2017-02-07T15:34:19Z</time>
      </trkpt>
      <trkpt lat="49.40462" lon="1.42169">
        <ele>154</ele>
        <time>2017-02-07T15:34:19Z</time>
      </trkpt>
      <trkpt lat="49.40464" lon="1.42181">
        <ele>154</ele>
        <time>2017-02-07T15:34:19Z</time>
      </trkpt>
      <trkpt lat="49.40461" lon="1.42191">
        <ele>154</ele>
        <time>2017-02-07T15:34:19Z</time>
      </trkpt>
      <trkpt lat="49.40461" lon="1.42195">
        <ele>154</ele>
        <time>2017-02-07T15:34:34Z</time>
      </trkpt>
      <trkpt lat="49.4046" lon="1.42202">
        <ele>154</ele>
        <time>2017-02-07T15:34:35Z</time>
      </trkpt>
      <trkpt lat="49.40461" lon="1.42208">
        <ele>154</ele>
        <time>2017-02-07T15:34:35Z</time>
      </trkpt>
      <trkpt lat="49.4046" lon="1.42216">
        <ele>156</ele>
        <time>2017-02-07T15:34:35Z</time>
      </trkpt>
      <trkpt lat="49.4046" lon="1.42219">
        <ele>156</ele>
        <time>2017-02-07T15:34:49Z</time>
      </trkpt>
      <trkpt lat="49.40459" lon="1.42227">
        <ele>156</ele>
        <time>2017-02-07T15:34:50Z</time>
      </trkpt>
      <trkpt lat="49.40457" lon="1.42236">
        <ele>154</ele>
        <time>2017-02-07T15:34:50Z</time>
      </trkpt>
      <trkpt lat="49.40459" lon="1.4224">
        <ele>156</ele>
        <time>2017-02-07T15:34:50Z</time>
      </trkpt>
      <trkpt lat="49.4046" lon="1.42248">
        <ele>156</ele>
        <time>2017-02-07T15:35:05Z</time>
      </trkpt>
      <trkpt lat="49.40457" lon="1.42259">
        <ele>154</ele>
        <time>2017-02-07T15:35:06Z</time>
      </trkpt>
      <trkpt lat="49.40457" lon="1.42267">
        <ele>154</ele>
        <time>2017-02-07T15:35:06Z</time>
      </trkpt>
      <trkpt lat="49.40457" lon="1.42273">
        <ele>154</ele>
        <time>2017-02-07T15:35:06Z</time>
      </trkpt>
      <trkpt lat="49.40456" lon="1.42283">
        <ele>154</ele>
        <time>2017-02-07T15:35:21Z</time>
      </trkpt>
      <trkpt lat="49.40455" lon="1.4229">
        <ele>154</ele>
        <time>2017-02-07T15:35:22Z</time>
      </trkpt>
      <trkpt lat="49.40459" lon="1.42294">
        <ele>158</ele>
        <time>2017-02-07T15:35:22Z</time>
      </trkpt>
      <trkpt lat="49.40459" lon="1.42299">
        <ele>158</ele>
        <time>2017-02-07T15:35:22Z</time>
      </trkpt>
      <trkpt lat="49.40457" lon="1.42305">
        <ele>157</ele>
        <time>2017-02-07T15:35:39Z</time>
      </trkpt>
      <trkpt lat="49.40456" lon="1.42312">
        <ele>157</ele>
        <time>2017-02-07T15:35:39Z</time>
      </trkpt>
      <trkpt lat="49.40457" lon="1.42315">
        <ele>157</ele>
        <time>2017-02-07T15:35:39Z</time>
      </trkpt>
      <trkpt lat="49.40455" lon="1.42326">
        <ele>157</ele>
        <time>2017-02-07T15:35:39Z</time>
      </trkpt>
      <trkpt lat="49.4045" lon="1.42337">
        <ele>157</ele>
        <time>2017-02-07T15:35:54Z</time>
      </trkpt>
      <trkpt lat="49.40451" lon="1.42348">
        <ele>157</ele>
        <time>2017-02-07T15:35:54Z</time>
      </trkpt>
      <trkpt lat="49.40454" lon="1.4235">
        <ele>157</ele>
        <time>2017-02-07T15:35:54Z</time>
      </trkpt>
      <trkpt lat="49.40455" lon="1.42355">
        <ele>157</ele>
        <time>2017-02-07T15:35:54Z</time>
      </trkpt>
      <trkpt lat="49.40455" lon="1.42362">
        <ele>157</ele>
        <time>2017-02-07T15:36:09Z</time>
      </trkpt>
      <trkpt lat="49.40453" lon="1.42367">
        <ele>157</ele>
        <time>2017-02-07T15:36:09Z</time>
      </trkpt>
      <trkpt lat="49.40454" lon="1.42375">
        <ele>157</ele>
        <time>2017-02-07T15:36:09Z</time>
      </trkpt>
      <trkpt lat="49.40452" lon="1.42381">
        <ele>156</ele>
        <time>2017-02-07T15:36:09Z</time>
      </trkpt>
      <trkpt lat="49.40456" lon="1.42425">
        <ele>156</ele>
        <time>2017-02-07T15:36:49Z</time>
      </trkpt>
      <trkpt lat="49.40454" lon="1.42429">
        <ele>156</ele>
        <time>2017-02-07T15:36:50Z</time>
      </trkpt>
      <trkpt lat="49.40452" lon="1.4243">
        <ele>156</ele>
        <time>2017-02-07T15:36:50Z</time>
      </trkpt>
      <trkpt lat="49.40454" lon="1.42441">
        <ele>156</ele>
        <time>2017-02-07T15:36:50Z</time>
      </trkpt>
      <trkpt lat="49.40457" lon="1.42447">
        <ele>156</ele>
        <time>2017-02-07T15:36:50Z</time>
      </trkpt>
      <trkpt lat="49.40453" lon="1.4245">
        <ele>156</ele>
        <time>2017-02-07T15:37:05Z</time>
      </trkpt>
      <trkpt lat="49.40454" lon="1.42457">
        <ele>156</ele>
        <time>2017-02-07T15:37:06Z</time>
      </trkpt>
      <trkpt lat="49.40456" lon="1.42461">
        <ele>158</ele>
        <time>2017-02-07T15:37:06Z</time>
      </trkpt>
      <trkpt lat="49.40456" lon="1.42467">
        <ele>158</ele>
        <time>2017-02-07T15:37:06Z</time>
      </trkpt>
      <trkpt lat="49.40456" lon="1.42474">
        <ele>158</ele>
        <time>2017-02-07T15:37:25Z</time>
      </trkpt>
      <trkpt lat="49.40456" lon="1.42479">
        <ele>158</ele>
        <time>2017-02-07T15:37:25Z</time>
      </trkpt>
      <trkpt lat="49.40454" lon="1.4248">
        <ele>158</ele>
        <time>2017-02-07T15:37:25Z</time>
      </trkpt>
      <trkpt lat="49.4045" lon="1.42483">
        <ele>158</ele>
        <time>2017-02-07T15:37:25Z</time>
      </trkpt>
      <trkpt lat="49.40449" lon="1.42487">
        <ele>158</ele>
        <time>2017-02-07T15:37:26Z</time>
      </trkpt>
      <trkpt lat="49.40448" lon="1.4249">
        <ele>158</ele>
        <time>2017-02-07T15:37:41Z</time>
      </trkpt>
      <trkpt lat="49.40448" lon="1.42492">
        <ele>158</ele>
        <time>2017-02-07T15:37:41Z</time>
      </trkpt>
      <trkpt lat="49.40447" lon="1.42503">
        <ele>158</ele>
        <time>2017-02-07T15:37:41Z</time>
      </trkpt>
      <trkpt lat="49.40448" lon="1.42517">
        <ele>158</ele>
        <time>2017-02-07T15:37:42Z</time>
      </trkpt>
      <trkpt lat="49.40449" lon="1.42527">
        <ele>158</ele>
        <time>2017-02-07T15:37:58Z</time>
      </trkpt>
      <trkpt lat="49.40444" lon="1.42546">
        <ele>161</ele>
        <time>2017-02-07T15:37:58Z</time>
      </trkpt>
      <trkpt lat="49.40447" lon="1.42549">
        <ele>161</ele>
        <time>2017-02-07T15:37:58Z</time>
      </trkpt>
      <trkpt lat="49.40446" lon="1.42553">
        <ele>161</ele>
        <time>2017-02-07T15:37:58Z</time>
      </trkpt>
      <trkpt lat="49.40447" lon="1.42562">
        <ele>161</ele>
        <time>2017-02-07T15:38:13Z</time>
      </trkpt>
      <trkpt lat="49.40443" lon="1.42569">
        <ele>161</ele>
        <time>2017-02-07T15:38:14Z</time>
      </trkpt>
      <trkpt lat="49.40443" lon="1.4258">
        <ele>161</ele>
        <time>2017-02-07T15:38:14Z</time>
      </trkpt>
      <trkpt lat="49.40443" lon="1.42589">
        <ele>161</ele>
        <time>2017-02-07T15:38:14Z</time>
      </trkpt>
      <trkpt lat="49.40444" lon="1.42593">
        <ele>161</ele>
        <time>2017-02-07T15:38:30Z</time>
      </trkpt>
      <trkpt lat="49.40445" lon="1.42599">
        <ele>161</ele>
        <time>2017-02-07T15:38:30Z</time>
      </trkpt>
      <trkpt lat="49.40444" lon="1.42603">
        <ele>161</ele>
        <time>2017-02-07T15:38:30Z</time>
      </trkpt>
      <trkpt lat="49.40443" lon="1.42616">
        <ele>161</ele>
        <time>2017-02-07T15:38:30Z</time>
      </trkpt>
      <trkpt lat="49.40445" lon="1.42621">
        <ele>161</ele>
        <time>2017-02-07T15:38:45Z</time>
      </trkpt>
      <trkpt lat="49.40441" lon="1.42635">
        <ele>164</ele>
        <time>2017-02-07T15:38:45Z</time>
      </trkpt>
      <trkpt lat="49.40439" lon="1.42641">
        <ele>164</ele>
        <time>2017-02-07T15:38:45Z</time>
      </trkpt>
      <trkpt lat="49.40438" lon="1.42652">
        <ele>164</ele>
        <time>2017-02-07T15:38:46Z</time>
      </trkpt>
      <trkpt lat="49.40434" lon="1.42662">
        <ele>164</ele>
        <time>2017-02-07T15:39:03Z</time>
      </trkpt>
      <trkpt lat="49.40434" lon="1.42662">
        <ele>164</ele>
        <time>2017-02-07T15:39:03Z</time>
      </trkpt>
      <trkpt lat="49.40433" lon="1.42669">
        <ele>164</ele>
        <time>2017-02-07T15:39:03Z</time>
      </trkpt>
      <trkpt lat="49.40429" lon="1.42679">
        <ele>164</ele>
        <time>2017-02-07T15:39:03Z</time>
      </trkpt>
      <trkpt lat="49.40427" lon="1.4268">
        <ele>164</ele>
        <time>2017-02-07T15:39:17Z</time>
      </trkpt>
      <trkpt lat="49.40426" lon="1.4268">
        <ele>164</ele>
        <time>2017-02-07T15:39:19Z</time>
      </trkpt>
      <trkpt lat="49.40422" lon="1.42689">
        <ele>164</ele>
        <time>2017-02-07T15:39:19Z</time>
      </trkpt>
      <trkpt lat="49.40416" lon="1.42692">
        <ele>164</ele>
        <time>2017-02-07T15:39:19Z</time>
      </trkpt>
      <trkpt lat="49.40412" lon="1.42699">
        <ele>164</ele>
        <time>2017-02-07T15:39:50Z</time>
      </trkpt>
      <trkpt lat="49.40411" lon="1.42701">
        <ele>164</ele>
        <time>2017-02-07T15:39:50Z</time>
      </trkpt>
      <trkpt lat="49.4041" lon="1.42701">
        <ele>164</ele>
        <time>2017-02-07T15:39:50Z</time>
      </trkpt>
      <trkpt lat="49.4041" lon="1.42702">
        <ele>164</ele>
        <time>2017-02-07T15:39:50Z</time>
      </trkpt>
      <trkpt lat="49.40406" lon="1.42706">
        <ele>164</ele>
        <time>2017-02-07T15:39:50Z</time>
      </trkpt>
      <trkpt lat="49.40394" lon="1.42714">
        <ele>166</ele>
        <time>2017-02-07T15:40:07Z</time>
      </trkpt>
      <trkpt lat="49.4039" lon="1.42719">
        <ele>166</ele>
        <time>2017-02-07T15:40:07Z</time>
      </trkpt>
      <trkpt lat="49.40385" lon="1.42724">
        <ele>166</ele>
        <time>2017-02-07T15:40:07Z</time>
      </trkpt>
      <trkpt lat="49.4038" lon="1.42734">
        <ele>166</ele>
        <time>2017-02-07T15:40:07Z</time>
      </trkpt>
      <trkpt lat="49.40371" lon="1.42746">
        <ele>163</ele>
        <time>2017-02-07T15:40:34Z</time>
      </trkpt>
      <trkpt lat="49.40368" lon="1.42749">
        <ele>163</ele>
        <time>2017-02-07T15:40:35Z</time>
      </trkpt>
      <trkpt lat="49.40362" lon="1.42758">
        <ele>163</ele>
        <time>2017-02-07T15:40:35Z</time>
      </trkpt>
      <trkpt lat="49.40359" lon="1.42761">
        <ele>163</ele>
        <time>2017-02-07T15:40:35Z</time>
      </trkpt>
      <trkpt lat="49.40356" lon="1.42764">
        <ele>163</ele>
        <time>2017-02-07T15:40:35Z</time>
      </trkpt>
      <trkpt lat="49.40352" lon="1.42777">
        <ele>163</ele>
        <time>2017-02-07T15:41:02Z</time>
      </trkpt>
      <trkpt lat="49.40349" lon="1.42783">
        <ele>163</ele>
        <time>2017-02-07T15:41:02Z</time>
      </trkpt>
      <trkpt lat="49.40348" lon="1.42782">
        <ele>163</ele>
        <time>2017-02-07T15:41:02Z</time>
      </trkpt>
      <trkpt lat="49.40346" lon="1.4279">
        <ele>163</ele>
        <time>2017-02-07T15:41:02Z</time>
      </trkpt>
      <trkpt lat="49.40346" lon="1.4279">
        <ele>163</ele>
        <time>2017-02-07T15:41:18Z</time>
      </trkpt>
      <trkpt lat="49.40346" lon="1.4279">
        <ele>163</ele>
        <time>2017-02-07T15:41:18Z</time>
      </trkpt>
      <trkpt lat="49.40343" lon="1.42801">
        <ele>164</ele>
        <time>2017-02-07T15:41:18Z</time>
      </trkpt>
      <trkpt lat="49.40344" lon="1.42804">
        <ele>164</ele>
        <time>2017-02-07T15:41:18Z</time>
      </trkpt>
      <trkpt lat="49.40342" lon="1.4283">
        <ele>164</ele>
        <time>2017-02-07T15:41:38Z</time>
      </trkpt>
      <trkpt lat="49.40338" lon="1.42846">
        <ele>164</ele>
        <time>2017-02-07T15:41:38Z</time>
      </trkpt>
      <trkpt lat="49.40334" lon="1.42863">
        <ele>164</ele>
        <time>2017-02-07T15:41:38Z</time>
      </trkpt>
      <trkpt lat="49.40331" lon="1.4287">
        <ele>164</ele>
        <time>2017-02-07T15:41:38Z</time>
      </trkpt>
      <trkpt lat="49.40331" lon="1.42879">
        <ele>162</ele>
        <time>2017-02-07T15:41:54Z</time>
      </trkpt>
      <trkpt lat="49.40329" lon="1.42882">
        <ele>162</ele>
        <time>2017-02-07T15:41:54Z</time>
      </trkpt>
      <trkpt lat="49.40322" lon="1.42888">
        <ele>162</ele>
        <time>2017-02-07T15:41:54Z</time>
      </trkpt>
      <trkpt lat="49.40322" lon="1.42894">
        <ele>162</ele>
        <time>2017-02-07T15:41:54Z</time>
      </trkpt>
      <trkpt lat="49.40321" lon="1.42898">
        <ele>162</ele>
        <time>2017-02-07T15:42:11Z</time>
      </trkpt>
      <trkpt lat="49.40319" lon="1.42905">
        <ele>162</ele>
        <time>2017-02-07T15:42:11Z</time>
      </trkpt>
      <trkpt lat="49.40317" lon="1.42912">
        <ele>162</ele>
        <time>2017-02-07T15:42:11Z</time>
      </trkpt>
      <trkpt lat="49.40316" lon="1.42922">
        <ele>162</ele>
        <time>2017-02-07T15:42:11Z</time>
      </trkpt>
      <trkpt lat="49.40317" lon="1.42928">
        <ele>162</ele>
        <time>2017-02-07T15:42:25Z</time>
      </trkpt>
      <trkpt lat="49.40319" lon="1.42935">
        <ele>162</ele>
        <time>2017-02-07T15:42:26Z</time>
      </trkpt>
      <trkpt lat="49.40321" lon="1.42935">
        <ele>162</ele>
        <time>2017-02-07T15:42:26Z</time>
      </trkpt>
      <trkpt lat="49.40323" lon="1.4294">
        <ele>162</ele>
        <time>2017-02-07T15:42:26Z</time>
      </trkpt>
      <trkpt lat="49.40325" lon="1.42946">
        <ele>162</ele>
        <time>2017-02-07T15:42:42Z</time>
      </trkpt>
      <trkpt lat="49.40326" lon="1.4295">
        <ele>162</ele>
        <time>2017-02-07T15:42:42Z</time>
      </trkpt>
      <trkpt lat="49.4033" lon="1.42955">
        <ele>162</ele>
        <time>2017-02-07T15:42:42Z</time>
      </trkpt>
      <trkpt lat="49.4033" lon="1.4296">
        <ele>158</ele>
        <time>2017-02-07T15:42:42Z</time>
      </trkpt>
      <trkpt lat="49.40332" lon="1.42967">
        <ele>158</ele>
        <time>2017-02-07T15:42:57Z</time>
      </trkpt>
      <trkpt lat="49.40335" lon="1.42971">
        <ele>158</ele>
        <time>2017-02-07T15:42:58Z</time>
      </trkpt>
      <trkpt lat="49.40337" lon="1.42977">
        <ele>158</ele>
        <time>2017-02-07T15:42:58Z</time>
      </trkpt>
      <trkpt lat="49.40342" lon="1.42976">
        <ele>158</ele>
        <time>2017-02-07T15:42:58Z</time>
      </trkpt>
      <trkpt lat="49.4034" lon="1.42981">
        <ele>158</ele>
        <time>2017-02-07T15:43:13Z</time>
      </trkpt>
      <trkpt lat="49.40344" lon="1.42983">
        <ele>158</ele>
        <time>2017-02-07T15:43:13Z</time>
      </trkpt>
      <trkpt lat="49.40347" lon="1.42985">
        <ele>158</ele>
        <time>2017-02-07T15:43:13Z</time>
      </trkpt>
      <trkpt lat="49.4035" lon="1.42983">
        <ele>158</ele>
        <time>2017-02-07T15:43:13Z</time>
      </trkpt>
      <trkpt lat="49.4035" lon="1.42987">
        <ele>158</ele>
        <time>2017-02-07T15:43:29Z</time>
      </trkpt>
      <trkpt lat="49.40352" lon="1.42988">
        <ele>158</ele>
        <time>2017-02-07T15:43:29Z</time>
      </trkpt>
      <trkpt lat="49.40356" lon="1.4299">
        <ele>158</ele>
        <time>2017-02-07T15:43:29Z</time>
      </trkpt>
      <trkpt lat="49.40361" lon="1.42993">
        <ele>158</ele>
        <time>2017-02-07T15:43:30Z</time>
      </trkpt>
      <trkpt lat="49.40364" lon="1.42997">
        <ele>158</ele>
        <time>2017-02-07T15:43:55Z</time>
      </trkpt>
      <trkpt lat="49.40364" lon="1.42997">
        <ele>158</ele>
        <time>2017-02-07T15:43:55Z</time>
      </trkpt>
      <trkpt lat="49.40364" lon="1.42997">
        <ele>158</ele>
        <time>2017-02-07T15:43:55Z</time>
      </trkpt>
      <trkpt lat="49.40364" lon="1.42997">
        <ele>158</ele>
        <time>2017-02-07T15:43:55Z</time>
      </trkpt>
      <trkpt lat="49.40371" lon="1.43002">
        <ele>158</ele>
        <time>2017-02-07T15:43:55Z</time>
      </trkpt>
      <trkpt lat="49.40378" lon="1.43007">
        <ele>159</ele>
        <time>2017-02-07T15:44:09Z</time>
      </trkpt>
      <trkpt lat="49.40385" lon="1.43011">
        <ele>159</ele>
        <time>2017-02-07T15:44:09Z</time>
      </trkpt>
      <trkpt lat="49.40388" lon="1.43013">
        <ele>159</ele>
        <time>2017-02-07T15:44:09Z</time>
      </trkpt>
      <trkpt lat="49.40396" lon="1.43015">
        <ele>159</ele>
        <time>2017-02-07T15:44:10Z</time>
      </trkpt>
      <trkpt lat="49.40406" lon="1.43022">
        <ele>159</ele>
        <time>2017-02-07T15:44:28Z</time>
      </trkpt>
      <trkpt lat="49.40411" lon="1.43028">
        <ele>159</ele>
        <time>2017-02-07T15:44:28Z</time>
      </trkpt>
      <trkpt lat="49.40415" lon="1.43027">
        <ele>159</ele>
        <time>2017-02-07T15:44:28Z</time>
      </trkpt>
      <trkpt lat="49.4042" lon="1.43028">
        <ele>159</ele>
        <time>2017-02-07T15:44:28Z</time>
      </trkpt>
      <trkpt lat="49.40439" lon="1.4304">
        <ele>159</ele>
        <time>2017-02-07T15:44:50Z</time>
      </trkpt>
      <trkpt lat="49.40444" lon="1.43039">
        <ele>159</ele>
        <time>2017-02-07T15:44:50Z</time>
      </trkpt>
      <trkpt lat="49.40449" lon="1.43042">
        <ele>157</ele>
        <time>2017-02-07T15:44:50Z</time>
      </trkpt>
      <trkpt lat="49.40449" lon="1.43052">
        <ele>157</ele>
        <time>2017-02-07T15:44:50Z</time>
      </trkpt>
      <trkpt lat="49.4045" lon="1.43064">
        <ele>157</ele>
        <time>2017-02-07T15:45:06Z</time>
      </trkpt>
      <trkpt lat="49.40451" lon="1.4307">
        <ele>157</ele>
        <time>2017-02-07T15:45:08Z</time>
      </trkpt>
      <trkpt lat="49.40459" lon="1.43065">
        <ele>160</ele>
        <time>2017-02-07T15:45:08Z</time>
      </trkpt>
      <trkpt lat="49.40462" lon="1.43066">
        <ele>160</ele>
        <time>2017-02-07T15:45:08Z</time>
      </trkpt>
      <trkpt lat="49.40461" lon="1.43075">
        <ele>160</ele>
        <time>2017-02-07T15:45:22Z</time>
      </trkpt>
      <trkpt lat="49.40463" lon="1.43085">
        <ele>160</ele>
        <time>2017-02-07T15:45:22Z</time>
      </trkpt>
      <trkpt lat="49.40466" lon="1.43082">
        <ele>160</ele>
        <time>2017-02-07T15:45:22Z</time>
      </trkpt>
      <trkpt lat="49.40461" lon="1.43094">
        <ele>160</ele>
        <time>2017-02-07T15:45:22Z</time>
      </trkpt>
      <trkpt lat="49.40452" lon="1.43095">
        <ele>157</ele>
        <time>2017-02-07T15:45:40Z</time>
      </trkpt>
      <trkpt lat="49.40446" lon="1.43094">
        <ele>157</ele>
        <time>2017-02-07T15:45:40Z</time>
      </trkpt>
      <trkpt lat="49.40443" lon="1.43092">
        <ele>157</ele>
        <time>2017-02-07T15:45:40Z</time>
      </trkpt>
      <trkpt lat="49.40439" lon="1.43097">
        <ele>157</ele>
        <time>2017-02-07T15:45:40Z</time>
      </trkpt>
      <trkpt lat="49.40438" lon="1.43098">
        <ele>157</ele>
        <time>2017-02-07T15:46:17Z</time>
      </trkpt>
      <trkpt lat="49.40436" lon="1.43105">
        <ele>157</ele>
        <time>2017-02-07T15:46:17Z</time>
      </trkpt>
      <trkpt lat="49.40436" lon="1.43106">
        <ele>157</ele>
        <time>2017-02-07T15:46:18Z</time>
      </trkpt>
      <trkpt lat="49.40435" lon="1.43111">
        <ele>157</ele>
        <time>2017-02-07T15:46:18Z</time>
      </trkpt>
      <trkpt lat="49.40433" lon="1.43112">
        <ele>157</ele>
        <time>2017-02-07T15:46:18Z</time>
      </trkpt>
      <trkpt lat="49.40432" lon="1.43118">
        <ele>157</ele>
        <time>2017-02-07T15:46:38Z</time>
      </trkpt>
      <trkpt lat="49.40431" lon="1.43118">
        <ele>157</ele>
        <time>2017-02-07T15:46:38Z</time>
      </trkpt>
      <trkpt lat="49.40429" lon="1.43121">
        <ele>157</ele>
        <time>2017-02-07T15:46:38Z</time>
      </trkpt>
      <trkpt lat="49.40428" lon="1.43128">
        <ele>160</ele>
        <time>2017-02-07T15:46:38Z</time>
      </trkpt>
      <trkpt lat="49.40427" lon="1.43133">
        <ele>160</ele>
        <time>2017-02-07T15:46:38Z</time>
      </trkpt>
      <trkpt lat="49.40428" lon="1.43139">
        <ele>160</ele>
        <time>2017-02-07T15:47:06Z</time>
      </trkpt>
      <trkpt lat="49.40426" lon="1.43142">
        <ele>160</ele>
        <time>2017-02-07T15:47:06Z</time>
      </trkpt>
      <trkpt lat="49.40425" lon="1.43148">
        <ele>160</ele>
        <time>2017-02-07T15:47:08Z</time>
      </trkpt>
      <trkpt lat="49.40425" lon="1.43157">
        <ele>160</ele>
        <time>2017-02-07T15:47:08Z</time>
      </trkpt>
      <trkpt lat="49.40424" lon="1.43168">
        <ele>160</ele>
        <time>2017-02-07T15:47:08Z</time>
      </trkpt>
      <trkpt lat="49.40422" lon="1.43173">
        <ele>160</ele>
        <time>2017-02-07T15:47:22Z</time>
      </trkpt>
      <trkpt lat="49.4042" lon="1.43176">
        <ele>160</ele>
        <time>2017-02-07T15:47:22Z</time>
      </trkpt>
      <trkpt lat="49.40415" lon="1.43179">
        <ele>160</ele>
        <time>2017-02-07T15:47:22Z</time>
      </trkpt>
      <trkpt lat="49.40415" lon="1.43183">
        <ele>160</ele>
        <time>2017-02-07T15:47:22Z</time>
      </trkpt>
      <trkpt lat="49.40409" lon="1.43193">
        <ele>160</ele>
        <time>2017-02-07T15:47:47Z</time>
      </trkpt>
      <trkpt lat="49.40406" lon="1.43198">
        <ele>160</ele>
        <time>2017-02-07T15:47:47Z</time>
      </trkpt>
      <trkpt lat="49.40402" lon="1.43213">
        <ele>164</ele>
        <time>2017-02-07T15:47:47Z</time>
      </trkpt>
      <trkpt lat="49.40396" lon="1.43215">
        <ele>164</ele>
        <time>2017-02-07T15:47:47Z</time>
      </trkpt>
      <trkpt lat="49.4039" lon="1.43226">
        <ele>164</ele>
        <time>2017-02-07T15:48:35Z</time>
      </trkpt>
      <trkpt lat="49.40388" lon="1.43228">
        <ele>164</ele>
        <time>2017-02-07T15:48:36Z</time>
      </trkpt>
      <trkpt lat="49.40386" lon="1.43231">
        <ele>164</ele>
        <time>2017-02-07T15:48:36Z</time>
      </trkpt>
      <trkpt lat="49.40377" lon="1.43248">
        <ele>164</ele>
        <time>2017-02-07T15:48:36Z</time>
      </trkpt>
      <trkpt lat="49.40373" lon="1.43256">
        <ele>164</ele>
        <time>2017-02-07T15:48:36Z</time>
      </trkpt>
      <trkpt lat="49.40372" lon="1.43262">
        <ele>164</ele>
        <time>2017-02-07T15:48:49Z</time>
      </trkpt>
      <trkpt lat="49.40367" lon="1.43272">
        <ele>164</ele>
        <time>2017-02-07T15:48:50Z</time>
      </trkpt>
      <trkpt lat="49.40364" lon="1.43282">
        <ele>164</ele>
        <time>2017-02-07T15:48:50Z</time>
      </trkpt>
      <trkpt lat="49.4036" lon="1.43291">
        <ele>164</ele>
        <time>2017-02-07T15:48:50Z</time>
      </trkpt>
      <trkpt lat="49.40355" lon="1.43293">
        <ele>167</ele>
        <time>2017-02-07T15:49:05Z</time>
      </trkpt>
      <trkpt lat="49.40351" lon="1.43295">
        <ele>167</ele>
        <time>2017-02-07T15:49:06Z</time>
      </trkpt>
      <trkpt lat="49.40351" lon="1.43296">
        <ele>167</ele>
        <time>2017-02-07T15:49:06Z</time>
      </trkpt>
      <trkpt lat="49.40347" lon="1.43302">
        <ele>167</ele>
        <time>2017-02-07T15:49:06Z</time>
      </trkpt>
      <trkpt lat="49.40343" lon="1.43311">
        <ele>167</ele>
        <time>2017-02-07T15:49:22Z</time>
      </trkpt>
      <trkpt lat="49.4034" lon="1.43316">
        <ele>167</ele>
        <time>2017-02-07T15:49:22Z</time>
      </trkpt>
      <trkpt lat="49.40337" lon="1.43318">
        <ele>167</ele>
        <time>2017-02-07T15:49:22Z</time>
      </trkpt>
      <trkpt lat="49.40331" lon="1.43326">
        <ele>167</ele>
        <time>2017-02-07T15:49:22Z</time>
      </trkpt>
      <trkpt lat="49.40325" lon="1.43333">
        <ele>167</ele>
        <time>2017-02-07T15:49:38Z</time>
      </trkpt>
      <trkpt lat="49.40322" lon="1.43334">
        <ele>167</ele>
        <time>2017-02-07T15:49:38Z</time>
      </trkpt>
      <trkpt lat="49.40318" lon="1.43335">
        <ele>167</ele>
        <time>2017-02-07T15:49:38Z</time>
      </trkpt>
      <trkpt lat="49.40315" lon="1.43337">
        <ele>167</ele>
        <time>2017-02-07T15:49:38Z</time>
      </trkpt>
      <trkpt lat="49.40312" lon="1.43338">
        <ele>167</ele>
        <time>2017-02-07T15:49:53Z</time>
      </trkpt>
      <trkpt lat="49.4031" lon="1.43341">
        <ele>167</ele>
        <time>2017-02-07T15:49:53Z</time>
      </trkpt>
      <trkpt lat="49.40308" lon="1.43345">
        <ele>167</ele>
        <time>2017-02-07T15:49:53Z</time>
      </trkpt>
      <trkpt lat="49.40304" lon="1.43347">
        <ele>167</ele>
        <time>2017-02-07T15:49:53Z</time>
      </trkpt>
      <trkpt lat="49.40302" lon="1.43352">
        <ele>167</ele>
        <time>2017-02-07T15:50:13Z</time>
      </trkpt>
      <trkpt lat="49.40303" lon="1.4335">
        <ele>167</ele>
        <time>2017-02-07T15:50:14Z</time>
      </trkpt>
      <trkpt lat="49.40301" lon="1.43354">
        <ele>167</ele>
        <time>2017-02-07T15:50:14Z</time>
      </trkpt>
      <trkpt lat="49.40298" lon="1.43356">
        <ele>167</ele>
        <time>2017-02-07T15:50:14Z</time>
      </trkpt>
      <trkpt lat="49.40294" lon="1.4336">
        <ele>167</ele>
        <time>2017-02-07T15:50:14Z</time>
      </trkpt>
      <trkpt lat="49.40293" lon="1.43363">
        <ele>167</ele>
        <time>2017-02-07T15:50:34Z</time>
      </trkpt>
      <trkpt lat="49.40292" lon="1.43364">
        <ele>165</ele>
        <time>2017-02-07T15:50:34Z</time>
      </trkpt>
      <trkpt lat="49.4029" lon="1.43365">
        <ele>165</ele>
        <time>2017-02-07T15:50:34Z</time>
      </trkpt>
      <trkpt lat="49.40286" lon="1.43366">
        <ele>165</ele>
        <time>2017-02-07T15:50:35Z</time>
      </trkpt>
      <trkpt lat="49.40282" lon="1.43373">
        <ele>165</ele>
        <time>2017-02-07T15:50:35Z</time>
      </trkpt>
      <trkpt lat="49.40273" lon="1.43383">
        <ele>168</ele>
        <time>2017-02-07T15:50:51Z</time>
      </trkpt>
      <trkpt lat="49.40267" lon="1.43386">
        <ele>168</ele>
        <time>2017-02-07T15:50:51Z</time>
      </trkpt>
      <trkpt lat="49.40265" lon="1.43387">
        <ele>168</ele>
        <time>2017-02-07T15:50:51Z</time>
      </trkpt>
      <trkpt lat="49.40263" lon="1.43387">
        <ele>168</ele>
        <time>2017-02-07T15:50:51Z</time>
      </trkpt>
      <trkpt lat="49.40259" lon="1.43391">
        <ele>168</ele>
        <time>2017-02-07T15:51:06Z</time>
      </trkpt>
      <trkpt lat="49.40256" lon="1.43394">
        <ele>168</ele>
        <time>2017-02-07T15:51:06Z</time>
      </trkpt>
      <trkpt lat="49.40252" lon="1.43396">
        <ele>168</ele>
        <time>2017-02-07T15:51:06Z</time>
      </trkpt>
      <trkpt lat="49.40246" lon="1.43402">
        <ele>168</ele>
        <time>2017-02-07T15:51:07Z</time>
      </trkpt>
      <trkpt lat="49.40243" lon="1.43405">
        <ele>168</ele>
        <time>2017-02-07T15:51:21Z</time>
      </trkpt>
      <trkpt lat="49.40239" lon="1.43405">
        <ele>168</ele>
        <time>2017-02-07T15:51:21Z</time>
      </trkpt>
      <trkpt lat="49.40235" lon="1.4341">
        <ele>168</ele>
        <time>2017-02-07T15:51:21Z</time>
      </trkpt>
      <trkpt lat="49.40233" lon="1.4341">
        <ele>168</ele>
        <time>2017-02-07T15:51:21Z</time>
      </trkpt>
      <trkpt lat="49.40229" lon="1.43413">
        <ele>168</ele>
        <time>2017-02-07T15:54:49Z</time>
      </trkpt>
      <trkpt lat="49.40226" lon="1.43411">
        <ele>168</ele>
        <time>2017-02-07T15:54:50Z</time>
      </trkpt>
      <trkpt lat="49.40219" lon="1.43405">
        <ele>168</ele>
        <time>2017-02-07T15:54:50Z</time>
      </trkpt>
      <trkpt lat="49.40214" lon="1.434">
        <ele>168</ele>
        <time>2017-02-07T15:54:50Z</time>
      </trkpt>
      <trkpt lat="49.40211" lon="1.43396">
        <ele>168</ele>
        <time>2017-02-07T15:54:50Z</time>
      </trkpt>
      <trkpt lat="49.40207" lon="1.43393">
        <ele>163</ele>
        <time>2017-02-07T15:55:05Z</time>
      </trkpt>
      <trkpt lat="49.40201" lon="1.43387">
        <ele>163</ele>
        <time>2017-02-07T15:55:06Z</time>
      </trkpt>
      <trkpt lat="49.40197" lon="1.4338">
        <ele>163</ele>
        <time>2017-02-07T15:55:06Z</time>
      </trkpt>
      <trkpt lat="49.40193" lon="1.43376">
        <ele>163</ele>
        <time>2017-02-07T15:55:06Z</time>
      </trkpt>
      <trkpt lat="49.40185" lon="1.43368">
        <ele>163</ele>
        <time>2017-02-07T15:55:29Z</time>
      </trkpt>
      <trkpt lat="49.40185" lon="1.43366">
        <ele>163</ele>
        <time>2017-02-07T15:55:29Z</time>
      </trkpt>
      <trkpt lat="49.40185" lon="1.43365">
        <ele>163</ele>
        <time>2017-02-07T15:55:29Z</time>
      </trkpt>
      <trkpt lat="49.40184" lon="1.43365">
        <ele>163</ele>
        <time>2017-02-07T15:55:30Z</time>
      </trkpt>
      <trkpt lat="49.40179" lon="1.43361">
        <ele>163</ele>
        <time>2017-02-07T15:55:30Z</time>
      </trkpt>
      <trkpt lat="49.40174" lon="1.43357">
        <ele>163</ele>
        <time>2017-02-07T15:55:46Z</time>
      </trkpt>
      <trkpt lat="49.40173" lon="1.43356">
        <ele>163</ele>
        <time>2017-02-07T15:55:47Z</time>
      </trkpt>
      <trkpt lat="49.40169" lon="1.43349">
        <ele>163</ele>
        <time>2017-02-07T15:55:47Z</time>
      </trkpt>
      <trkpt lat="49.40165" lon="1.43344">
        <ele>163</ele>
        <time>2017-02-07T15:55:47Z</time>
      </trkpt>
      <trkpt lat="49.4016" lon="1.43339">
        <ele>163</ele>
        <time>2017-02-07T15:56:03Z</time>
      </trkpt>
      <trkpt lat="49.40157" lon="1.43337">
        <ele>163</ele>
        <time>2017-02-07T15:56:03Z</time>
      </trkpt>
      <trkpt lat="49.40152" lon="1.43333">
        <ele>163</ele>
        <time>2017-02-07T15:56:03Z</time>
      </trkpt>
      <trkpt lat="49.40148" lon="1.43331">
        <ele>163</ele>
        <time>2017-02-07T15:56:03Z</time>
      </trkpt>
      <trkpt lat="49.40139" lon="1.43324">
        <ele>163</ele>
        <time>2017-02-07T15:56:18Z</time>
      </trkpt>
      <trkpt lat="49.40134" lon="1.43321">
        <ele>163</ele>
        <time>2017-02-07T15:56:18Z</time>
      </trkpt>
      <trkpt lat="49.40129" lon="1.43318">
        <ele>163</ele>
        <time>2017-02-07T15:56:18Z</time>
      </trkpt>
      <trkpt lat="49.40124" lon="1.43316">
        <ele>160</ele>
        <time>2017-02-07T15:56:18Z</time>
      </trkpt>
      <trkpt lat="49.40119" lon="1.43313">
        <ele>160</ele>
        <time>2017-02-07T15:56:35Z</time>
      </trkpt>
      <trkpt lat="49.40113" lon="1.43311">
        <ele>160</ele>
        <time>2017-02-07T15:56:35Z</time>
      </trkpt>
      <trkpt lat="49.40108" lon="1.43309">
        <ele>160</ele>
        <time>2017-02-07T15:56:35Z</time>
      </trkpt>
      <trkpt lat="49.40105" lon="1.43307">
        <ele>160</ele>
        <time>2017-02-07T15:56:35Z</time>
      </trkpt>
      <trkpt lat="49.40095" lon="1.43304">
        <ele>160</ele>
        <time>2017-02-07T15:56:59Z</time>
      </trkpt>
      <trkpt lat="49.4009" lon="1.43302">
        <ele>160</ele>
        <time>2017-02-07T15:56:59Z</time>
      </trkpt>
      <trkpt lat="49.40084" lon="1.43297">
        <ele>160</ele>
        <time>2017-02-07T15:56:59Z</time>
      </trkpt>
      <trkpt lat="49.4008" lon="1.43296">
        <ele>160</ele>
        <time>2017-02-07T15:56:59Z</time>
      </trkpt>
      <trkpt lat="49.40072" lon="1.43292">
        <ele>160</ele>
        <time>2017-02-07T15:57:14Z</time>
      </trkpt>
      <trkpt lat="49.40067" lon="1.43288">
        <ele>160</ele>
        <time>2017-02-07T15:57:14Z</time>
      </trkpt>
      <trkpt lat="49.40062" lon="1.43286">
        <ele>160</ele>
        <time>2017-02-07T15:57:14Z</time>
      </trkpt>
      <trkpt lat="49.40059" lon="1.43285">
        <ele>160</ele>
        <time>2017-02-07T15:57:14Z</time>
      </trkpt>
      <trkpt lat="49.40045" lon="1.4328">
        <ele>160</ele>
        <time>2017-02-07T15:57:47Z</time>
      </trkpt>
      <trkpt lat="49.40037" lon="1.43277">
        <ele>153</ele>
        <time>2017-02-07T15:57:47Z</time>
      </trkpt>
      <trkpt lat="49.40029" lon="1.43277">
        <ele>153</ele>
        <time>2017-02-07T15:57:47Z</time>
      </trkpt>
      <trkpt lat="49.40024" lon="1.43276">
        <ele>153</ele>
        <time>2017-02-07T15:57:47Z</time>
      </trkpt>
      <trkpt lat="49.40021" lon="1.43275">
        <ele>153</ele>
        <time>2017-02-07T15:57:47Z</time>
      </trkpt>
      <trkpt lat="49.40001" lon="1.43265">
        <ele>153</ele>
        <time>2017-02-07T15:58:15Z</time>
      </trkpt>
      <trkpt lat="49.39996" lon="1.43267">
        <ele>153</ele>
        <time>2017-02-07T15:58:16Z</time>
      </trkpt>
      <trkpt lat="49.39988" lon="1.43264">
        <ele>153</ele>
        <time>2017-02-07T15:58:16Z</time>
      </trkpt>
      <trkpt lat="49.39986" lon="1.43268">
        <ele>153</ele>
        <time>2017-02-07T15:58:16Z</time>
      </trkpt>
      <trkpt lat="49.39982" lon="1.43269">
        <ele>153</ele>
        <time>2017-02-07T15:58:29Z</time>
      </trkpt>
      <trkpt lat="49.39975" lon="1.43268">
        <ele>153</ele>
        <time>2017-02-07T15:58:29Z</time>
      </trkpt>
      <trkpt lat="49.39971" lon="1.43267">
        <ele>153</ele>
        <time>2017-02-07T15:58:30Z</time>
      </trkpt>
      <trkpt lat="49.39968" lon="1.43265">
        <ele>153</ele>
        <time>2017-02-07T15:58:30Z</time>
      </trkpt>
      <trkpt lat="49.39966" lon="1.43265">
        <ele>153</ele>
        <time>2017-02-07T15:58:46Z</time>
      </trkpt>
      <trkpt lat="49.39959" lon="1.43266">
        <ele>153</ele>
        <time>2017-02-07T15:58:47Z</time>
      </trkpt>
      <trkpt lat="49.39957" lon="1.43268">
        <ele>146</ele>
        <time>2017-02-07T15:58:47Z</time>
      </trkpt>
      <trkpt lat="49.39952" lon="1.43267">
        <ele>146</ele>
        <time>2017-02-07T15:58:47Z</time>
      </trkpt>
      <trkpt lat="49.39946" lon="1.43267">
        <ele>146</ele>
        <time>2017-02-07T15:59:01Z</time>
      </trkpt>
      <trkpt lat="49.39939" lon="1.43272">
        <ele>146</ele>
        <time>2017-02-07T15:59:01Z</time>
      </trkpt>
      <trkpt lat="49.39933" lon="1.43269">
        <ele>146</ele>
        <time>2017-02-07T15:59:01Z</time>
      </trkpt>
      <trkpt lat="49.39926" lon="1.43273">
        <ele>146</ele>
        <time>2017-02-07T15:59:01Z</time>
      </trkpt>
      <trkpt lat="49.39928" lon="1.43274">
        <ele>146</ele>
        <time>2017-02-07T15:59:41Z</time>
      </trkpt>
      <trkpt lat="49.39922" lon="1.43273">
        <ele>146</ele>
        <time>2017-02-07T15:59:41Z</time>
      </trkpt>
      <trkpt lat="49.39916" lon="1.4327">
        <ele>146</ele>
        <time>2017-02-07T15:59:41Z</time>
      </trkpt>
      <trkpt lat="49.3991" lon="1.43267">
        <ele>146</ele>
        <time>2017-02-07T15:59:42Z</time>
      </trkpt>
      <trkpt lat="49.39901" lon="1.43266">
        <ele>146</ele>
        <time>2017-02-07T15:59:42Z</time>
      </trkpt>
      <trkpt lat="49.39896" lon="1.43265">
        <ele>146</ele>
        <time>2017-02-07T15:59:59Z</time>
      </trkpt>
      <trkpt lat="49.39888" lon="1.43264">
        <ele>146</ele>
        <time>2017-02-07T15:59:59Z</time>
      </trkpt>
      <trkpt lat="49.39882" lon="1.43262">
        <ele>146</ele>
        <time>2017-02-07T15:59:59Z</time>
      </trkpt>
      <trkpt lat="49.39878" lon="1.43259">
        <ele>146</ele>
        <time>2017-02-07T16:00:00Z</time>
      </trkpt>
      <trkpt lat="49.39874" lon="1.4326">
        <ele>144</ele>
        <time>2017-02-07T16:00:13Z</time>
      </trkpt>
      <trkpt lat="49.39866" lon="1.43255">
        <ele>144</ele>
        <time>2017-02-07T16:00:13Z</time>
      </trkpt>
      <trkpt lat="49.39864" lon="1.43255">
        <ele>144</ele>
        <time>2017-02-07T16:00:13Z</time>
      </trkpt>
      <trkpt lat="49.39864" lon="1.43252">
        <ele>144</ele>
        <time>2017-02-07T16:00:13Z</time>
      </trkpt>
      <trkpt lat="49.39853" lon="1.4325">
        <ele>144</ele>
        <time>2017-02-07T16:00:29Z</time>
      </trkpt>
      <trkpt lat="49.3985" lon="1.43248">
        <ele>144</ele>
        <time>2017-02-07T16:00:29Z</time>
      </trkpt>
      <trkpt lat="49.39845" lon="1.43248">
        <ele>144</ele>
        <time>2017-02-07T16:00:29Z</time>
      </trkpt>
      <trkpt lat="49.39842" lon="1.43243">
        <ele>144</ele>
        <time>2017-02-07T16:00:29Z</time>
      </trkpt>
      <trkpt lat="49.39838" lon="1.43236">
        <ele>144</ele>
        <time>2017-02-07T16:00:46Z</time>
      </trkpt>
      <trkpt lat="49.39834" lon="1.43236">
        <ele>144</ele>
        <time>2017-02-07T16:00:46Z</time>
      </trkpt>
      <trkpt lat="49.39826" lon="1.43235">
        <ele>144</ele>
        <time>2017-02-07T16:00:47Z</time>
      </trkpt>
      <trkpt lat="49.3982" lon="1.43231">
        <ele>144</ele>
        <time>2017-02-07T16:00:47Z</time>
      </trkpt>
      <trkpt lat="49.39816" lon="1.4323">
        <ele>144</ele>
        <time>2017-02-07T16:01:01Z</time>
      </trkpt>
      <trkpt lat="49.39811" lon="1.43225">
        <ele>144</ele>
        <time>2017-02-07T16:01:02Z</time>
      </trkpt>
      <trkpt lat="49.39808" lon="1.43222">
        <ele>144</ele>
        <time>2017-02-07T16:01:02Z</time>
      </trkpt>
      <trkpt lat="49.398" lon="1.43217">
        <ele>144</ele>
        <time>2017-02-07T16:01:03Z</time>
      </trkpt>
      <trkpt lat="49.39799" lon="1.43211">
        <ele>144</ele>
        <time>2017-02-07T16:01:18Z</time>
      </trkpt>
      <trkpt lat="49.39795" lon="1.43207">
        <ele>144</ele>
        <time>2017-02-07T16:01:18Z</time>
      </trkpt>
      <trkpt lat="49.39792" lon="1.43204">
        <ele>144</ele>
        <time>2017-02-07T16:01:18Z</time>
      </trkpt>
      <trkpt lat="49.39788" lon="1.43199">
        <ele>141</ele>
        <time>2017-02-07T16:01:18Z</time>
      </trkpt>
      <trkpt lat="49.39784" lon="1.43196">
        <ele>141</ele>
        <time>2017-02-07T16:01:34Z</time>
      </trkpt>
      <trkpt lat="49.39777" lon="1.43192">
        <ele>141</ele>
        <time>2017-02-07T16:01:34Z</time>
      </trkpt>
      <trkpt lat="49.39775" lon="1.43189">
        <ele>141</ele>
        <time>2017-02-07T16:01:34Z</time>
      </trkpt>
      <trkpt lat="49.39773" lon="1.43188">
        <ele>141</ele>
        <time>2017-02-07T16:01:34Z</time>
      </trkpt>
      <trkpt lat="49.39773" lon="1.43186">
        <ele>141</ele>
        <time>2017-02-07T16:01:51Z</time>
      </trkpt>
      <trkpt lat="49.39768" lon="1.43181">
        <ele>141</ele>
        <time>2017-02-07T16:01:51Z</time>
      </trkpt>
      <trkpt lat="49.39765" lon="1.43178">
        <ele>141</ele>
        <time>2017-02-07T16:01:51Z</time>
      </trkpt>
      <trkpt lat="49.39757" lon="1.43173">
        <ele>141</ele>
        <time>2017-02-07T16:01:51Z</time>
      </trkpt>
      <trkpt lat="49.39756" lon="1.43168">
        <ele>141</ele>
        <time>2017-02-07T16:02:07Z</time>
      </trkpt>
      <trkpt lat="49.39749" lon="1.43167">
        <ele>141</ele>
        <time>2017-02-07T16:02:07Z</time>
      </trkpt>
      <trkpt lat="49.39745" lon="1.43168">
        <ele>141</ele>
        <time>2017-02-07T16:02:07Z</time>
      </trkpt>
      <trkpt lat="49.3974" lon="1.43168">
        <ele>141</ele>
        <time>2017-02-07T16:02:07Z</time>
      </trkpt>
      <trkpt lat="49.39718" lon="1.43157">
        <ele>141</ele>
        <time>2017-02-07T16:02:37Z</time>
      </trkpt>
      <trkpt lat="49.39714" lon="1.43155">
        <ele>141</ele>
        <time>2017-02-07T16:02:37Z</time>
      </trkpt>
      <trkpt lat="49.39709" lon="1.43158">
        <ele>141</ele>
        <time>2017-02-07T16:02:37Z</time>
      </trkpt>
      <trkpt lat="49.39707" lon="1.43161">
        <ele>139</ele>
        <time>2017-02-07T16:02:38Z</time>
      </trkpt>
      <trkpt lat="49.397" lon="1.43159">
        <ele>139</ele>
        <time>2017-02-07T16:02:38Z</time>
      </trkpt>
      <trkpt lat="49.39695" lon="1.43156">
        <ele>139</ele>
        <time>2017-02-07T16:02:54Z</time>
      </trkpt>
      <trkpt lat="49.39689" lon="1.43154">
        <ele>139</ele>
        <time>2017-02-07T16:02:54Z</time>
      </trkpt>
      <trkpt lat="49.39681" lon="1.43155">
        <ele>139</ele>
        <time>2017-02-07T16:02:54Z</time>
      </trkpt>
      <trkpt lat="49.39672" lon="1.43154">
        <ele>139</ele>
        <time>2017-02-07T16:02:54Z</time>
      </trkpt>
      <trkpt lat="49.3967" lon="1.43152">
        <ele>139</ele>
        <time>2017-02-07T16:03:10Z</time>
      </trkpt>
      <trkpt lat="49.39663" lon="1.4315">
        <ele>139</ele>
        <time>2017-02-07T16:03:11Z</time>
      </trkpt>
      <trkpt lat="49.39662" lon="1.43149">
        <ele>139</ele>
        <time>2017-02-07T16:03:11Z</time>
      </trkpt>
      <trkpt lat="49.39657" lon="1.43146">
        <ele>139</ele>
        <time>2017-02-07T16:03:11Z</time>
      </trkpt>
      <trkpt lat="49.39656" lon="1.43146">
        <ele>139</ele>
        <time>2017-02-07T16:03:26Z</time>
      </trkpt>
      <trkpt lat="49.39649" lon="1.43142">
        <ele>139</ele>
        <time>2017-02-07T16:03:26Z</time>
      </trkpt>
      <trkpt lat="49.39643" lon="1.4314">
        <ele>139</ele>
        <time>2017-02-07T16:03:26Z</time>
      </trkpt>
      <trkpt lat="49.39641" lon="1.43139">
        <ele>139</ele>
        <time>2017-02-07T16:03:26Z</time>
      </trkpt>
      <trkpt lat="49.39638" lon="1.43142">
        <ele>139</ele>
        <time>2017-02-07T16:03:42Z</time>
      </trkpt>
      <trkpt lat="49.3963" lon="1.43142">
        <ele>139</ele>
        <time>2017-02-07T16:03:42Z</time>
      </trkpt>
      <trkpt lat="49.39629" lon="1.43142">
        <ele>139</ele>
        <time>2017-02-07T16:03:42Z</time>
      </trkpt>
      <trkpt lat="49.3962" lon="1.43142">
        <ele>140</ele>
        <time>2017-02-07T16:03:42Z</time>
      </trkpt>
      <trkpt lat="49.3962" lon="1.43141">
        <ele>140</ele>
        <time>2017-02-07T16:03:58Z</time>
      </trkpt>
      <trkpt lat="49.39614" lon="1.4314">
        <ele>140</ele>
        <time>2017-02-07T16:03:59Z</time>
      </trkpt>
      <trkpt lat="49.39609" lon="1.4314">
        <ele>140</ele>
        <time>2017-02-07T16:03:59Z</time>
      </trkpt>
      <trkpt lat="49.39603" lon="1.43139">
        <ele>140</ele>
        <time>2017-02-07T16:03:59Z</time>
      </trkpt>
      <trkpt lat="49.396" lon="1.43141">
        <ele>140</ele>
        <time>2017-02-07T16:04:15Z</time>
      </trkpt>
      <trkpt lat="49.39597" lon="1.43139">
        <ele>140</ele>
        <time>2017-02-07T16:04:15Z</time>
      </trkpt>
      <trkpt lat="49.39593" lon="1.43138">
        <ele>140</ele>
        <time>2017-02-07T16:04:15Z</time>
      </trkpt>
      <trkpt lat="49.39585" lon="1.43135">
        <ele>140</ele>
        <time>2017-02-07T16:04:15Z</time>
      </trkpt>
      <trkpt lat="49.39583" lon="1.43134">
        <ele>140</ele>
        <time>2017-02-07T16:04:30Z</time>
      </trkpt>
      <trkpt lat="49.39573" lon="1.43132">
        <ele>140</ele>
        <time>2017-02-07T16:04:30Z</time>
      </trkpt>
      <trkpt lat="49.39568" lon="1.43132">
        <ele>140</ele>
        <time>2017-02-07T16:04:30Z</time>
      </trkpt>
      <trkpt lat="49.39563" lon="1.43131">
        <ele>140</ele>
        <time>2017-02-07T16:04:30Z</time>
      </trkpt>
      <trkpt lat="49.39558" lon="1.4313">
        <ele>140</ele>
        <time>2017-02-07T16:04:48Z</time>
      </trkpt>
      <trkpt lat="49.39554" lon="1.43129">
        <ele>140</ele>
        <time>2017-02-07T16:04:48Z</time>
      </trkpt>
      <trkpt lat="49.3955" lon="1.43129">
        <ele>140</ele>
        <time>2017-02-07T16:04:48Z</time>
      </trkpt>
      <trkpt lat="49.39545" lon="1.4313">
        <ele>140</ele>
        <time>2017-02-07T16:04:48Z</time>
      </trkpt>
      <trkpt lat="49.3953" lon="1.4313">
        <ele>135</ele>
        <time>2017-02-07T16:05:10Z</time>
      </trkpt>
      <trkpt lat="49.39524" lon="1.43129">
        <ele>135</ele>
        <time>2017-02-07T16:05:10Z</time>
      </trkpt>
      <trkpt lat="49.39521" lon="1.43129">
        <ele>135</ele>
        <time>2017-02-07T16:05:10Z</time>
      </trkpt>
      <trkpt lat="49.39517" lon="1.43127">
        <ele>135</ele>
        <time>2017-02-07T16:05:10Z</time>
      </trkpt>
      <trkpt lat="49.39512" lon="1.43127">
        <ele>135</ele>
        <time>2017-02-07T16:05:26Z</time>
      </trkpt>
      <trkpt lat="49.39505" lon="1.43126">
        <ele>135</ele>
        <time>2017-02-07T16:05:26Z</time>
      </trkpt>
      <trkpt lat="49.39501" lon="1.43123">
        <ele>138</ele>
        <time>2017-02-07T16:05:26Z</time>
      </trkpt>
      <trkpt lat="49.39496" lon="1.43121">
        <ele>138</ele>
        <time>2017-02-07T16:05:26Z</time>
      </trkpt>
      <trkpt lat="49.3949" lon="1.43117">
        <ele>138</ele>
        <time>2017-02-07T16:05:42Z</time>
      </trkpt>
      <trkpt lat="49.39486" lon="1.43115">
        <ele>138</ele>
        <time>2017-02-07T16:05:42Z</time>
      </trkpt>
      <trkpt lat="49.39479" lon="1.43112">
        <ele>138</ele>
        <time>2017-02-07T16:05:42Z</time>
      </trkpt>
      <trkpt lat="49.39477" lon="1.4311">
        <ele>138</ele>
        <time>2017-02-07T16:05:42Z</time>
      </trkpt>
      <trkpt lat="49.39473" lon="1.43109">
        <ele>138</ele>
        <time>2017-02-07T16:05:58Z</time>
      </trkpt>
      <trkpt lat="49.39468" lon="1.43108">
        <ele>138</ele>
        <time>2017-02-07T16:05:58Z</time>
      </trkpt>
      <trkpt lat="49.39464" lon="1.43107">
        <ele>138</ele>
        <time>2017-02-07T16:05:58Z</time>
      </trkpt>
      <trkpt lat="49.3946" lon="1.43108">
        <ele>138</ele>
        <time>2017-02-07T16:05:58Z</time>
      </trkpt>
      <trkpt lat="49.39455" lon="1.43109">
        <ele>134</ele>
        <time>2017-02-07T16:06:13Z</time>
      </trkpt>
      <trkpt lat="49.39455" lon="1.4311">
        <ele>134</ele>
        <time>2017-02-07T16:06:13Z</time>
      </trkpt>
      <trkpt lat="49.39452" lon="1.43109">
        <ele>134</ele>
        <time>2017-02-07T16:06:13Z</time>
      </trkpt>
      <trkpt lat="49.39445" lon="1.43108">
        <ele>134</ele>
        <time>2017-02-07T16:06:13Z</time>
      </trkpt>
      <trkpt lat="49.3944" lon="1.43109">
        <ele>134</ele>
        <time>2017-02-07T16:06:29Z</time>
      </trkpt>
      <trkpt lat="49.39436" lon="1.43109">
        <ele>134</ele>
        <time>2017-02-07T16:06:29Z</time>
      </trkpt>
      <trkpt lat="49.3943" lon="1.43106">
        <ele>134</ele>
        <time>2017-02-07T16:06:29Z</time>
      </trkpt>
      <trkpt lat="49.39426" lon="1.43107">
        <ele>134</ele>
        <time>2017-02-07T16:06:30Z</time>
      </trkpt>
      <trkpt lat="49.39422" lon="1.43107">
        <ele>134</ele>
        <time>2017-02-07T16:06:46Z</time>
      </trkpt>
      <trkpt lat="49.39418" lon="1.43108">
        <ele>134</ele>
        <time>2017-02-07T16:06:46Z</time>
      </trkpt>
      <trkpt lat="49.39414" lon="1.43107">
        <ele>134</ele>
        <time>2017-02-07T16:06:46Z</time>
      </trkpt>
      <trkpt lat="49.3941" lon="1.43105">
        <ele>134</ele>
        <time>2017-02-07T16:06:46Z</time>
      </trkpt>
      <trkpt lat="49.39408" lon="1.43098">
        <ele>134</ele>
        <time>2017-02-07T16:07:01Z</time>
      </trkpt>
      <trkpt lat="49.39405" lon="1.43092">
        <ele>134</ele>
        <time>2017-02-07T16:07:02Z</time>
      </trkpt>
      <trkpt lat="49.39402" lon="1.43087">
        <ele>134</ele>
        <time>2017-02-07T16:07:02Z</time>
      </trkpt>
      <trkpt lat="49.39397" lon="1.43082">
        <ele>134</ele>
        <time>2017-02-07T16:07:02Z</time>
      </trkpt>
      <trkpt lat="49.39395" lon="1.43079">
        <ele>134</ele>
        <time>2017-02-07T16:07:58Z</time>
      </trkpt>
      <trkpt lat="49.39396" lon="1.4308">
        <ele>134</ele>
        <time>2017-02-07T16:07:58Z</time>
      </trkpt>
      <trkpt lat="49.39398" lon="1.4308">
        <ele>134</ele>
        <time>2017-02-07T16:07:58Z</time>
      </trkpt>
      <trkpt lat="49.39398" lon="1.43087">
        <ele>134</ele>
        <time>2017-02-07T16:07:58Z</time>
      </trkpt>
      <trkpt lat="49.39401" lon="1.43092">
        <ele>134</ele>
        <time>2017-02-07T16:07:58Z</time>
      </trkpt>
      <trkpt lat="49.39401" lon="1.43106">
        <ele>134</ele>
        <time>2017-02-07T16:13:37Z</time>
      </trkpt>
      <trkpt lat="49.39397" lon="1.43107">
        <ele>134</ele>
        <time>2017-02-07T16:13:38Z</time>
      </trkpt>
      <trkpt lat="49.39393" lon="1.43106">
        <ele>134</ele>
        <time>2017-02-07T16:13:38Z</time>
      </trkpt>
      <trkpt lat="49.39392" lon="1.43108">
        <ele>134</ele>
        <time>2017-02-07T16:13:38Z</time>
      </trkpt>
      <trkpt lat="49.39393" lon="1.4311">
        <ele>134</ele>
        <time>2017-02-07T16:13:38Z</time>
      </trkpt>
      <trkpt lat="49.39395" lon="1.43111">
        <ele>134</ele>
        <time>2017-02-07T16:14:01Z</time>
      </trkpt>
      <trkpt lat="49.39395" lon="1.4311">
        <ele>134</ele>
        <time>2017-02-07T16:14:02Z</time>
      </trkpt>
      <trkpt lat="49.39395" lon="1.4311">
        <ele>134</ele>
        <time>2017-02-07T16:14:02Z</time>
      </trkpt>
      <trkpt lat="49.39389" lon="1.43111">
        <ele>134</ele>
        <time>2017-02-07T16:14:02Z</time>
      </trkpt>
      <trkpt lat="49.39385" lon="1.43114">
        <ele>134</ele>
        <time>2017-02-07T16:14:02Z</time>
      </trkpt>
      <trkpt lat="49.39381" lon="1.43115">
        <ele>134</ele>
        <time>2017-02-07T16:14:18Z</time>
      </trkpt>
      <trkpt lat="49.39378" lon="1.43116">
        <ele>134</ele>
        <time>2017-02-07T16:14:18Z</time>
      </trkpt>
      <trkpt lat="49.39374" lon="1.43118">
        <ele>130</ele>
        <time>2017-02-07T16:14:18Z</time>
      </trkpt>
      <trkpt lat="49.39372" lon="1.4312">
        <ele>130</ele>
        <time>2017-02-07T16:14:18Z</time>
      </trkpt>
      <trkpt lat="49.39362" lon="1.4313">
        <ele>129</ele>
        <time>2017-02-07T16:14:37Z</time>
      </trkpt>
      <trkpt lat="49.39361" lon="1.4313">
        <ele>129</ele>
        <time>2017-02-07T16:14:38Z</time>
      </trkpt>
      <trkpt lat="49.39352" lon="1.4313">
        <ele>129</ele>
        <time>2017-02-07T16:14:38Z</time>
      </trkpt>
      <trkpt lat="49.39346" lon="1.43128">
        <ele>129</ele>
        <time>2017-02-07T16:14:38Z</time>
      </trkpt>
      <trkpt lat="49.39339" lon="1.43128">
        <ele>129</ele>
        <time>2017-02-07T16:14:53Z</time>
      </trkpt>
      <trkpt lat="49.39336" lon="1.43131">
        <ele>129</ele>
        <time>2017-02-07T16:14:53Z</time>
      </trkpt>
      <trkpt lat="49.3933" lon="1.43132">
        <ele>129</ele>
        <time>2017-02-07T16:14:54Z</time>
      </trkpt>
      <trkpt lat="49.39326" lon="1.43134">
        <ele>129</ele>
        <time>2017-02-07T16:14:54Z</time>
      </trkpt>
      <trkpt lat="49.39322" lon="1.43135">
        <ele>129</ele>
        <time>2017-02-07T16:15:09Z</time>
      </trkpt>
      <trkpt lat="49.39318" lon="1.43135">
        <ele>129</ele>
        <time>2017-02-07T16:15:09Z</time>
      </trkpt>
      <trkpt lat="49.39314" lon="1.43135">
        <ele>129</ele>
        <time>2017-02-07T16:15:10Z</time>
      </trkpt>
      <trkpt lat="49.39312" lon="1.43135">
        <ele>129</ele>
        <time>2017-02-07T16:15:10Z</time>
      </trkpt>
      <trkpt lat="49.39303" lon="1.43131">
        <ele>129</ele>
        <time>2017-02-07T16:15:25Z</time>
      </trkpt>
      <trkpt lat="49.39298" lon="1.43129">
        <ele>129</ele>
        <time>2017-02-07T16:15:25Z</time>
      </trkpt>
      <trkpt lat="49.39293" lon="1.43125">
        <ele>130</ele>
        <time>2017-02-07T16:15:25Z</time>
      </trkpt>
      <trkpt lat="49.39289" lon="1.4312">
        <ele>126</ele>
        <time>2017-02-07T16:15:26Z</time>
      </trkpt>
      <trkpt lat="49.39284" lon="1.43116">
        <ele>126</ele>
        <time>2017-02-07T16:15:41Z</time>
      </trkpt>
      <trkpt lat="49.3928" lon="1.43111">
        <ele>126</ele>
        <time>2017-02-07T16:15:42Z</time>
      </trkpt>
      <trkpt lat="49.39276" lon="1.43107">
        <ele>126</ele>
        <time>2017-02-07T16:15:42Z</time>
      </trkpt>
      <trkpt lat="49.39272" lon="1.43102">
        <ele>126</ele>
        <time>2017-02-07T16:15:42Z</time>
      </trkpt>
      <trkpt lat="49.39268" lon="1.43096">
        <ele>126</ele>
        <time>2017-02-07T16:15:58Z</time>
      </trkpt>
      <trkpt lat="49.39264" lon="1.43089">
        <ele>126</ele>
        <time>2017-02-07T16:15:58Z</time>
      </trkpt>
      <trkpt lat="49.39261" lon="1.43083">
        <ele>126</ele>
        <time>2017-02-07T16:15:58Z</time>
      </trkpt>
      <trkpt lat="49.39259" lon="1.43079">
        <ele>126</ele>
        <time>2017-02-07T16:15:58Z</time>
      </trkpt>
      <trkpt lat="49.39254" lon="1.43072">
        <ele>126</ele>
        <time>2017-02-07T16:16:13Z</time>
      </trkpt>
      <trkpt lat="49.3925" lon="1.43065">
        <ele>126</ele>
        <time>2017-02-07T16:16:13Z</time>
      </trkpt>
      <trkpt lat="49.39247" lon="1.4306">
        <ele>126</ele>
        <time>2017-02-07T16:16:13Z</time>
      </trkpt>
      <trkpt lat="49.39247" lon="1.43059">
        <ele>126</ele>
        <time>2017-02-07T16:16:13Z</time>
      </trkpt>
      <trkpt lat="49.39249" lon="1.43057">
        <ele>126</ele>
        <time>2017-02-07T16:16:53Z</time>
      </trkpt>
      <trkpt lat="49.39249" lon="1.43057">
        <ele>126</ele>
        <time>2017-02-07T16:16:53Z</time>
      </trkpt>
      <trkpt lat="49.39249" lon="1.43055">
        <ele>126</ele>
        <time>2017-02-07T16:16:54Z</time>
      </trkpt>
      <trkpt lat="49.39246" lon="1.43051">
        <ele>126</ele>
        <time>2017-02-07T16:16:54Z</time>
      </trkpt>
      <trkpt lat="49.39241" lon="1.43043">
        <ele>126</ele>
        <time>2017-02-07T16:16:54Z</time>
      </trkpt>
      <trkpt lat="49.39238" lon="1.43037">
        <ele>125</ele>
        <time>2017-02-07T16:17:09Z</time>
      </trkpt>
      <trkpt lat="49.39234" lon="1.4303">
        <ele>125</ele>
        <time>2017-02-07T16:17:10Z</time>
      </trkpt>
      <trkpt lat="49.39231" lon="1.43024">
        <ele>125</ele>
        <time>2017-02-07T16:17:10Z</time>
      </trkpt>
      <trkpt lat="49.39228" lon="1.43018">
        <ele>125</ele>
        <time>2017-02-07T16:17:10Z</time>
      </trkpt>
      <trkpt lat="49.39225" lon="1.43011">
        <ele>125</ele>
        <time>2017-02-07T16:17:26Z</time>
      </trkpt>
      <trkpt lat="49.39221" lon="1.43004">
        <ele>125</ele>
        <time>2017-02-07T16:17:26Z</time>
      </trkpt>
      <trkpt lat="49.39217" lon="1.42996">
        <ele>125</ele>
        <time>2017-02-07T16:17:26Z</time>
      </trkpt>
      <trkpt lat="49.39214" lon="1.42988">
        <ele>125</ele>
        <time>2017-02-07T16:17:26Z</time>
      </trkpt>
      <trkpt lat="49.39212" lon="1.42982">
        <ele>125</ele>
        <time>2017-02-07T16:17:43Z</time>
      </trkpt>
      <trkpt lat="49.39209" lon="1.42975">
        <ele>125</ele>
        <time>2017-02-07T16:17:43Z</time>
      </trkpt>
      <trkpt lat="49.39205" lon="1.42967">
        <ele>122</ele>
        <time>2017-02-07T16:17:43Z</time>
      </trkpt>
      <trkpt lat="49.39201" lon="1.42961">
        <ele>122</ele>
        <time>2017-02-07T16:17:43Z</time>
      </trkpt>
      <trkpt lat="49.39198" lon="1.42953">
        <ele>122</ele>
        <time>2017-02-07T16:17:59Z</time>
      </trkpt>
      <trkpt lat="49.39196" lon="1.42949">
        <ele>122</ele>
        <time>2017-02-07T16:17:59Z</time>
      </trkpt>
      <trkpt lat="49.39192" lon="1.42939">
        <ele>122</ele>
        <time>2017-02-07T16:17:59Z</time>
      </trkpt>
      <trkpt lat="49.39188" lon="1.42932">
        <ele>122</ele>
        <time>2017-02-07T16:17:59Z</time>
      </trkpt>
      <trkpt lat="49.39185" lon="1.42925">
        <ele>122</ele>
        <time>2017-02-07T16:18:15Z</time>
      </trkpt>
      <trkpt lat="49.39181" lon="1.42916">
        <ele>122</ele>
        <time>2017-02-07T16:18:15Z</time>
      </trkpt>
      <trkpt lat="49.39178" lon="1.42911">
        <ele>122</ele>
        <time>2017-02-07T16:18:15Z</time>
      </trkpt>
      <trkpt lat="49.39174" lon="1.42904">
        <ele>122</ele>
        <time>2017-02-07T16:18:15Z</time>
      </trkpt>
      <trkpt lat="49.3917" lon="1.42898">
        <ele>122</ele>
        <time>2017-02-07T16:18:31Z</time>
      </trkpt>
      <trkpt lat="49.39166" lon="1.42891">
        <ele>122</ele>
        <time>2017-02-07T16:18:31Z</time>
      </trkpt>
      <trkpt lat="49.39164" lon="1.42888">
        <ele>122</ele>
        <time>2017-02-07T16:18:31Z</time>
      </trkpt>
      <trkpt lat="49.39158" lon="1.42881">
        <ele>122</ele>
        <time>2017-02-07T16:18:31Z</time>
      </trkpt>
      <trkpt lat="49.39148" lon="1.42869">
        <ele>123</ele>
        <time>2017-02-07T16:18:50Z</time>
      </trkpt>
      <trkpt lat="49.39144" lon="1.42864">
        <ele>123</ele>
        <time>2017-02-07T16:18:50Z</time>
      </trkpt>
      <trkpt lat="49.3914" lon="1.42858">
        <ele>123</ele>
        <time>2017-02-07T16:18:50Z</time>
      </trkpt>
      <trkpt lat="49.39136" lon="1.42854">
        <ele>123</ele>
        <time>2017-02-07T16:18:50Z</time>
      </trkpt>
      <trkpt lat="49.39128" lon="1.42846">
        <ele>123</ele>
        <time>2017-02-07T16:19:25Z</time>
      </trkpt>
      <trkpt lat="49.39126" lon="1.42845">
        <ele>123</ele>
        <time>2017-02-07T16:19:25Z</time>
      </trkpt>
      <trkpt lat="49.39124" lon="1.42843">
        <ele>128</ele>
        <time>2017-02-07T16:19:25Z</time>
      </trkpt>
      <trkpt lat="49.39122" lon="1.42837">
        <ele>128</ele>
        <time>2017-02-07T16:19:25Z</time>
      </trkpt>
      <trkpt lat="49.39118" lon="1.4283">
        <ele>128</ele>
        <time>2017-02-07T16:19:26Z</time>
      </trkpt>
      <trkpt lat="49.39116" lon="1.42823">
        <ele>128</ele>
        <time>2017-02-07T16:19:42Z</time>
      </trkpt>
      <trkpt lat="49.39114" lon="1.42816">
        <ele>128</ele>
        <time>2017-02-07T16:19:42Z</time>
      </trkpt>
      <trkpt lat="49.39112" lon="1.42811">
        <ele>128</ele>
        <time>2017-02-07T16:19:42Z</time>
      </trkpt>
      <trkpt lat="49.3911" lon="1.42802">
        <ele>128</ele>
        <time>2017-02-07T16:19:42Z</time>
      </trkpt>
      <trkpt lat="49.39111" lon="1.42797">
        <ele>128</ele>
        <time>2017-02-07T16:19:58Z</time>
      </trkpt>
      <trkpt lat="49.39112" lon="1.42791">
        <ele>131</ele>
        <time>2017-02-07T16:19:58Z</time>
      </trkpt>
      <trkpt lat="49.39112" lon="1.42788">
        <ele>131</ele>
        <time>2017-02-07T16:19:58Z</time>
      </trkpt>
      <trkpt lat="49.39111" lon="1.42782">
        <ele>131</ele>
        <time>2017-02-07T16:19:58Z</time>
      </trkpt>
      <trkpt lat="49.39113" lon="1.42776">
        <ele>131</ele>
        <time>2017-02-07T16:20:15Z</time>
      </trkpt>
      <trkpt lat="49.39114" lon="1.42768">
        <ele>131</ele>
        <time>2017-02-07T16:20:15Z</time>
      </trkpt>
      <trkpt lat="49.39113" lon="1.42765">
        <ele>131</ele>
        <time>2017-02-07T16:20:15Z</time>
      </trkpt>
      <trkpt lat="49.39113" lon="1.42757">
        <ele>131</ele>
        <time>2017-02-07T16:20:15Z</time>
      </trkpt>
      <trkpt lat="49.39112" lon="1.42748">
        <ele>131</ele>
        <time>2017-02-07T16:20:30Z</time>
      </trkpt>
      <trkpt lat="49.39111" lon="1.42738">
        <ele>131</ele>
        <time>2017-02-07T16:20:30Z</time>
      </trkpt>
      <trkpt lat="49.39109" lon="1.42735">
        <ele>131</ele>
        <time>2017-02-07T16:20:30Z</time>
      </trkpt>
      <trkpt lat="49.39108" lon="1.42725">
        <ele>131</ele>
        <time>2017-02-07T16:20:30Z</time>
      </trkpt>
      <trkpt lat="49.39109" lon="1.42724">
        <ele>131</ele>
        <time>2017-02-07T16:20:51Z</time>
      </trkpt>
      <trkpt lat="49.39109" lon="1.42723">
        <ele>131</ele>
        <time>2017-02-07T16:20:51Z</time>
      </trkpt>
      <trkpt lat="49.39108" lon="1.42718">
        <ele>131</ele>
        <time>2017-02-07T16:20:51Z</time>
      </trkpt>
      <trkpt lat="49.39107" lon="1.42712">
        <ele>131</ele>
        <time>2017-02-07T16:20:51Z</time>
      </trkpt>
      <trkpt lat="49.39105" lon="1.42705">
        <ele>129</ele>
        <time>2017-02-07T16:20:51Z</time>
      </trkpt>
      <trkpt lat="49.39102" lon="1.427">
        <ele>129</ele>
        <time>2017-02-07T16:21:06Z</time>
      </trkpt>
      <trkpt lat="49.39099" lon="1.42694">
        <ele>129</ele>
        <time>2017-02-07T16:21:06Z</time>
      </trkpt>
      <trkpt lat="49.39096" lon="1.42688">
        <ele>129</ele>
        <time>2017-02-07T16:21:06Z</time>
      </trkpt>
      <trkpt lat="49.39095" lon="1.42683">
        <ele>129</ele>
        <time>2017-02-07T16:21:06Z</time>
      </trkpt>
      <trkpt lat="49.39092" lon="1.42679">
        <ele>129</ele>
        <time>2017-02-07T16:21:23Z</time>
      </trkpt>
      <trkpt lat="49.39088" lon="1.42674">
        <ele>129</ele>
        <time>2017-02-07T16:21:23Z</time>
      </trkpt>
      <trkpt lat="49.39086" lon="1.42671">
        <ele>129</ele>
        <time>2017-02-07T16:21:23Z</time>
      </trkpt>
      <trkpt lat="49.39082" lon="1.42664">
        <ele>129</ele>
        <time>2017-02-07T16:21:23Z</time>
      </trkpt>
      <trkpt lat="49.3908" lon="1.42657">
        <ele>129</ele>
        <time>2017-02-07T16:21:39Z</time>
      </trkpt>
      <trkpt lat="49.39079" lon="1.42652">
        <ele>129</ele>
        <time>2017-02-07T16:21:39Z</time>
      </trkpt>
      <trkpt lat="49.39077" lon="1.42649">
        <ele>129</ele>
        <time>2017-02-07T16:21:39Z</time>
      </trkpt>
      <trkpt lat="49.39071" lon="1.42639">
        <ele>129</ele>
        <time>2017-02-07T16:21:39Z</time>
      </trkpt>
      <trkpt lat="49.39069" lon="1.42633">
        <ele>129</ele>
        <time>2017-02-07T16:21:54Z</time>
      </trkpt>
      <trkpt lat="49.39066" lon="1.42628">
        <ele>129</ele>
        <time>2017-02-07T16:21:54Z</time>
      </trkpt>
      <trkpt lat="49.39065" lon="1.42625">
        <ele>128</ele>
        <time>2017-02-07T16:21:54Z</time>
      </trkpt>
      <trkpt lat="49.39062" lon="1.42615">
        <ele>128</ele>
        <time>2017-02-07T16:21:54Z</time>
      </trkpt>
      <trkpt lat="49.39062" lon="1.42607">
        <ele>128</ele>
        <time>2017-02-07T16:22:09Z</time>
      </trkpt>
      <trkpt lat="49.39063" lon="1.42604">
        <ele>128</ele>
        <time>2017-02-07T16:22:09Z</time>
      </trkpt>
      <trkpt lat="49.39062" lon="1.42596">
        <ele>128</ele>
        <time>2017-02-07T16:22:09Z</time>
      </trkpt>
      <trkpt lat="49.39059" lon="1.4259">
        <ele>128</ele>
        <time>2017-02-07T16:22:09Z</time>
      </trkpt>
      <trkpt lat="49.39058" lon="1.42588">
        <ele>128</ele>
        <time>2017-02-07T16:22:27Z</time>
      </trkpt>
      <trkpt lat="49.39055" lon="1.4258">
        <ele>128</ele>
        <time>2017-02-07T16:22:27Z</time>
      </trkpt>
      <trkpt lat="49.39052" lon="1.42574">
        <ele>128</ele>
        <time>2017-02-07T16:22:27Z</time>
      </trkpt>
      <trkpt lat="49.3905" lon="1.42567">
        <ele>128</ele>
        <time>2017-02-07T16:22:27Z</time>
      </trkpt>
      <trkpt lat="49.39047" lon="1.42551">
        <ele>128</ele>
        <time>2017-02-07T16:22:46Z</time>
      </trkpt>
      <trkpt lat="49.39045" lon="1.42543">
        <ele>128</ele>
        <time>2017-02-07T16:22:46Z</time>
      </trkpt>
      <trkpt lat="49.39042" lon="1.42538">
        <ele>126</ele>
        <time>2017-02-07T16:22:46Z</time>
      </trkpt>
      <trkpt lat="49.39038" lon="1.4253">
        <ele>123</ele>
        <time>2017-02-07T16:22:46Z</time>
      </trkpt>
      <trkpt lat="49.39035" lon="1.42523">
        <ele>123</ele>
        <time>2017-02-07T16:23:05Z</time>
      </trkpt>
      <trkpt lat="49.39032" lon="1.4252">
        <ele>123</ele>
        <time>2017-02-07T16:23:06Z</time>
      </trkpt>
      <trkpt lat="49.39029" lon="1.42514">
        <ele>123</ele>
        <time>2017-02-07T16:23:06Z</time>
      </trkpt>
      <trkpt lat="49.39024" lon="1.42511">
        <ele>123</ele>
        <time>2017-02-07T16:23:06Z</time>
      </trkpt>
      <trkpt lat="49.39019" lon="1.42506">
        <ele>123</ele>
        <time>2017-02-07T16:23:23Z</time>
      </trkpt>
      <trkpt lat="49.39017" lon="1.42504">
        <ele>123</ele>
        <time>2017-02-07T16:23:23Z</time>
      </trkpt>
      <trkpt lat="49.39012" lon="1.42496">
        <ele>123</ele>
        <time>2017-02-07T16:23:23Z</time>
      </trkpt>
      <trkpt lat="49.3901" lon="1.42491">
        <ele>123</ele>
        <time>2017-02-07T16:23:23Z</time>
      </trkpt>
      <trkpt lat="49.39008" lon="1.42486">
        <ele>123</ele>
        <time>2017-02-07T16:23:38Z</time>
      </trkpt>
      <trkpt lat="49.39007" lon="1.42479">
        <ele>123</ele>
        <time>2017-02-07T16:23:38Z</time>
      </trkpt>
      <trkpt lat="49.39006" lon="1.42475">
        <ele>123</ele>
        <time>2017-02-07T16:23:38Z</time>
      </trkpt>
      <trkpt lat="49.39004" lon="1.42467">
        <ele>123</ele>
        <time>2017-02-07T16:23:38Z</time>
      </trkpt>
      <trkpt lat="49.39002" lon="1.42461">
        <ele>123</ele>
        <time>2017-02-07T16:23:55Z</time>
      </trkpt>
      <trkpt lat="49.38998" lon="1.42453">
        <ele>122</ele>
        <time>2017-02-07T16:23:55Z</time>
      </trkpt>
      <trkpt lat="49.38995" lon="1.42446">
        <ele>122</ele>
        <time>2017-02-07T16:23:55Z</time>
      </trkpt>
      <trkpt lat="49.38992" lon="1.42441">
        <ele>122</ele>
        <time>2017-02-07T16:23:55Z</time>
      </trkpt>
      <trkpt lat="49.38986" lon="1.4243">
        <ele>122</ele>
        <time>2017-02-07T16:24:15Z</time>
      </trkpt>
      <trkpt lat="49.38983" lon="1.42425">
        <ele>122</ele>
        <time>2017-02-07T16:24:15Z</time>
      </trkpt>
      <trkpt lat="49.38979" lon="1.42419">
        <ele>122</ele>
        <time>2017-02-07T16:24:15Z</time>
      </trkpt>
      <trkpt lat="49.38976" lon="1.42414">
        <ele>122</ele>
        <time>2017-02-07T16:24:15Z</time>
      </trkpt>
      <trkpt lat="49.38974" lon="1.42411">
        <ele>122</ele>
        <time>2017-02-07T16:24:29Z</time>
      </trkpt>
      <trkpt lat="49.38972" lon="1.42405">
        <ele>122</ele>
        <time>2017-02-07T16:24:29Z</time>
      </trkpt>
      <trkpt lat="49.38969" lon="1.42398">
        <ele>122</ele>
        <time>2017-02-07T16:24:29Z</time>
      </trkpt>
      <trkpt lat="49.38967" lon="1.42395">
        <ele>122</ele>
        <time>2017-02-07T16:24:30Z</time>
      </trkpt>
      <trkpt lat="49.38964" lon="1.4239">
        <ele>122</ele>
        <time>2017-02-07T16:24:45Z</time>
      </trkpt>
      <trkpt lat="49.38962" lon="1.42385">
        <ele>122</ele>
        <time>2017-02-07T16:24:46Z</time>
      </trkpt>
      <trkpt lat="49.38958" lon="1.42379">
        <ele>122</ele>
        <time>2017-02-07T16:24:46Z</time>
      </trkpt>
      <trkpt lat="49.38956" lon="1.42376">
        <ele>124</ele>
        <time>2017-02-07T16:24:46Z</time>
      </trkpt>
      <trkpt lat="49.38952" lon="1.42369">
        <ele>123</ele>
        <time>2017-02-07T16:25:02Z</time>
      </trkpt>
      <trkpt lat="49.38949" lon="1.42365">
        <ele>123</ele>
        <time>2017-02-07T16:25:02Z</time>
      </trkpt>
      <trkpt lat="49.38945" lon="1.42358">
        <ele>123</ele>
        <time>2017-02-07T16:25:02Z</time>
      </trkpt>
      <trkpt lat="49.38943" lon="1.42354">
        <ele>123</ele>
        <time>2017-02-07T16:25:02Z</time>
      </trkpt>
      <trkpt lat="49.3894" lon="1.42344">
        <ele>123</ele>
        <time>2017-02-07T16:25:18Z</time>
      </trkpt>
      <trkpt lat="49.38938" lon="1.42339">
        <ele>123</ele>
        <time>2017-02-07T16:25:18Z</time>
      </trkpt>
      <trkpt lat="49.38936" lon="1.42334">
        <ele>123</ele>
        <time>2017-02-07T16:25:18Z</time>
      </trkpt>
      <trkpt lat="49.38933" lon="1.42328">
        <ele>123</ele>
        <time>2017-02-07T16:25:18Z</time>
      </trkpt>
      <trkpt lat="49.3893" lon="1.42325">
        <ele>123</ele>
        <time>2017-02-07T16:25:34Z</time>
      </trkpt>
      <trkpt lat="49.38928" lon="1.42321">
        <ele>123</ele>
        <time>2017-02-07T16:25:34Z</time>
      </trkpt>
      <trkpt lat="49.38926" lon="1.42319">
        <ele>123</ele>
        <time>2017-02-07T16:25:34Z</time>
      </trkpt>
      <trkpt lat="49.38922" lon="1.42314">
        <ele>123</ele>
        <time>2017-02-07T16:25:34Z</time>
      </trkpt>
      <trkpt lat="49.38919" lon="1.42311">
        <ele>123</ele>
        <time>2017-02-07T16:25:50Z</time>
      </trkpt>
      <trkpt lat="49.38915" lon="1.42306">
        <ele>123</ele>
        <time>2017-02-07T16:25:50Z</time>
      </trkpt>
      <trkpt lat="49.38912" lon="1.42302">
        <ele>123</ele>
        <time>2017-02-07T16:25:50Z</time>
      </trkpt>
      <trkpt lat="49.3891" lon="1.42302">
        <ele>123</ele>
        <time>2017-02-07T16:25:50Z</time>
      </trkpt>
      <trkpt lat="49.38909" lon="1.42303">
        <ele>123</ele>
        <time>2017-02-07T16:26:06Z</time>
      </trkpt>
      <trkpt lat="49.38907" lon="1.42302">
        <ele>123</ele>
        <time>2017-02-07T16:26:06Z</time>
      </trkpt>
      <trkpt lat="49.38899" lon="1.42298">
        <ele>123</ele>
        <time>2017-02-07T16:26:06Z</time>
      </trkpt>
      <trkpt lat="49.38897" lon="1.42295">
        <ele>123</ele>
        <time>2017-02-07T16:26:06Z</time>
      </trkpt>
      <trkpt lat="49.38893" lon="1.42295">
        <ele>123</ele>
        <time>2017-02-07T16:26:21Z</time>
      </trkpt>
      <trkpt lat="49.38888" lon="1.42294">
        <ele>123</ele>
        <time>2017-02-07T16:26:21Z</time>
      </trkpt>
      <trkpt lat="49.38882" lon="1.42294">
        <ele>123</ele>
        <time>2017-02-07T16:26:22Z</time>
      </trkpt>
      <trkpt lat="49.3888" lon="1.42294">
        <ele>123</ele>
        <time>2017-02-07T16:26:22Z</time>
      </trkpt>
      <trkpt lat="49.38875" lon="1.42289">
        <ele>119</ele>
        <time>2017-02-07T16:27:41Z</time>
      </trkpt>
      <trkpt lat="49.38876" lon="1.42285">
        <ele>119</ele>
        <time>2017-02-07T16:27:41Z</time>
      </trkpt>
      <trkpt lat="49.38875" lon="1.42281">
        <ele>119</ele>
        <time>2017-02-07T16:27:41Z</time>
      </trkpt>
      <trkpt lat="49.38878" lon="1.42274">
        <ele>119</ele>
        <time>2017-02-07T16:27:41Z</time>
      </trkpt>
      <trkpt lat="49.38879" lon="1.42267">
        <ele>119</ele>
        <time>2017-02-07T16:27:42Z</time>
      </trkpt>
      <trkpt lat="49.3888" lon="1.42259">
        <ele>119</ele>
        <time>2017-02-07T16:28:00Z</time>
      </trkpt>
      <trkpt lat="49.38885" lon="1.42252">
        <ele>119</ele>
        <time>2017-02-07T16:28:00Z</time>
      </trkpt>
      <trkpt lat="49.3889" lon="1.42243">
        <ele>119</ele>
        <time>2017-02-07T16:28:00Z</time>
      </trkpt>
      <trkpt lat="49.38892" lon="1.42237">
        <ele>119</ele>
        <time>2017-02-07T16:28:00Z</time>
      </trkpt>
      <trkpt lat="49.38898" lon="1.42221">
        <ele>119</ele>
        <time>2017-02-07T16:28:17Z</time>
      </trkpt>
      <trkpt lat="49.38898" lon="1.42216">
        <ele>119</ele>
        <time>2017-02-07T16:28:18Z</time>
      </trkpt>
      <trkpt lat="49.389" lon="1.42208">
        <ele>119</ele>
        <time>2017-02-07T16:28:18Z</time>
      </trkpt>
      <trkpt lat="49.38901" lon="1.42204">
        <ele>119</ele>
        <time>2017-02-07T16:28:18Z</time>
      </trkpt>
      <trkpt lat="49.38905" lon="1.42196">
        <ele>119</ele>
        <time>2017-02-07T16:28:35Z</time>
      </trkpt>
      <trkpt lat="49.38909" lon="1.42189">
        <ele>119</ele>
        <time>2017-02-07T16:28:35Z</time>
      </trkpt>
      <trkpt lat="49.38909" lon="1.42179">
        <ele>119</ele>
        <time>2017-02-07T16:28:35Z</time>
      </trkpt>
      <trkpt lat="49.3891" lon="1.42175">
        <ele>119</ele>
        <time>2017-02-07T16:28:35Z</time>
      </trkpt>
      <trkpt lat="49.38916" lon="1.42162">
        <ele>119</ele>
        <time>2017-02-07T16:28:55Z</time>
      </trkpt>
      <trkpt lat="49.38917" lon="1.4216">
        <ele>119</ele>
        <time>2017-02-07T16:28:55Z</time>
      </trkpt>
      <trkpt lat="49.38917" lon="1.42146">
        <ele>119</ele>
        <time>2017-02-07T16:28:55Z</time>
      </trkpt>
      <trkpt lat="49.38918" lon="1.42139">
        <ele>119</ele>
        <time>2017-02-07T16:28:55Z</time>
      </trkpt>
      <trkpt lat="49.3892" lon="1.42134">
        <ele>119</ele>
        <time>2017-02-07T16:29:10Z</time>
      </trkpt>
      <trkpt lat="49.38923" lon="1.42125">
        <ele>116</ele>
        <time>2017-02-07T16:29:10Z</time>
      </trkpt>
      <trkpt lat="49.38924" lon="1.42117">
        <ele>116</ele>
        <time>2017-02-07T16:29:10Z</time>
      </trkpt>
      <trkpt lat="49.38923" lon="1.42106">
        <ele>116</ele>
        <time>2017-02-07T16:29:10Z</time>
      </trkpt>
      <trkpt lat="49.38924" lon="1.421">
        <ele>116</ele>
        <time>2017-02-07T16:29:28Z</time>
      </trkpt>
      <trkpt lat="49.38917" lon="1.42088">
        <ele>116</ele>
        <time>2017-02-07T16:29:28Z</time>
      </trkpt>
      <trkpt lat="49.3892" lon="1.42081">
        <ele>116</ele>
        <time>2017-02-07T16:29:28Z</time>
      </trkpt>
      <trkpt lat="49.38921" lon="1.42075">
        <ele>116</ele>
        <time>2017-02-07T16:29:28Z</time>
      </trkpt>
      <trkpt lat="49.38922" lon="1.42055">
        <ele>116</ele>
        <time>2017-02-07T16:29:46Z</time>
      </trkpt>
      <trkpt lat="49.38923" lon="1.42049">
        <ele>116</ele>
        <time>2017-02-07T16:29:46Z</time>
      </trkpt>
      <trkpt lat="49.38923" lon="1.4204">
        <ele>115</ele>
        <time>2017-02-07T16:29:46Z</time>
      </trkpt>
      <trkpt lat="49.38925" lon="1.42034">
        <ele>115</ele>
        <time>2017-02-07T16:29:46Z</time>
      </trkpt>
      <trkpt lat="49.38929" lon="1.42028">
        <ele>115</ele>
        <time>2017-02-07T16:30:15Z</time>
      </trkpt>
      <trkpt lat="49.3893" lon="1.41997">
        <ele>115</ele>
        <time>2017-02-07T16:30:15Z</time>
      </trkpt>
      <trkpt lat="49.38931" lon="1.41989">
        <ele>115</ele>
        <time>2017-02-07T16:30:15Z</time>
      </trkpt>
      <trkpt lat="49.38932" lon="1.4198">
        <ele>115</ele>
        <time>2017-02-07T16:30:15Z</time>
      </trkpt>
      <trkpt lat="49.38929" lon="1.41969">
        <ele>115</ele>
        <time>2017-02-07T16:30:30Z</time>
      </trkpt>
      <trkpt lat="49.38933" lon="1.41963">
        <ele>115</ele>
        <time>2017-02-07T16:30:30Z</time>
      </trkpt>
      <trkpt lat="49.38933" lon="1.41959">
        <ele>115</ele>
        <time>2017-02-07T16:30:30Z</time>
      </trkpt>
      <trkpt lat="49.38935" lon="1.41957">
        <ele>115</ele>
        <time>2017-02-07T16:30:30Z</time>
      </trkpt>
      <trkpt lat="49.38937" lon="1.41949">
        <ele>115</ele>
        <time>2017-02-07T16:30:45Z</time>
      </trkpt>
      <trkpt lat="49.38938" lon="1.41936">
        <ele>115</ele>
        <time>2017-02-07T16:30:46Z</time>
      </trkpt>
      <trkpt lat="49.3894" lon="1.41927">
        <ele>115</ele>
        <time>2017-02-07T16:30:46Z</time>
      </trkpt>
      <trkpt lat="49.38938" lon="1.41918">
        <ele>115</ele>
        <time>2017-02-07T16:30:46Z</time>
      </trkpt>
      <trkpt lat="49.38937" lon="1.41905">
        <ele>115</ele>
        <time>2017-02-07T16:31:02Z</time>
      </trkpt>
      <trkpt lat="49.38937" lon="1.41901">
        <ele>115</ele>
        <time>2017-02-07T16:31:02Z</time>
      </trkpt>
      <trkpt lat="49.38937" lon="1.41891">
        <ele>115</ele>
        <time>2017-02-07T16:31:02Z</time>
      </trkpt>
      <trkpt lat="49.38937" lon="1.4189">
        <ele>115</ele>
        <time>2017-02-07T16:31:02Z</time>
      </trkpt>
      <trkpt lat="49.38939" lon="1.41877">
        <ele>115</ele>
        <time>2017-02-07T16:31:22Z</time>
      </trkpt>
      <trkpt lat="49.3894" lon="1.41869">
        <ele>111</ele>
        <time>2017-02-07T16:31:22Z</time>
      </trkpt>
      <trkpt lat="49.38938" lon="1.41861">
        <ele>111</ele>
        <time>2017-02-07T16:31:22Z</time>
      </trkpt>
      <trkpt lat="49.38936" lon="1.41855">
        <ele>111</ele>
        <time>2017-02-07T16:31:22Z</time>
      </trkpt>
      <trkpt lat="49.38937" lon="1.4185">
        <ele>111</ele>
        <time>2017-02-07T16:31:39Z</time>
      </trkpt>
      <trkpt lat="49.38937" lon="1.41841">
        <ele>111</ele>
        <time>2017-02-07T16:31:39Z</time>
      </trkpt>
      <trkpt lat="49.38936" lon="1.41835">
        <ele>111</ele>
        <time>2017-02-07T16:31:39Z</time>
      </trkpt>
      <trkpt lat="49.38939" lon="1.41826">
        <ele>111</ele>
        <time>2017-02-07T16:31:39Z</time>
      </trkpt>
      <trkpt lat="49.38936" lon="1.41818">
        <ele>111</ele>
        <time>2017-02-07T16:31:59Z</time>
      </trkpt>
      <trkpt lat="49.38936" lon="1.41802">
        <ele>111</ele>
        <time>2017-02-07T16:31:59Z</time>
      </trkpt>
      <trkpt lat="49.38935" lon="1.41794">
        <ele>111</ele>
        <time>2017-02-07T16:31:59Z</time>
      </trkpt>
      <trkpt lat="49.38938" lon="1.41789">
        <ele>105</ele>
        <time>2017-02-07T16:31:59Z</time>
      </trkpt>
      <trkpt lat="49.38941" lon="1.41787">
        <ele>105</ele>
        <time>2017-02-07T16:32:26Z</time>
      </trkpt>
      <trkpt lat="49.38941" lon="1.41787">
        <ele>105</ele>
        <time>2017-02-07T16:32:26Z</time>
      </trkpt>
      <trkpt lat="49.38943" lon="1.41788">
        <ele>105</ele>
        <time>2017-02-07T16:32:26Z</time>
      </trkpt>
      <trkpt lat="49.3894" lon="1.41775">
        <ele>105</ele>
        <time>2017-02-07T16:32:26Z</time>
      </trkpt>
      <trkpt lat="49.3894" lon="1.41769">
        <ele>105</ele>
        <time>2017-02-07T16:32:26Z</time>
      </trkpt>
      <trkpt lat="49.3894" lon="1.41745">
        <ele>105</ele>
        <time>2017-02-07T16:32:49Z</time>
      </trkpt>
      <trkpt lat="49.3894" lon="1.41735">
        <ele>105</ele>
        <time>2017-02-07T16:32:49Z</time>
      </trkpt>
      <trkpt lat="49.38944" lon="1.41729">
        <ele>105</ele>
        <time>2017-02-07T16:32:49Z</time>
      </trkpt>
      <trkpt lat="49.38945" lon="1.41723">
        <ele>105</ele>
        <time>2017-02-07T16:32:50Z</time>
      </trkpt>
      <trkpt lat="49.38947" lon="1.41716">
        <ele>105</ele>
        <time>2017-02-07T16:33:06Z</time>
      </trkpt>
      <trkpt lat="49.38951" lon="1.41712">
        <ele>105</ele>
        <time>2017-02-07T16:33:06Z</time>
      </trkpt>
      <trkpt lat="49.38953" lon="1.41708">
        <ele>109</ele>
        <time>2017-02-07T16:33:06Z</time>
      </trkpt>
      <trkpt lat="49.38956" lon="1.41701">
        <ele>109</ele>
        <time>2017-02-07T16:33:06Z</time>
      </trkpt>
      <trkpt lat="49.38963" lon="1.41687">
        <ele>97</ele>
        <time>2017-02-07T16:33:27Z</time>
      </trkpt>
      <trkpt lat="49.38961" lon="1.4168">
        <ele>97</ele>
        <time>2017-02-07T16:33:27Z</time>
      </trkpt>
      <trkpt lat="49.38963" lon="1.41675">
        <ele>97</ele>
        <time>2017-02-07T16:33:27Z</time>
      </trkpt>
      <trkpt lat="49.38963" lon="1.41666">
        <ele>97</ele>
        <time>2017-02-07T16:33:27Z</time>
      </trkpt>
      <trkpt lat="49.38964" lon="1.4166">
        <ele>97</ele>
        <time>2017-02-07T16:33:41Z</time>
      </trkpt>
      <trkpt lat="49.38966" lon="1.41658">
        <ele>97</ele>
        <time>2017-02-07T16:33:41Z</time>
      </trkpt>
      <trkpt lat="49.38971" lon="1.41649">
        <ele>97</ele>
        <time>2017-02-07T16:33:41Z</time>
      </trkpt>
      <trkpt lat="49.38975" lon="1.41643">
        <ele>97</ele>
        <time>2017-02-07T16:33:41Z</time>
      </trkpt>
      <trkpt lat="49.38979" lon="1.41637">
        <ele>97</ele>
        <time>2017-02-07T16:33:57Z</time>
      </trkpt>
      <trkpt lat="49.38985" lon="1.41632">
        <ele>97</ele>
        <time>2017-02-07T16:33:57Z</time>
      </trkpt>
      <trkpt lat="49.38986" lon="1.41625">
        <ele>97</ele>
        <time>2017-02-07T16:33:57Z</time>
      </trkpt>
      <trkpt lat="49.38989" lon="1.41621">
        <ele>97</ele>
        <time>2017-02-07T16:33:57Z</time>
      </trkpt>
      <trkpt lat="49.38992" lon="1.41614">
        <ele>97</ele>
        <time>2017-02-07T16:34:13Z</time>
      </trkpt>
      <trkpt lat="49.38995" lon="1.41608">
        <ele>97</ele>
        <time>2017-02-07T16:34:14Z</time>
      </trkpt>
      <trkpt lat="49.38995" lon="1.416">
        <ele>97</ele>
        <time>2017-02-07T16:34:14Z</time>
      </trkpt>
      <trkpt lat="49.38997" lon="1.41595">
        <ele>97</ele>
        <time>2017-02-07T16:34:14Z</time>
      </trkpt>
      <trkpt lat="49.39001" lon="1.41588">
        <ele>97</ele>
        <time>2017-02-07T16:34:30Z</time>
      </trkpt>
      <trkpt lat="49.39006" lon="1.41582">
        <ele>97</ele>
        <time>2017-02-07T16:34:30Z</time>
      </trkpt>
      <trkpt lat="49.3901" lon="1.41574">
        <ele>97</ele>
        <time>2017-02-07T16:34:30Z</time>
      </trkpt>
      <trkpt lat="49.39015" lon="1.41569">
        <ele>97</ele>
        <time>2017-02-07T16:34:30Z</time>
      </trkpt>
      <trkpt lat="49.39014" lon="1.41563">
        <ele>97</ele>
        <time>2017-02-07T16:34:45Z</time>
      </trkpt>
      <trkpt lat="49.39017" lon="1.41556">
        <ele>97</ele>
        <time>2017-02-07T16:34:46Z</time>
      </trkpt>
      <trkpt lat="49.3902" lon="1.4155">
        <ele>97</ele>
        <time>2017-02-07T16:34:46Z</time>
      </trkpt>
      <trkpt lat="49.39023" lon="1.41544">
        <ele>97</ele>
        <time>2017-02-07T16:34:46Z</time>
      </trkpt>
      <trkpt lat="49.39026" lon="1.41539">
        <ele>100</ele>
        <time>2017-02-07T16:35:02Z</time>
      </trkpt>
      <trkpt lat="49.39031" lon="1.41529">
        <ele>100</ele>
        <time>2017-02-07T16:35:02Z</time>
      </trkpt>
      <trkpt lat="49.39032" lon="1.41521">
        <ele>100</ele>
        <time>2017-02-07T16:35:02Z</time>
      </trkpt>
      <trkpt lat="49.39035" lon="1.41516">
        <ele>100</ele>
        <time>2017-02-07T16:35:02Z</time>
      </trkpt>
      <trkpt lat="49.39038" lon="1.41511">
        <ele>100</ele>
        <time>2017-02-07T16:35:19Z</time>
      </trkpt>
      <trkpt lat="49.39042" lon="1.41504">
        <ele>100</ele>
        <time>2017-02-07T16:35:19Z</time>
      </trkpt>
      <trkpt lat="49.39047" lon="1.41492">
        <ele>97</ele>
        <time>2017-02-07T16:35:19Z</time>
      </trkpt>
      <trkpt lat="49.3905" lon="1.41488">
        <ele>97</ele>
        <time>2017-02-07T16:35:19Z</time>
      </trkpt>
      <trkpt lat="49.39051" lon="1.41482">
        <ele>97</ele>
        <time>2017-02-07T16:35:35Z</time>
      </trkpt>
      <trkpt lat="49.39054" lon="1.41475">
        <ele>97</ele>
        <time>2017-02-07T16:35:35Z</time>
      </trkpt>
      <trkpt lat="49.39057" lon="1.41468">
        <ele>97</ele>
        <time>2017-02-07T16:35:35Z</time>
      </trkpt>
      <trkpt lat="49.39061" lon="1.41459">
        <ele>97</ele>
        <time>2017-02-07T16:35:35Z</time>
      </trkpt>
      <trkpt lat="49.39063" lon="1.41457">
        <ele>94</ele>
        <time>2017-02-07T16:35:51Z</time>
      </trkpt>
      <trkpt lat="49.39067" lon="1.4145">
        <ele>94</ele>
        <time>2017-02-07T16:35:51Z</time>
      </trkpt>
      <trkpt lat="49.39069" lon="1.41446">
        <ele>94</ele>
        <time>2017-02-07T16:35:51Z</time>
      </trkpt>
      <trkpt lat="49.39075" lon="1.41436">
        <ele>94</ele>
        <time>2017-02-07T16:35:51Z</time>
      </trkpt>
      <trkpt lat="49.39079" lon="1.41432">
        <ele>94</ele>
        <time>2017-02-07T16:36:06Z</time>
      </trkpt>
      <trkpt lat="49.39082" lon="1.41426">
        <ele>94</ele>
        <time>2017-02-07T16:36:06Z</time>
      </trkpt>
      <trkpt lat="49.39086" lon="1.41422">
        <ele>94</ele>
        <time>2017-02-07T16:36:06Z</time>
      </trkpt>
      <trkpt lat="49.39089" lon="1.41412">
        <ele>94</ele>
        <time>2017-02-07T16:36:06Z</time>
      </trkpt>
      <trkpt lat="49.39094" lon="1.41404">
        <ele>94</ele>
        <time>2017-02-07T16:36:27Z</time>
      </trkpt>
      <trkpt lat="49.39096" lon="1.41396">
        <ele>94</ele>
        <time>2017-02-07T16:36:27Z</time>
      </trkpt>
      <trkpt lat="49.39099" lon="1.41392">
        <ele>94</ele>
        <time>2017-02-07T16:36:27Z</time>
      </trkpt>
      <trkpt lat="49.39102" lon="1.41382">
        <ele>94</ele>
        <time>2017-02-07T16:36:27Z</time>
      </trkpt>
      <trkpt lat="49.39105" lon="1.41377">
        <ele>94</ele>
        <time>2017-02-07T16:36:43Z</time>
      </trkpt>
      <trkpt lat="49.39107" lon="1.41369">
        <ele>95</ele>
        <time>2017-02-07T16:36:43Z</time>
      </trkpt>
      <trkpt lat="49.39109" lon="1.41364">
        <ele>95</ele>
        <time>2017-02-07T16:36:43Z</time>
      </trkpt>
      <trkpt lat="49.39114" lon="1.41355">
        <ele>95</ele>
        <time>2017-02-07T16:36:43Z</time>
      </trkpt>
      <trkpt lat="49.39119" lon="1.41353">
        <ele>95</ele>
        <time>2017-02-07T16:36:59Z</time>
      </trkpt>
      <trkpt lat="49.39124" lon="1.41349">
        <ele>95</ele>
        <time>2017-02-07T16:36:59Z</time>
      </trkpt>
      <trkpt lat="49.39129" lon="1.41347">
        <ele>93</ele>
        <time>2017-02-07T16:36:59Z</time>
      </trkpt>
      <trkpt lat="49.3913" lon="1.41339">
        <ele>93</ele>
        <time>2017-02-07T16:36:59Z</time>
      </trkpt>
      <trkpt lat="49.39132" lon="1.41329">
        <ele>93</ele>
        <time>2017-02-07T16:37:15Z</time>
      </trkpt>
      <trkpt lat="49.39135" lon="1.41323">
        <ele>93</ele>
        <time>2017-02-07T16:37:15Z</time>
      </trkpt>
      <trkpt lat="49.39137" lon="1.4132">
        <ele>93</ele>
        <time>2017-02-07T16:37:15Z</time>
      </trkpt>
      <trkpt lat="49.39139" lon="1.41313">
        <ele>93</ele>
        <time>2017-02-07T16:37:15Z</time>
      </trkpt>
      <trkpt lat="49.39139" lon="1.413">
        <ele>93</ele>
        <time>2017-02-07T16:37:30Z</time>
      </trkpt>
      <trkpt lat="49.39139" lon="1.41284">
        <ele>90</ele>
        <time>2017-02-07T16:37:30Z</time>
      </trkpt>
      <trkpt lat="49.3914" lon="1.41279">
        <ele>90</ele>
        <time>2017-02-07T16:37:30Z</time>
      </trkpt>
      <trkpt lat="49.3914" lon="1.41275">
        <ele>90</ele>
        <time>2017-02-07T16:37:30Z</time>
      </trkpt>
      <trkpt lat="49.3914" lon="1.41264">
        <ele>90</ele>
        <time>2017-02-07T16:37:47Z</time>
      </trkpt>
      <trkpt lat="49.3914" lon="1.41258">
        <ele>90</ele>
        <time>2017-02-07T16:37:47Z</time>
      </trkpt>
      <trkpt lat="49.39139" lon="1.41242">
        <ele>90</ele>
        <time>2017-02-07T16:37:47Z</time>
      </trkpt>
      <trkpt lat="49.3914" lon="1.41234">
        <ele>90</ele>
        <time>2017-02-07T16:37:47Z</time>
      </trkpt>
      <trkpt lat="49.3914" lon="1.41228">
        <ele>90</ele>
        <time>2017-02-07T16:38:03Z</time>
      </trkpt>
      <trkpt lat="49.3914" lon="1.41223">
        <ele>90</ele>
        <time>2017-02-07T16:38:03Z</time>
      </trkpt>
      <trkpt lat="49.39138" lon="1.41213">
        <ele>90</ele>
        <time>2017-02-07T16:38:03Z</time>
      </trkpt>
      <trkpt lat="49.39137" lon="1.41205">
        <ele>91</ele>
        <time>2017-02-07T16:38:03Z</time>
      </trkpt>
      <trkpt lat="49.39137" lon="1.41202">
        <ele>91</ele>
        <time>2017-02-07T16:38:18Z</time>
      </trkpt>
      <trkpt lat="49.39135" lon="1.41187">
        <ele>91</ele>
        <time>2017-02-07T16:38:18Z</time>
      </trkpt>
      <trkpt lat="49.39132" lon="1.41181">
        <ele>91</ele>
        <time>2017-02-07T16:38:18Z</time>
      </trkpt>
      <trkpt lat="49.39132" lon="1.41176">
        <ele>91</ele>
        <time>2017-02-07T16:38:18Z</time>
      </trkpt>
      <trkpt lat="49.3913" lon="1.41166">
        <ele>91</ele>
        <time>2017-02-07T16:38:34Z</time>
      </trkpt>
      <trkpt lat="49.39129" lon="1.4116">
        <ele>91</ele>
        <time>2017-02-07T16:38:34Z</time>
      </trkpt>
      <trkpt lat="49.39127" lon="1.41149">
        <ele>91</ele>
        <time>2017-02-07T16:38:34Z</time>
      </trkpt>
      <trkpt lat="49.39128" lon="1.41141">
        <ele>91</ele>
        <time>2017-02-07T16:38:34Z</time>
      </trkpt>
      <trkpt lat="49.39128" lon="1.41135">
        <ele>91</ele>
        <time>2017-02-07T16:38:49Z</time>
      </trkpt>
      <trkpt lat="49.39128" lon="1.41125">
        <ele>91</ele>
        <time>2017-02-07T16:38:50Z</time>
      </trkpt>
      <trkpt lat="49.39128" lon="1.41122">
        <ele>91</ele>
        <time>2017-02-07T16:38:50Z</time>
      </trkpt>
      <trkpt lat="49.39126" lon="1.41116">
        <ele>91</ele>
        <time>2017-02-07T16:38:50Z</time>
      </trkpt>
      <trkpt lat="49.39125" lon="1.41109">
        <ele>93</ele>
        <time>2017-02-07T16:39:05Z</time>
      </trkpt>
      <trkpt lat="49.39124" lon="1.41102">
        <ele>93</ele>
        <time>2017-02-07T16:39:05Z</time>
      </trkpt>
      <trkpt lat="49.39123" lon="1.41096">
        <ele>93</ele>
        <time>2017-02-07T16:39:05Z</time>
      </trkpt>
      <trkpt lat="49.39123" lon="1.41094">
        <ele>93</ele>
        <time>2017-02-07T16:39:06Z</time>
      </trkpt>
      <trkpt lat="49.39122" lon="1.41089">
        <ele>93</ele>
        <time>2017-02-07T16:39:21Z</time>
      </trkpt>
      <trkpt lat="49.3912" lon="1.41082">
        <ele>93</ele>
        <time>2017-02-07T16:39:21Z</time>
      </trkpt>
      <trkpt lat="49.39119" lon="1.41071">
        <ele>93</ele>
        <time>2017-02-07T16:39:21Z</time>
      </trkpt>
      <trkpt lat="49.39118" lon="1.41062">
        <ele>93</ele>
        <time>2017-02-07T16:39:21Z</time>
      </trkpt>
      <trkpt lat="49.3912" lon="1.41053">
        <ele>93</ele>
        <time>2017-02-07T16:39:37Z</time>
      </trkpt>
      <trkpt lat="49.39121" lon="1.41042">
        <ele>92</ele>
        <time>2017-02-07T16:39:37Z</time>
      </trkpt>
      <trkpt lat="49.39122" lon="1.41034">
        <ele>92</ele>
        <time>2017-02-07T16:39:37Z</time>
      </trkpt>
      <trkpt lat="49.39122" lon="1.41026">
        <ele>92</ele>
        <time>2017-02-07T16:39:37Z</time>
      </trkpt>
      <trkpt lat="49.39124" lon="1.41019">
        <ele>92</ele>
        <time>2017-02-07T16:39:54Z</time>
      </trkpt>
      <trkpt lat="49.39127" lon="1.41013">
        <ele>87</ele>
        <time>2017-02-07T16:39:54Z</time>
      </trkpt>
      <trkpt lat="49.39128" lon="1.41007">
        <ele>87</ele>
        <time>2017-02-07T16:39:54Z</time>
      </trkpt>
      <trkpt lat="49.39129" lon="1.41003">
        <ele>87</ele>
        <time>2017-02-07T16:39:54Z</time>
      </trkpt>
      <trkpt lat="49.39131" lon="1.40996">
        <ele>87</ele>
        <time>2017-02-07T16:40:10Z</time>
      </trkpt>
      <trkpt lat="49.39134" lon="1.40988">
        <ele>87</ele>
        <time>2017-02-07T16:40:10Z</time>
      </trkpt>
      <trkpt lat="49.39137" lon="1.40978">
        <ele>87</ele>
        <time>2017-02-07T16:40:10Z</time>
      </trkpt>
      <trkpt lat="49.39136" lon="1.4097">
        <ele>87</ele>
        <time>2017-02-07T16:40:10Z</time>
      </trkpt>
      <trkpt lat="49.39138" lon="1.40962">
        <ele>87</ele>
        <time>2017-02-07T16:40:39Z</time>
      </trkpt>
      <trkpt lat="49.39139" lon="1.40959">
        <ele>87</ele>
        <time>2017-02-07T16:40:39Z</time>
      </trkpt>
      <trkpt lat="49.39139" lon="1.40955">
        <ele>83</ele>
        <time>2017-02-07T16:40:39Z</time>
      </trkpt>
      <trkpt lat="49.39133" lon="1.40955">
        <ele>83</ele>
        <time>2017-02-07T16:40:39Z</time>
      </trkpt>
      <trkpt lat="49.39129" lon="1.40956">
        <ele>83</ele>
        <time>2017-02-07T16:40:39Z</time>
      </trkpt>
      <trkpt lat="49.39121" lon="1.40955">
        <ele>94</ele>
        <time>2017-02-07T16:40:54Z</time>
      </trkpt>
      <trkpt lat="49.39118" lon="1.40958">
        <ele>94</ele>
        <time>2017-02-07T16:40:54Z</time>
      </trkpt>
      <trkpt lat="49.39116" lon="1.40961">
        <ele>92</ele>
        <time>2017-02-07T16:40:54Z</time>
      </trkpt>
      <trkpt lat="49.39111" lon="1.40963">
        <ele>92</ele>
        <time>2017-02-07T16:40:54Z</time>
      </trkpt>
      <trkpt lat="49.39109" lon="1.40963">
        <ele>92</ele>
        <time>2017-02-07T16:41:10Z</time>
      </trkpt>
      <trkpt lat="49.39106" lon="1.40967">
        <ele>92</ele>
        <time>2017-02-07T16:41:10Z</time>
      </trkpt>
      <trkpt lat="49.39103" lon="1.4097">
        <ele>92</ele>
        <time>2017-02-07T16:41:10Z</time>
      </trkpt>
      <trkpt lat="49.39099" lon="1.40971">
        <ele>92</ele>
        <time>2017-02-07T16:41:10Z</time>
      </trkpt>
      <trkpt lat="49.39098" lon="1.40975">
        <ele>92</ele>
        <time>2017-02-07T16:41:25Z</time>
      </trkpt>
      <trkpt lat="49.39096" lon="1.40977">
        <ele>92</ele>
        <time>2017-02-07T16:41:26Z</time>
      </trkpt>
      <trkpt lat="49.39091" lon="1.40986">
        <ele>92</ele>
        <time>2017-02-07T16:41:26Z</time>
      </trkpt>
      <trkpt lat="49.39088" lon="1.40992">
        <ele>92</ele>
        <time>2017-02-07T16:41:26Z</time>
      </trkpt>
      <trkpt lat="49.39085" lon="1.40999">
        <ele>92</ele>
        <time>2017-02-07T16:41:42Z</time>
      </trkpt>
      <trkpt lat="49.39084" lon="1.41006">
        <ele>92</ele>
        <time>2017-02-07T16:41:42Z</time>
      </trkpt>
      <trkpt lat="49.39083" lon="1.41012">
        <ele>92</ele>
        <time>2017-02-07T16:41:43Z</time>
      </trkpt>
      <trkpt lat="49.39084" lon="1.41022">
        <ele>92</ele>
        <time>2017-02-07T16:41:43Z</time>
      </trkpt>
      <trkpt lat="49.39081" lon="1.41027">
        <ele>92</ele>
        <time>2017-02-07T16:41:59Z</time>
      </trkpt>
      <trkpt lat="49.3908" lon="1.41032">
        <ele>92</ele>
        <time>2017-02-07T16:41:59Z</time>
      </trkpt>
      <trkpt lat="49.39079" lon="1.4104">
        <ele>92</ele>
        <time>2017-02-07T16:41:59Z</time>
      </trkpt>
      <trkpt lat="49.39078" lon="1.41045">
        <ele>93</ele>
        <time>2017-02-07T16:41:59Z</time>
      </trkpt>
      <trkpt lat="49.39077" lon="1.41047">
        <ele>93</ele>
        <time>2017-02-07T16:42:14Z</time>
      </trkpt>
      <trkpt lat="49.39075" lon="1.4105">
        <ele>93</ele>
        <time>2017-02-07T16:42:14Z</time>
      </trkpt>
      <trkpt lat="49.39073" lon="1.41056">
        <ele>93</ele>
        <time>2017-02-07T16:42:14Z</time>
      </trkpt>
      <trkpt lat="49.39071" lon="1.41061">
        <ele>93</ele>
        <time>2017-02-07T16:42:14Z</time>
      </trkpt>
      <trkpt lat="49.39069" lon="1.41063">
        <ele>93</ele>
        <time>2017-02-07T16:42:31Z</time>
      </trkpt>
      <trkpt lat="49.39069" lon="1.41066">
        <ele>93</ele>
        <time>2017-02-07T16:42:31Z</time>
      </trkpt>
      <trkpt lat="49.39067" lon="1.41073">
        <ele>93</ele>
        <time>2017-02-07T16:42:31Z</time>
      </trkpt>
      <trkpt lat="49.39066" lon="1.41078">
        <ele>93</ele>
        <time>2017-02-07T16:42:31Z</time>
      </trkpt>
      <trkpt lat="49.3907" lon="1.41098">
        <ele>93</ele>
        <time>2017-02-07T16:42:50Z</time>
      </trkpt>
      <trkpt lat="49.39068" lon="1.41105">
        <ele>93</ele>
        <time>2017-02-07T16:42:50Z</time>
      </trkpt>
      <trkpt lat="49.39069" lon="1.41113">
        <ele>93</ele>
        <time>2017-02-07T16:42:50Z</time>
      </trkpt>
      <trkpt lat="49.39069" lon="1.41117">
        <ele>93</ele>
        <time>2017-02-07T16:42:50Z</time>
      </trkpt>
      <trkpt lat="49.39069" lon="1.41129">
        <ele>94</ele>
        <time>2017-02-07T16:43:09Z</time>
      </trkpt>
      <trkpt lat="49.39069" lon="1.41139">
        <ele>94</ele>
        <time>2017-02-07T16:43:09Z</time>
      </trkpt>
      <trkpt lat="49.39069" lon="1.41146">
        <ele>94</ele>
        <time>2017-02-07T16:43:10Z</time>
      </trkpt>
      <trkpt lat="49.39066" lon="1.41157">
        <ele>94</ele>
        <time>2017-02-07T16:43:10Z</time>
      </trkpt>
      <trkpt lat="49.39065" lon="1.41166">
        <ele>94</ele>
        <time>2017-02-07T16:43:26Z</time>
      </trkpt>
      <trkpt lat="49.39063" lon="1.4117">
        <ele>94</ele>
        <time>2017-02-07T16:43:26Z</time>
      </trkpt>
      <trkpt lat="49.39063" lon="1.41175">
        <ele>94</ele>
        <time>2017-02-07T16:43:26Z</time>
      </trkpt>
      <trkpt lat="49.39063" lon="1.41182">
        <ele>94</ele>
        <time>2017-02-07T16:43:26Z</time>
      </trkpt>
      <trkpt lat="49.39061" lon="1.41193">
        <ele>94</ele>
        <time>2017-02-07T16:43:43Z</time>
      </trkpt>
      <trkpt lat="49.39061" lon="1.41201">
        <ele>94</ele>
        <time>2017-02-07T16:43:43Z</time>
      </trkpt>
      <trkpt lat="49.39063" lon="1.41207">
        <ele>94</ele>
        <time>2017-02-07T16:43:43Z</time>
      </trkpt>
      <trkpt lat="49.39063" lon="1.41214">
        <ele>96</ele>
        <time>2017-02-07T16:43:43Z</time>
      </trkpt>
      <trkpt lat="49.39063" lon="1.41235">
        <ele>96</ele>
        <time>2017-02-07T16:44:58Z</time>
      </trkpt>
      <trkpt lat="49.39064" lon="1.41237">
        <ele>96</ele>
        <time>2017-02-07T16:44:58Z</time>
      </trkpt>
      <trkpt lat="49.39035" lon="1.41288">
        <ele>108</ele>
        <time>2017-02-07T16:44:58Z</time>
      </trkpt>
      <trkpt lat="49.39031" lon="1.41292">
        <ele>108</ele>
        <time>2017-02-07T16:44:58Z</time>
      </trkpt>
      <trkpt lat="49.39029" lon="1.41292">
        <ele>108</ele>
        <time>2017-02-07T16:45:14Z</time>
      </trkpt>
      <trkpt lat="49.39025" lon="1.41293">
        <ele>108</ele>
        <time>2017-02-07T16:45:14Z</time>
      </trkpt>
      <trkpt lat="49.39021" lon="1.41294">
        <ele>108</ele>
        <time>2017-02-07T16:45:14Z</time>
      </trkpt>
      <trkpt lat="49.39018" lon="1.41293">
        <ele>108</ele>
        <time>2017-02-07T16:45:14Z</time>
      </trkpt>
      <trkpt lat="49.38992" lon="1.413">
        <ele>108</ele>
        <time>2017-02-07T16:45:51Z</time>
      </trkpt>
      <trkpt lat="49.38987" lon="1.41301">
        <ele>108</ele>
        <time>2017-02-07T16:45:51Z</time>
      </trkpt>
      <trkpt lat="49.38984" lon="1.41302">
        <ele>108</ele>
        <time>2017-02-07T16:45:51Z</time>
      </trkpt>
      <trkpt lat="49.38978" lon="1.41306">
        <ele>108</ele>
        <time>2017-02-07T16:45:52Z</time>
      </trkpt>
      <trkpt lat="49.38976" lon="1.41305">
        <ele>108</ele>
        <time>2017-02-07T16:46:06Z</time>
      </trkpt>
      <trkpt lat="49.38972" lon="1.41306">
        <ele>108</ele>
        <time>2017-02-07T16:46:06Z</time>
      </trkpt>
      <trkpt lat="49.38967" lon="1.41304">
        <ele>108</ele>
        <time>2017-02-07T16:46:06Z</time>
      </trkpt>
      <trkpt lat="49.38964" lon="1.41304">
        <ele>108</ele>
        <time>2017-02-07T16:46:06Z</time>
      </trkpt>
      <trkpt lat="49.38963" lon="1.41305">
        <ele>108</ele>
        <time>2017-02-07T16:46:22Z</time>
      </trkpt>
      <trkpt lat="49.38961" lon="1.41305">
        <ele>108</ele>
        <time>2017-02-07T16:46:22Z</time>
      </trkpt>
      <trkpt lat="49.38957" lon="1.41306">
        <ele>119</ele>
        <time>2017-02-07T16:46:22Z</time>
      </trkpt>
      <trkpt lat="49.38954" lon="1.41304">
        <ele>119</ele>
        <time>2017-02-07T16:46:22Z</time>
      </trkpt>
      <trkpt lat="49.38948" lon="1.41307">
        <ele>119</ele>
        <time>2017-02-07T16:46:38Z</time>
      </trkpt>
      <trkpt lat="49.38943" lon="1.41305">
        <ele>119</ele>
        <time>2017-02-07T16:46:38Z</time>
      </trkpt>
      <trkpt lat="49.38939" lon="1.41304">
        <ele>119</ele>
        <time>2017-02-07T16:46:38Z</time>
      </trkpt>
      <trkpt lat="49.38931" lon="1.413">
        <ele>119</ele>
        <time>2017-02-07T16:46:38Z</time>
      </trkpt>
      <trkpt lat="49.3893" lon="1.41301">
        <ele>119</ele>
        <time>2017-02-07T16:46:54Z</time>
      </trkpt>
      <trkpt lat="49.38927" lon="1.41301">
        <ele>119</ele>
        <time>2017-02-07T16:46:55Z</time>
      </trkpt>
      <trkpt lat="49.38922" lon="1.41299">
        <ele>119</ele>
        <time>2017-02-07T16:46:55Z</time>
      </trkpt>
      <trkpt lat="49.38916" lon="1.41299">
        <ele>119</ele>
        <time>2017-02-07T16:46:55Z</time>
      </trkpt>
      <trkpt lat="49.38909" lon="1.41298">
        <ele>119</ele>
        <time>2017-02-07T16:47:13Z</time>
      </trkpt>
      <trkpt lat="49.38901" lon="1.41298">
        <ele>119</ele>
        <time>2017-02-07T16:47:14Z</time>
      </trkpt>
      <trkpt lat="49.38896" lon="1.413">
        <ele>119</ele>
        <time>2017-02-07T16:47:14Z</time>
      </trkpt>
      <trkpt lat="49.38892" lon="1.413">
        <ele>119</ele>
        <time>2017-02-07T16:47:14Z</time>
      </trkpt>
      <trkpt lat="49.38884" lon="1.41301">
        <ele>119</ele>
        <time>2017-02-07T16:48:22Z</time>
      </trkpt>
      <trkpt lat="49.38883" lon="1.41298">
        <ele>119</ele>
        <time>2017-02-07T16:48:22Z</time>
      </trkpt>
      <trkpt lat="49.38881" lon="1.41288">
        <ele>116</ele>
        <time>2017-02-07T16:48:22Z</time>
      </trkpt>
      <trkpt lat="49.38882" lon="1.41284">
        <ele>116</ele>
        <time>2017-02-07T16:48:22Z</time>
      </trkpt>
      <trkpt lat="49.38881" lon="1.41274">
        <ele>116</ele>
        <time>2017-02-07T16:48:22Z</time>
      </trkpt>
      <trkpt lat="49.38879" lon="1.41269">
        <ele>116</ele>
        <time>2017-02-07T16:48:37Z</time>
      </trkpt>
      <trkpt lat="49.38876" lon="1.41256">
        <ele>116</ele>
        <time>2017-02-07T16:48:37Z</time>
      </trkpt>
      <trkpt lat="49.38873" lon="1.41248">
        <ele>128</ele>
        <time>2017-02-07T16:48:37Z</time>
      </trkpt>
      <trkpt lat="49.38872" lon="1.41243">
        <ele>128</ele>
        <time>2017-02-07T16:48:37Z</time>
      </trkpt>
      <trkpt lat="49.38873" lon="1.41237">
        <ele>128</ele>
        <time>2017-02-07T16:48:53Z</time>
      </trkpt>
      <trkpt lat="49.38875" lon="1.41236">
        <ele>128</ele>
        <time>2017-02-07T16:48:53Z</time>
      </trkpt>
      <trkpt lat="49.38875" lon="1.41229">
        <ele>128</ele>
        <time>2017-02-07T16:48:53Z</time>
      </trkpt>
      <trkpt lat="49.38872" lon="1.4122">
        <ele>128</ele>
        <time>2017-02-07T16:48:53Z</time>
      </trkpt>
      <trkpt lat="49.3887" lon="1.41215">
        <ele>128</ele>
        <time>2017-02-07T16:49:09Z</time>
      </trkpt>
      <trkpt lat="49.38866" lon="1.4121">
        <ele>128</ele>
        <time>2017-02-07T16:49:09Z</time>
      </trkpt>
      <trkpt lat="49.38866" lon="1.41204">
        <ele>128</ele>
        <time>2017-02-07T16:49:09Z</time>
      </trkpt>
      <trkpt lat="49.38864" lon="1.41198">
        <ele>128</ele>
        <time>2017-02-07T16:49:09Z</time>
      </trkpt>
      <trkpt lat="49.38863" lon="1.41198">
        <ele>128</ele>
        <time>2017-02-07T16:49:25Z</time>
      </trkpt>
      <trkpt lat="49.38863" lon="1.41193">
        <ele>128</ele>
        <time>2017-02-07T16:49:26Z</time>
      </trkpt>
      <trkpt lat="49.38863" lon="1.41184">
        <ele>128</ele>
        <time>2017-02-07T16:49:26Z</time>
      </trkpt>
      <trkpt lat="49.38861" lon="1.41176">
        <ele>128</ele>
        <time>2017-02-07T16:49:26Z</time>
      </trkpt>
      <trkpt lat="49.38857" lon="1.4117">
        <ele>128</ele>
        <time>2017-02-07T16:49:42Z</time>
      </trkpt>
      <trkpt lat="49.38858" lon="1.41163">
        <ele>128</ele>
        <time>2017-02-07T16:49:42Z</time>
      </trkpt>
      <trkpt lat="49.38855" lon="1.41156">
        <ele>128</ele>
        <time>2017-02-07T16:49:42Z</time>
      </trkpt>
      <trkpt lat="49.38854" lon="1.41149">
        <ele>128</ele>
        <time>2017-02-07T16:49:42Z</time>
      </trkpt>
      <trkpt lat="49.38853" lon="1.41146">
        <ele>128</ele>
        <time>2017-02-07T16:50:02Z</time>
      </trkpt>
      <trkpt lat="49.3885" lon="1.41132">
        <ele>128</ele>
        <time>2017-02-07T16:50:02Z</time>
      </trkpt>
      <trkpt lat="49.3885" lon="1.4112">
        <ele>126</ele>
        <time>2017-02-07T16:50:02Z</time>
      </trkpt>
      <trkpt lat="49.38849" lon="1.41117">
        <ele>126</ele>
        <time>2017-02-07T16:50:02Z</time>
      </trkpt>
      <trkpt lat="49.38847" lon="1.41113">
        <ele>126</ele>
        <time>2017-02-07T16:50:18Z</time>
      </trkpt>
      <trkpt lat="49.38845" lon="1.41103">
        <ele>126</ele>
        <time>2017-02-07T16:50:18Z</time>
      </trkpt>
      <trkpt lat="49.38842" lon="1.41094">
        <ele>126</ele>
        <time>2017-02-07T16:50:18Z</time>
      </trkpt>
      <trkpt lat="49.38842" lon="1.4109">
        <ele>126</ele>
        <time>2017-02-07T16:50:18Z</time>
      </trkpt>
      <trkpt lat="49.38841" lon="1.41082">
        <ele>126</ele>
        <time>2017-02-07T16:50:34Z</time>
      </trkpt>
      <trkpt lat="49.38838" lon="1.41072">
        <ele>126</ele>
        <time>2017-02-07T16:50:36Z</time>
      </trkpt>
      <trkpt lat="49.38837" lon="1.41068">
        <ele>126</ele>
        <time>2017-02-07T16:50:36Z</time>
      </trkpt>
      <trkpt lat="49.38835" lon="1.41061">
        <ele>126</ele>
        <time>2017-02-07T16:50:36Z</time>
      </trkpt>
      <trkpt lat="49.38831" lon="1.41035">
        <ele>125</ele>
        <time>2017-02-07T16:51:05Z</time>
      </trkpt>
      <trkpt lat="49.38831" lon="1.41033">
        <ele>125</ele>
        <time>2017-02-07T16:51:06Z</time>
      </trkpt>
      <trkpt lat="49.38828" lon="1.41026">
        <ele>125</ele>
        <time>2017-02-07T16:51:06Z</time>
      </trkpt>
      <trkpt lat="49.38827" lon="1.41019">
        <ele>125</ele>
        <time>2017-02-07T16:51:06Z</time>
      </trkpt>
      <trkpt lat="49.38826" lon="1.41016">
        <ele>125</ele>
        <time>2017-02-07T16:51:22Z</time>
      </trkpt>
      <trkpt lat="49.38825" lon="1.41008">
        <ele>125</ele>
        <time>2017-02-07T16:51:22Z</time>
      </trkpt>
      <trkpt lat="49.38824" lon="1.41002">
        <ele>125</ele>
        <time>2017-02-07T16:51:22Z</time>
      </trkpt>
      <trkpt lat="49.38823" lon="1.40995">
        <ele>125</ele>
        <time>2017-02-07T16:51:22Z</time>
      </trkpt>
      <trkpt lat="49.38821" lon="1.40989">
        <ele>125</ele>
        <time>2017-02-07T16:51:38Z</time>
      </trkpt>
      <trkpt lat="49.3882" lon="1.40984">
        <ele>125</ele>
        <time>2017-02-07T16:51:38Z</time>
      </trkpt>
      <trkpt lat="49.3882" lon="1.40975">
        <ele>125</ele>
        <time>2017-02-07T16:51:38Z</time>
      </trkpt>
      <trkpt lat="49.38819" lon="1.40972">
        <ele>125</ele>
        <time>2017-02-07T16:51:38Z</time>
      </trkpt>
      <trkpt lat="49.38815" lon="1.40959">
        <ele>125</ele>
        <time>2017-02-07T16:51:59Z</time>
      </trkpt>
      <trkpt lat="49.38814" lon="1.40955">
        <ele>122</ele>
        <time>2017-02-07T16:51:59Z</time>
      </trkpt>
      <trkpt lat="49.38812" lon="1.40948">
        <ele>122</ele>
        <time>2017-02-07T16:51:59Z</time>
      </trkpt>
      <trkpt lat="49.38811" lon="1.40941">
        <ele>122</ele>
        <time>2017-02-07T16:51:59Z</time>
      </trkpt>
      <trkpt lat="49.38806" lon="1.40929">
        <ele>122</ele>
        <time>2017-02-07T16:52:18Z</time>
      </trkpt>
      <trkpt lat="49.38803" lon="1.40921">
        <ele>122</ele>
        <time>2017-02-07T16:52:18Z</time>
      </trkpt>
      <trkpt lat="49.38803" lon="1.40913">
        <ele>122</ele>
        <time>2017-02-07T16:52:18Z</time>
      </trkpt>
      <trkpt lat="49.38803" lon="1.40909">
        <ele>122</ele>
        <time>2017-02-07T16:52:18Z</time>
      </trkpt>
      <trkpt lat="49.3879" lon="1.40863">
        <ele>130</ele>
        <time>2017-02-07T16:52:50Z</time>
      </trkpt>
      <trkpt lat="49.3879" lon="1.40859">
        <ele>130</ele>
        <time>2017-02-07T16:52:50Z</time>
      </trkpt>
      <trkpt lat="49.38789" lon="1.40852">
        <ele>130</ele>
        <time>2017-02-07T16:52:50Z</time>
      </trkpt>
      <trkpt lat="49.38789" lon="1.40845">
        <ele>130</ele>
        <time>2017-02-07T16:52:50Z</time>
      </trkpt>
      <trkpt lat="49.38789" lon="1.40841">
        <ele>130</ele>
        <time>2017-02-07T16:53:05Z</time>
      </trkpt>
      <trkpt lat="49.38788" lon="1.40834">
        <ele>130</ele>
        <time>2017-02-07T16:53:05Z</time>
      </trkpt>
      <trkpt lat="49.38785" lon="1.40822">
        <ele>130</ele>
        <time>2017-02-07T16:53:06Z</time>
      </trkpt>
      <trkpt lat="49.38783" lon="1.40817">
        <ele>130</ele>
        <time>2017-02-07T16:53:06Z</time>
      </trkpt>
      <trkpt lat="49.38781" lon="1.40813">
        <ele>130</ele>
        <time>2017-02-07T16:53:22Z</time>
      </trkpt>
      <trkpt lat="49.3878" lon="1.40809">
        <ele>130</ele>
        <time>2017-02-07T16:53:22Z</time>
      </trkpt>
      <trkpt lat="49.3878" lon="1.408">
        <ele>130</ele>
        <time>2017-02-07T16:53:22Z</time>
      </trkpt>
      <trkpt lat="49.38777" lon="1.4079">
        <ele>129</ele>
        <time>2017-02-07T16:53:22Z</time>
      </trkpt>
      <trkpt lat="49.38776" lon="1.40784">
        <ele>129</ele>
        <time>2017-02-07T16:53:38Z</time>
      </trkpt>
      <trkpt lat="49.38775" lon="1.4078">
        <ele>129</ele>
        <time>2017-02-07T16:53:38Z</time>
      </trkpt>
      <trkpt lat="49.3877" lon="1.40768">
        <ele>129</ele>
        <time>2017-02-07T16:53:38Z</time>
      </trkpt>
      <trkpt lat="49.38766" lon="1.40761">
        <ele>129</ele>
        <time>2017-02-07T16:53:38Z</time>
      </trkpt>
      <trkpt lat="49.38766" lon="1.40755">
        <ele>129</ele>
        <time>2017-02-07T16:53:59Z</time>
      </trkpt>
      <trkpt lat="49.38766" lon="1.40751">
        <ele>129</ele>
        <time>2017-02-07T16:53:59Z</time>
      </trkpt>
      <trkpt lat="49.38765" lon="1.40748">
        <ele>129</ele>
        <time>2017-02-07T16:53:59Z</time>
      </trkpt>
      <trkpt lat="49.38765" lon="1.40744">
        <ele>129</ele>
        <time>2017-02-07T16:53:59Z</time>
      </trkpt>
      <trkpt lat="49.38764" lon="1.40739">
        <ele>129</ele>
        <time>2017-02-07T16:53:59Z</time>
      </trkpt>
      <trkpt lat="49.38764" lon="1.40734">
        <ele>129</ele>
        <time>2017-02-07T16:54:14Z</time>
      </trkpt>
      <trkpt lat="49.3876" lon="1.40728">
        <ele>129</ele>
        <time>2017-02-07T16:54:14Z</time>
      </trkpt>
      <trkpt lat="49.38759" lon="1.40722">
        <ele>129</ele>
        <time>2017-02-07T16:54:14Z</time>
      </trkpt>
      <trkpt lat="49.38759" lon="1.4072">
        <ele>129</ele>
        <time>2017-02-07T16:54:14Z</time>
      </trkpt>
      <trkpt lat="49.38758" lon="1.40711">
        <ele>129</ele>
        <time>2017-02-07T16:54:30Z</time>
      </trkpt>
      <trkpt lat="49.38756" lon="1.40704">
        <ele>124</ele>
        <time>2017-02-07T16:54:30Z</time>
      </trkpt>
      <trkpt lat="49.38755" lon="1.40699">
        <ele>124</ele>
        <time>2017-02-07T16:54:30Z</time>
      </trkpt>
      <trkpt lat="49.38753" lon="1.40691">
        <ele>124</ele>
        <time>2017-02-07T16:54:30Z</time>
      </trkpt>
      <trkpt lat="49.3875" lon="1.40683">
        <ele>124</ele>
        <time>2017-02-07T16:54:47Z</time>
      </trkpt>
      <trkpt lat="49.38749" lon="1.40677">
        <ele>124</ele>
        <time>2017-02-07T16:54:47Z</time>
      </trkpt>
      <trkpt lat="49.38747" lon="1.40675">
        <ele>124</ele>
        <time>2017-02-07T16:54:47Z</time>
      </trkpt>
      <trkpt lat="49.38746" lon="1.40667">
        <ele>124</ele>
        <time>2017-02-07T16:54:47Z</time>
      </trkpt>
      <trkpt lat="49.38746" lon="1.40653">
        <ele>124</ele>
        <time>2017-02-07T16:55:06Z</time>
      </trkpt>
      <trkpt lat="49.38746" lon="1.40645">
        <ele>124</ele>
        <time>2017-02-07T16:55:06Z</time>
      </trkpt>
      <trkpt lat="49.38744" lon="1.40639">
        <ele>124</ele>
        <time>2017-02-07T16:55:06Z</time>
      </trkpt>
      <trkpt lat="49.38743" lon="1.40628">
        <ele>124</ele>
        <time>2017-02-07T16:55:06Z</time>
      </trkpt>
      <trkpt lat="49.38741" lon="1.40621">
        <ele>118</ele>
        <time>2017-02-07T16:55:21Z</time>
      </trkpt>
      <trkpt lat="49.38739" lon="1.40616">
        <ele>118</ele>
        <time>2017-02-07T16:55:22Z</time>
      </trkpt>
      <trkpt lat="49.38739" lon="1.40612">
        <ele>118</ele>
        <time>2017-02-07T16:55:22Z</time>
      </trkpt>
      <trkpt lat="49.38737" lon="1.40607">
        <ele>118</ele>
        <time>2017-02-07T16:55:22Z</time>
      </trkpt>
      <trkpt lat="49.38734" lon="1.40599">
        <ele>118</ele>
        <time>2017-02-07T16:55:38Z</time>
      </trkpt>
      <trkpt lat="49.38733" lon="1.40596">
        <ele>118</ele>
        <time>2017-02-07T16:55:38Z</time>
      </trkpt>
      <trkpt lat="49.38733" lon="1.40588">
        <ele>118</ele>
        <time>2017-02-07T16:55:39Z</time>
      </trkpt>
      <trkpt lat="49.38732" lon="1.40583">
        <ele>118</ele>
        <time>2017-02-07T16:55:39Z</time>
      </trkpt>
      <trkpt lat="49.38732" lon="1.40576">
        <ele>118</ele>
        <time>2017-02-07T16:55:59Z</time>
      </trkpt>
      <trkpt lat="49.38732" lon="1.40574">
        <ele>118</ele>
        <time>2017-02-07T16:55:59Z</time>
      </trkpt>
      <trkpt lat="49.3873" lon="1.40568">
        <ele>118</ele>
        <time>2017-02-07T16:55:59Z</time>
      </trkpt>
      <trkpt lat="49.38729" lon="1.40567">
        <ele>118</ele>
        <time>2017-02-07T16:55:59Z</time>
      </trkpt>
      <trkpt lat="49.38727" lon="1.40565">
        <ele>118</ele>
        <time>2017-02-07T16:55:59Z</time>
      </trkpt>
      <trkpt lat="49.38724" lon="1.40561">
        <ele>118</ele>
        <time>2017-02-07T16:56:15Z</time>
      </trkpt>
      <trkpt lat="49.38722" lon="1.40556">
        <ele>118</ele>
        <time>2017-02-07T16:56:15Z</time>
      </trkpt>
      <trkpt lat="49.3872" lon="1.40551">
        <ele>118</ele>
        <time>2017-02-07T16:56:15Z</time>
      </trkpt>
      <trkpt lat="49.38718" lon="1.40544">
        <ele>118</ele>
        <time>2017-02-07T16:56:15Z</time>
      </trkpt>
      <trkpt lat="49.38713" lon="1.40531">
        <ele>114</ele>
        <time>2017-02-07T16:56:38Z</time>
      </trkpt>
      <trkpt lat="49.38708" lon="1.40521">
        <ele>114</ele>
        <time>2017-02-07T16:56:38Z</time>
      </trkpt>
      <trkpt lat="49.38705" lon="1.40514">
        <ele>127</ele>
        <time>2017-02-07T16:56:39Z</time>
      </trkpt>
      <trkpt lat="49.38701" lon="1.40508">
        <ele>127</ele>
        <time>2017-02-07T16:56:39Z</time>
      </trkpt>
      <trkpt lat="49.38696" lon="1.40494">
        <ele>127</ele>
        <time>2017-02-07T16:57:03Z</time>
      </trkpt>
      <trkpt lat="49.38695" lon="1.40489">
        <ele>127</ele>
        <time>2017-02-07T16:57:03Z</time>
      </trkpt>
      <trkpt lat="49.38693" lon="1.40485">
        <ele>127</ele>
        <time>2017-02-07T16:57:03Z</time>
      </trkpt>
      <trkpt lat="49.38692" lon="1.40481">
        <ele>127</ele>
        <time>2017-02-07T16:57:03Z</time>
      </trkpt>
      <trkpt lat="49.3869" lon="1.40477">
        <ele>127</ele>
        <time>2017-02-07T16:57:18Z</time>
      </trkpt>
      <trkpt lat="49.38689" lon="1.40474">
        <ele>127</ele>
        <time>2017-02-07T16:57:18Z</time>
      </trkpt>
      <trkpt lat="49.38688" lon="1.40472">
        <ele>127</ele>
        <time>2017-02-07T16:57:18Z</time>
      </trkpt>
      <trkpt lat="49.38684" lon="1.40465">
        <ele>127</ele>
        <time>2017-02-07T16:57:18Z</time>
      </trkpt>
      <trkpt lat="49.3868" lon="1.40456">
        <ele>121</ele>
        <time>2017-02-07T16:57:34Z</time>
      </trkpt>
      <trkpt lat="49.38678" lon="1.40449">
        <ele>121</ele>
        <time>2017-02-07T16:57:34Z</time>
      </trkpt>
      <trkpt lat="49.38676" lon="1.40446">
        <ele>121</ele>
        <time>2017-02-07T16:57:34Z</time>
      </trkpt>
      <trkpt lat="49.38675" lon="1.40442">
        <ele>121</ele>
        <time>2017-02-07T16:57:34Z</time>
      </trkpt>
      <trkpt lat="49.38673" lon="1.40434">
        <ele>121</ele>
        <time>2017-02-07T16:57:50Z</time>
      </trkpt>
      <trkpt lat="49.38672" lon="1.40427">
        <ele>121</ele>
        <time>2017-02-07T16:57:51Z</time>
      </trkpt>
      <trkpt lat="49.38671" lon="1.40421">
        <ele>121</ele>
        <time>2017-02-07T16:57:51Z</time>
      </trkpt>
      <trkpt lat="49.38668" lon="1.40411">
        <ele>121</ele>
        <time>2017-02-07T16:57:51Z</time>
      </trkpt>
      <trkpt lat="49.38667" lon="1.40406">
        <ele>121</ele>
        <time>2017-02-07T16:58:07Z</time>
      </trkpt>
      <trkpt lat="49.38665" lon="1.40397">
        <ele>121</ele>
        <time>2017-02-07T16:58:07Z</time>
      </trkpt>
      <trkpt lat="49.38664" lon="1.40391">
        <ele>121</ele>
        <time>2017-02-07T16:58:07Z</time>
      </trkpt>
      <trkpt lat="49.3866" lon="1.40386">
        <ele>121</ele>
        <time>2017-02-07T16:58:07Z</time>
      </trkpt>
      <trkpt lat="49.38658" lon="1.40381">
        <ele>121</ele>
        <time>2017-02-07T16:58:22Z</time>
      </trkpt>
      <trkpt lat="49.38655" lon="1.40375">
        <ele>121</ele>
        <time>2017-02-07T16:58:22Z</time>
      </trkpt>
      <trkpt lat="49.38651" lon="1.4037">
        <ele>114</ele>
        <time>2017-02-07T16:58:22Z</time>
      </trkpt>
      <trkpt lat="49.3865" lon="1.40366">
        <ele>114</ele>
        <time>2017-02-07T16:58:22Z</time>
      </trkpt>
      <trkpt lat="49.38644" lon="1.40357">
        <ele>114</ele>
        <time>2017-02-07T16:58:39Z</time>
      </trkpt>
      <trkpt lat="49.38644" lon="1.40354">
        <ele>114</ele>
        <time>2017-02-07T16:58:39Z</time>
      </trkpt>
      <trkpt lat="49.38642" lon="1.40348">
        <ele>114</ele>
        <time>2017-02-07T16:58:39Z</time>
      </trkpt>
      <trkpt lat="49.38639" lon="1.40339">
        <ele>114</ele>
        <time>2017-02-07T16:58:39Z</time>
      </trkpt>
      <trkpt lat="49.38639" lon="1.40337">
        <ele>114</ele>
        <time>2017-02-07T16:59:07Z</time>
      </trkpt>
      <trkpt lat="49.38631" lon="1.40312">
        <ele>114</ele>
        <time>2017-02-07T16:59:07Z</time>
      </trkpt>
      <trkpt lat="49.38627" lon="1.40308">
        <ele>114</ele>
        <time>2017-02-07T16:59:07Z</time>
      </trkpt>
      <trkpt lat="49.38623" lon="1.40305">
        <ele>126</ele>
        <time>2017-02-07T16:59:07Z</time>
      </trkpt>
      <trkpt lat="49.38621" lon="1.40297">
        <ele>126</ele>
        <time>2017-02-07T16:59:29Z</time>
      </trkpt>
      <trkpt lat="49.38618" lon="1.40294">
        <ele>126</ele>
        <time>2017-02-07T16:59:29Z</time>
      </trkpt>
      <trkpt lat="49.38615" lon="1.40285">
        <ele>121</ele>
        <time>2017-02-07T16:59:30Z</time>
      </trkpt>
      <trkpt lat="49.38611" lon="1.40278">
        <ele>121</ele>
        <time>2017-02-07T16:59:30Z</time>
      </trkpt>
      <trkpt lat="49.3861" lon="1.40271">
        <ele>121</ele>
        <time>2017-02-07T16:59:45Z</time>
      </trkpt>
      <trkpt lat="49.38606" lon="1.40263">
        <ele>121</ele>
        <time>2017-02-07T16:59:47Z</time>
      </trkpt>
      <trkpt lat="49.38605" lon="1.40257">
        <ele>121</ele>
        <time>2017-02-07T16:59:47Z</time>
      </trkpt>
      <trkpt lat="49.38601" lon="1.40251">
        <ele>121</ele>
        <time>2017-02-07T16:59:47Z</time>
      </trkpt>
      <trkpt lat="49.386" lon="1.40246">
        <ele>121</ele>
        <time>2017-02-07T17:00:03Z</time>
      </trkpt>
      <trkpt lat="49.38597" lon="1.40241">
        <ele>121</ele>
        <time>2017-02-07T17:00:03Z</time>
      </trkpt>
      <trkpt lat="49.38593" lon="1.40231">
        <ele>121</ele>
        <time>2017-02-07T17:00:03Z</time>
      </trkpt>
      <trkpt lat="49.38591" lon="1.40225">
        <ele>121</ele>
        <time>2017-02-07T17:00:03Z</time>
      </trkpt>
      <trkpt lat="49.38589" lon="1.40222">
        <ele>121</ele>
        <time>2017-02-07T17:00:18Z</time>
      </trkpt>
      <trkpt lat="49.38587" lon="1.40219">
        <ele>121</ele>
        <time>2017-02-07T17:00:18Z</time>
      </trkpt>
      <trkpt lat="49.38584" lon="1.40212">
        <ele>121</ele>
        <time>2017-02-07T17:00:18Z</time>
      </trkpt>
      <trkpt lat="49.38584" lon="1.4021">
        <ele>121</ele>
        <time>2017-02-07T17:00:18Z</time>
      </trkpt>
      <trkpt lat="49.38584" lon="1.40195">
        <ele>116</ele>
        <time>2017-02-07T17:01:17Z</time>
      </trkpt>
      <trkpt lat="49.38584" lon="1.40195">
        <ele>116</ele>
        <time>2017-02-07T17:01:17Z</time>
      </trkpt>
      <trkpt lat="49.38584" lon="1.40195">
        <ele>116</ele>
        <time>2017-02-07T17:01:17Z</time>
      </trkpt>
      <trkpt lat="49.38584" lon="1.40195">
        <ele>116</ele>
        <time>2017-02-07T17:01:17Z</time>
      </trkpt>
      <trkpt lat="49.38579" lon="1.40189">
        <ele>116</ele>
        <time>2017-02-07T17:01:18Z</time>
      </trkpt>
      <trkpt lat="49.38575" lon="1.40179">
        <ele>116</ele>
        <time>2017-02-07T17:01:58Z</time>
      </trkpt>
      <trkpt lat="49.38574" lon="1.40177">
        <ele>116</ele>
        <time>2017-02-07T17:01:58Z</time>
      </trkpt>
      <trkpt lat="49.3857" lon="1.40173">
        <ele>116</ele>
        <time>2017-02-07T17:01:58Z</time>
      </trkpt>
      <trkpt lat="49.38565" lon="1.40167">
        <ele>116</ele>
        <time>2017-02-07T17:01:58Z</time>
      </trkpt>
      <trkpt lat="49.38562" lon="1.40159">
        <ele>116</ele>
        <time>2017-02-07T17:01:58Z</time>
      </trkpt>
      <trkpt lat="49.38561" lon="1.4015">
        <ele>116</ele>
        <time>2017-02-07T17:02:15Z</time>
      </trkpt>
      <trkpt lat="49.38558" lon="1.40143">
        <ele>116</ele>
        <time>2017-02-07T17:02:15Z</time>
      </trkpt>
      <trkpt lat="49.38557" lon="1.4014">
        <ele>116</ele>
        <time>2017-02-07T17:02:15Z</time>
      </trkpt>
      <trkpt lat="49.38556" lon="1.40134">
        <ele>116</ele>
        <time>2017-02-07T17:02:15Z</time>
      </trkpt>
      <trkpt lat="49.38551" lon="1.40127">
        <ele>116</ele>
        <time>2017-02-07T17:02:29Z</time>
      </trkpt>
      <trkpt lat="49.38549" lon="1.40116">
        <ele>106</ele>
        <time>2017-02-07T17:02:30Z</time>
      </trkpt>
      <trkpt lat="49.38548" lon="1.40113">
        <ele>106</ele>
        <time>2017-02-07T17:02:30Z</time>
      </trkpt>
      <trkpt lat="49.38546" lon="1.40105">
        <ele>106</ele>
        <time>2017-02-07T17:02:30Z</time>
      </trkpt>
      <trkpt lat="49.38545" lon="1.40098">
        <ele>106</ele>
        <time>2017-02-07T17:02:47Z</time>
      </trkpt>
      <trkpt lat="49.38542" lon="1.4009">
        <ele>106</ele>
        <time>2017-02-07T17:02:47Z</time>
      </trkpt>
      <trkpt lat="49.38539" lon="1.40084">
        <ele>123</ele>
        <time>2017-02-07T17:02:47Z</time>
      </trkpt>
      <trkpt lat="49.38534" lon="1.40078">
        <ele>123</ele>
        <time>2017-02-07T17:02:47Z</time>
      </trkpt>
      <trkpt lat="49.38527" lon="1.40069">
        <ele>123</ele>
        <time>2017-02-07T17:03:14Z</time>
      </trkpt>
      <trkpt lat="49.38527" lon="1.40068">
        <ele>123</ele>
        <time>2017-02-07T17:03:14Z</time>
      </trkpt>
      <trkpt lat="49.38527" lon="1.40068">
        <ele>123</ele>
        <time>2017-02-07T17:03:16Z</time>
      </trkpt>
      <trkpt lat="49.38525" lon="1.40066">
        <ele>123</ele>
        <time>2017-02-07T17:03:16Z</time>
      </trkpt>
      <trkpt lat="49.38522" lon="1.40058">
        <ele>123</ele>
        <time>2017-02-07T17:03:16Z</time>
      </trkpt>
      <trkpt lat="49.38514" lon="1.40051">
        <ele>123</ele>
        <time>2017-02-07T17:03:33Z</time>
      </trkpt>
      <trkpt lat="49.38508" lon="1.4005">
        <ele>123</ele>
        <time>2017-02-07T17:03:33Z</time>
      </trkpt>
      <trkpt lat="49.38507" lon="1.40048">
        <ele>123</ele>
        <time>2017-02-07T17:03:34Z</time>
      </trkpt>
      <trkpt lat="49.38504" lon="1.40052">
        <ele>123</ele>
        <time>2017-02-07T17:03:34Z</time>
      </trkpt>
      <trkpt lat="49.38502" lon="1.40048">
        <ele>123</ele>
        <time>2017-02-07T17:03:50Z</time>
      </trkpt>
      <trkpt lat="49.385" lon="1.40043">
        <ele>123</ele>
        <time>2017-02-07T17:03:50Z</time>
      </trkpt>
      <trkpt lat="49.38494" lon="1.40037">
        <ele>116</ele>
        <time>2017-02-07T17:03:50Z</time>
      </trkpt>
      <trkpt lat="49.38491" lon="1.40036">
        <ele>116</ele>
        <time>2017-02-07T17:03:50Z</time>
      </trkpt>
      <trkpt lat="49.38485" lon="1.40031">
        <ele>116</ele>
        <time>2017-02-07T17:04:10Z</time>
      </trkpt>
      <trkpt lat="49.3848" lon="1.4003">
        <ele>116</ele>
        <time>2017-02-07T17:04:10Z</time>
      </trkpt>
      <trkpt lat="49.38475" lon="1.40023">
        <ele>116</ele>
        <time>2017-02-07T17:04:10Z</time>
      </trkpt>
      <trkpt lat="49.38469" lon="1.40015">
        <ele>116</ele>
        <time>2017-02-07T17:04:10Z</time>
      </trkpt>
      <trkpt lat="49.38467" lon="1.40014">
        <ele>116</ele>
        <time>2017-02-07T17:04:25Z</time>
      </trkpt>
      <trkpt lat="49.38466" lon="1.40013">
        <ele>116</ele>
        <time>2017-02-07T17:04:25Z</time>
      </trkpt>
      <trkpt lat="49.38458" lon="1.40004">
        <ele>122</ele>
        <time>2017-02-07T17:04:25Z</time>
      </trkpt>
      <trkpt lat="49.38455" lon="1.39998">
        <ele>122</ele>
        <time>2017-02-07T17:04:26Z</time>
      </trkpt>
      <trkpt lat="49.38452" lon="1.39997">
        <ele>122</ele>
        <time>2017-02-07T17:04:44Z</time>
      </trkpt>
      <trkpt lat="49.38449" lon="1.39993">
        <ele>122</ele>
        <time>2017-02-07T17:04:44Z</time>
      </trkpt>
      <trkpt lat="49.38446" lon="1.3999">
        <ele>122</ele>
        <time>2017-02-07T17:04:44Z</time>
      </trkpt>
      <trkpt lat="49.38441" lon="1.39984">
        <ele>122</ele>
        <time>2017-02-07T17:04:44Z</time>
      </trkpt>
      <trkpt lat="49.38418" lon="1.3996">
        <ele>122</ele>
        <time>2017-02-07T17:05:18Z</time>
      </trkpt>
      <trkpt lat="49.38413" lon="1.39955">
        <ele>118</ele>
        <time>2017-02-07T17:05:18Z</time>
      </trkpt>
      <trkpt lat="49.38412" lon="1.39953">
        <ele>118</ele>
        <time>2017-02-07T17:05:18Z</time>
      </trkpt>
      <trkpt lat="49.38404" lon="1.39946">
        <ele>118</ele>
        <time>2017-02-07T17:05:20Z</time>
      </trkpt>
      <trkpt lat="49.38402" lon="1.39944">
        <ele>118</ele>
        <time>2017-02-07T17:05:35Z</time>
      </trkpt>
      <trkpt lat="49.38397" lon="1.3994">
        <ele>118</ele>
        <time>2017-02-07T17:05:35Z</time>
      </trkpt>
      <trkpt lat="49.38394" lon="1.39935">
        <ele>118</ele>
        <time>2017-02-07T17:05:35Z</time>
      </trkpt>
      <trkpt lat="49.38391" lon="1.39934">
        <ele>118</ele>
        <time>2017-02-07T17:05:35Z</time>
      </trkpt>
      <trkpt lat="49.38389" lon="1.39929">
        <ele>118</ele>
        <time>2017-02-07T17:05:50Z</time>
      </trkpt>
      <trkpt lat="49.38384" lon="1.39925">
        <ele>118</ele>
        <time>2017-02-07T17:05:50Z</time>
      </trkpt>
      <trkpt lat="49.38379" lon="1.39922">
        <ele>118</ele>
        <time>2017-02-07T17:05:50Z</time>
      </trkpt>
      <trkpt lat="49.38377" lon="1.39917">
        <ele>118</ele>
        <time>2017-02-07T17:05:50Z</time>
      </trkpt>
      <trkpt lat="49.38374" lon="1.39916">
        <ele>121</ele>
        <time>2017-02-07T17:06:07Z</time>
      </trkpt>
      <trkpt lat="49.38372" lon="1.39912">
        <ele>121</ele>
        <time>2017-02-07T17:06:08Z</time>
      </trkpt>
      <trkpt lat="49.38369" lon="1.39909">
        <ele>121</ele>
        <time>2017-02-07T17:06:08Z</time>
      </trkpt>
      <trkpt lat="49.38364" lon="1.39905">
        <ele>121</ele>
        <time>2017-02-07T17:06:08Z</time>
      </trkpt>
      <trkpt lat="49.38362" lon="1.39903">
        <ele>121</ele>
        <time>2017-02-07T17:06:22Z</time>
      </trkpt>
      <trkpt lat="49.38358" lon="1.399">
        <ele>121</ele>
        <time>2017-02-07T17:06:22Z</time>
      </trkpt>
      <trkpt lat="49.38355" lon="1.39896">
        <ele>121</ele>
        <time>2017-02-07T17:06:22Z</time>
      </trkpt>
      <trkpt lat="49.3835" lon="1.39893">
        <ele>121</ele>
        <time>2017-02-07T17:06:22Z</time>
      </trkpt>
      <trkpt lat="49.38339" lon="1.39882">
        <ele>121</ele>
        <time>2017-02-07T17:06:46Z</time>
      </trkpt>
      <trkpt lat="49.38334" lon="1.39877">
        <ele>121</ele>
        <time>2017-02-07T17:06:46Z</time>
      </trkpt>
      <trkpt lat="49.38329" lon="1.39874">
        <ele>121</ele>
        <time>2017-02-07T17:06:46Z</time>
      </trkpt>
      <trkpt lat="49.38326" lon="1.39869">
        <ele>121</ele>
        <time>2017-02-07T17:06:46Z</time>
      </trkpt>
      <trkpt lat="49.38322" lon="1.39866">
        <ele>121</ele>
        <time>2017-02-07T17:07:02Z</time>
      </trkpt>
      <trkpt lat="49.38314" lon="1.39856">
        <ele>121</ele>
        <time>2017-02-07T17:07:02Z</time>
      </trkpt>
      <trkpt lat="49.3831" lon="1.39852">
        <ele>121</ele>
        <time>2017-02-07T17:07:04Z</time>
      </trkpt>
      <trkpt lat="49.38305" lon="1.39846">
        <ele>121</ele>
        <time>2017-02-07T17:07:04Z</time>
      </trkpt>
      <trkpt lat="49.38303" lon="1.39843">
        <ele>121</ele>
        <time>2017-02-07T17:07:18Z</time>
      </trkpt>
      <trkpt lat="49.383" lon="1.39842">
        <ele>121</ele>
        <time>2017-02-07T17:07:18Z</time>
      </trkpt>
      <trkpt lat="49.38297" lon="1.3984">
        <ele>121</ele>
        <time>2017-02-07T17:07:18Z</time>
      </trkpt>
      <trkpt lat="49.38294" lon="1.39836">
        <ele>121</ele>
        <time>2017-02-07T17:07:18Z</time>
      </trkpt>
      <trkpt lat="49.3829" lon="1.39833">
        <ele>120</ele>
        <time>2017-02-07T17:07:34Z</time>
      </trkpt>
      <trkpt lat="49.38287" lon="1.39831">
        <ele>120</ele>
        <time>2017-02-07T17:07:34Z</time>
      </trkpt>
      <trkpt lat="49.38283" lon="1.3983">
        <ele>120</ele>
        <time>2017-02-07T17:07:34Z</time>
      </trkpt>
      <trkpt lat="49.3828" lon="1.39828">
        <ele>120</ele>
        <time>2017-02-07T17:07:34Z</time>
      </trkpt>
      <trkpt lat="49.38275" lon="1.39819">
        <ele>120</ele>
        <time>2017-02-07T17:07:50Z</time>
      </trkpt>
      <trkpt lat="49.38271" lon="1.39817">
        <ele>120</ele>
        <time>2017-02-07T17:07:50Z</time>
      </trkpt>
      <trkpt lat="49.38268" lon="1.39812">
        <ele>120</ele>
        <time>2017-02-07T17:07:50Z</time>
      </trkpt>
      <trkpt lat="49.38267" lon="1.3981">
        <ele>120</ele>
        <time>2017-02-07T17:07:50Z</time>
      </trkpt>
      <trkpt lat="49.3826" lon="1.39805">
        <ele>120</ele>
        <time>2017-02-07T17:08:07Z</time>
      </trkpt>
      <trkpt lat="49.38257" lon="1.39802">
        <ele>120</ele>
        <time>2017-02-07T17:08:07Z</time>
      </trkpt>
      <trkpt lat="49.38254" lon="1.398">
        <ele>120</ele>
        <time>2017-02-07T17:08:07Z</time>
      </trkpt>
      <trkpt lat="49.38251" lon="1.39798">
        <ele>120</ele>
        <time>2017-02-07T17:08:07Z</time>
      </trkpt>
      <trkpt lat="49.38248" lon="1.39793">
        <ele>120</ele>
        <time>2017-02-07T17:08:23Z</time>
      </trkpt>
      <trkpt lat="49.38243" lon="1.39786">
        <ele>119</ele>
        <time>2017-02-07T17:08:23Z</time>
      </trkpt>
      <trkpt lat="49.38239" lon="1.39784">
        <ele>119</ele>
        <time>2017-02-07T17:08:23Z</time>
      </trkpt>
      <trkpt lat="49.38234" lon="1.39776">
        <ele>119</ele>
        <time>2017-02-07T17:08:23Z</time>
      </trkpt>
      <trkpt lat="49.38227" lon="1.3977">
        <ele>119</ele>
        <time>2017-02-07T17:08:42Z</time>
      </trkpt>
      <trkpt lat="49.38224" lon="1.39767">
        <ele>119</ele>
        <time>2017-02-07T17:08:42Z</time>
      </trkpt>
      <trkpt lat="49.38222" lon="1.39767">
        <ele>119</ele>
        <time>2017-02-07T17:08:42Z</time>
      </trkpt>
      <trkpt lat="49.38219" lon="1.39764">
        <ele>119</ele>
        <time>2017-02-07T17:08:42Z</time>
      </trkpt>
      <trkpt lat="49.38214" lon="1.39763">
        <ele>119</ele>
        <time>2017-02-07T17:08:57Z</time>
      </trkpt>
      <trkpt lat="49.38208" lon="1.39761">
        <ele>114</ele>
        <time>2017-02-07T17:08:58Z</time>
      </trkpt>
      <trkpt lat="49.38204" lon="1.39758">
        <ele>114</ele>
        <time>2017-02-07T17:08:59Z</time>
      </trkpt>
      <trkpt lat="49.38201" lon="1.39754">
        <ele>114</ele>
        <time>2017-02-07T17:08:59Z</time>
      </trkpt>
      <trkpt lat="49.38198" lon="1.39749">
        <ele>114</ele>
        <time>2017-02-07T17:09:14Z</time>
      </trkpt>
      <trkpt lat="49.38195" lon="1.39747">
        <ele>114</ele>
        <time>2017-02-07T17:09:14Z</time>
      </trkpt>
      <trkpt lat="49.38193" lon="1.39745">
        <ele>114</ele>
        <time>2017-02-07T17:09:14Z</time>
      </trkpt>
      <trkpt lat="49.38189" lon="1.39742">
        <ele>114</ele>
        <time>2017-02-07T17:09:14Z</time>
      </trkpt>
      <trkpt lat="49.38184" lon="1.39737">
        <ele>114</ele>
        <time>2017-02-07T17:09:30Z</time>
      </trkpt>
      <trkpt lat="49.38181" lon="1.39733">
        <ele>114</ele>
        <time>2017-02-07T17:09:30Z</time>
      </trkpt>
      <trkpt lat="49.38178" lon="1.39727">
        <ele>114</ele>
        <time>2017-02-07T17:09:30Z</time>
      </trkpt>
      <trkpt lat="49.38175" lon="1.39721">
        <ele>114</ele>
        <time>2017-02-07T17:09:30Z</time>
      </trkpt>
      <trkpt lat="49.38172" lon="1.39716">
        <ele>114</ele>
        <time>2017-02-07T17:09:45Z</time>
      </trkpt>
      <trkpt lat="49.38166" lon="1.39712">
        <ele>114</ele>
        <time>2017-02-07T17:09:45Z</time>
      </trkpt>
      <trkpt lat="49.38163" lon="1.3971">
        <ele>114</ele>
        <time>2017-02-07T17:09:45Z</time>
      </trkpt>
      <trkpt lat="49.38159" lon="1.39705">
        <ele>105</ele>
        <time>2017-02-07T17:09:45Z</time>
      </trkpt>
      <trkpt lat="49.38155" lon="1.39703">
        <ele>105</ele>
        <time>2017-02-07T17:10:02Z</time>
      </trkpt>
      <trkpt lat="49.38152" lon="1.39697">
        <ele>105</ele>
        <time>2017-02-07T17:10:02Z</time>
      </trkpt>
      <trkpt lat="49.38149" lon="1.39698">
        <ele>105</ele>
        <time>2017-02-07T17:10:02Z</time>
      </trkpt>
      <trkpt lat="49.38144" lon="1.3969">
        <ele>105</ele>
        <time>2017-02-07T17:10:03Z</time>
      </trkpt>
      <trkpt lat="49.38142" lon="1.39688">
        <ele>105</ele>
        <time>2017-02-07T17:10:19Z</time>
      </trkpt>
      <trkpt lat="49.38135" lon="1.39684">
        <ele>105</ele>
        <time>2017-02-07T17:10:19Z</time>
      </trkpt>
      <trkpt lat="49.38131" lon="1.39683">
        <ele>105</ele>
        <time>2017-02-07T17:10:19Z</time>
      </trkpt>
      <trkpt lat="49.38128" lon="1.39682">
        <ele>105</ele>
        <time>2017-02-07T17:10:19Z</time>
      </trkpt>
      <trkpt lat="49.38128" lon="1.39685">
        <ele>105</ele>
        <time>2017-02-07T17:10:33Z</time>
      </trkpt>
      <trkpt lat="49.38127" lon="1.39686">
        <ele>105</ele>
        <time>2017-02-07T17:10:33Z</time>
      </trkpt>
      <trkpt lat="49.38126" lon="1.39687">
        <ele>105</ele>
        <time>2017-02-07T17:10:33Z</time>
      </trkpt>
      <trkpt lat="49.38121" lon="1.39694">
        <ele>102</ele>
        <time>2017-02-07T17:10:33Z</time>
      </trkpt>
      <trkpt lat="49.38117" lon="1.39697">
        <ele>102</ele>
        <time>2017-02-07T17:10:51Z</time>
      </trkpt>
      <trkpt lat="49.38111" lon="1.39702">
        <ele>102</ele>
        <time>2017-02-07T17:10:51Z</time>
      </trkpt>
      <trkpt lat="49.38107" lon="1.39707">
        <ele>102</ele>
        <time>2017-02-07T17:10:51Z</time>
      </trkpt>
      <trkpt lat="49.38107" lon="1.39709">
        <ele>112</ele>
        <time>2017-02-07T17:10:51Z</time>
      </trkpt>
      <trkpt lat="49.38101" lon="1.39715">
        <ele>112</ele>
        <time>2017-02-07T17:11:06Z</time>
      </trkpt>
      <trkpt lat="49.38094" lon="1.39718">
        <ele>112</ele>
        <time>2017-02-07T17:11:06Z</time>
      </trkpt>
      <trkpt lat="49.38093" lon="1.3972">
        <ele>112</ele>
        <time>2017-02-07T17:11:06Z</time>
      </trkpt>
      <trkpt lat="49.38086" lon="1.39724">
        <ele>112</ele>
        <time>2017-02-07T17:11:06Z</time>
      </trkpt>
      <trkpt lat="49.38081" lon="1.39729">
        <ele>112</ele>
        <time>2017-02-07T17:11:31Z</time>
      </trkpt>
      <trkpt lat="49.38079" lon="1.3973">
        <ele>112</ele>
        <time>2017-02-07T17:11:31Z</time>
      </trkpt>
      <trkpt lat="49.38075" lon="1.39732">
        <ele>112</ele>
        <time>2017-02-07T17:11:31Z</time>
      </trkpt>
      <trkpt lat="49.38073" lon="1.39732">
        <ele>112</ele>
        <time>2017-02-07T17:11:31Z</time>
      </trkpt>
      <trkpt lat="49.38067" lon="1.39736">
        <ele>112</ele>
        <time>2017-02-07T17:11:31Z</time>
      </trkpt>
      <trkpt lat="49.38046" lon="1.39756">
        <ele>112</ele>
        <time>2017-02-07T17:11:59Z</time>
      </trkpt>
      <trkpt lat="49.38042" lon="1.39758">
        <ele>112</ele>
        <time>2017-02-07T17:11:59Z</time>
      </trkpt>
      <trkpt lat="49.38041" lon="1.39758">
        <ele>103</ele>
        <time>2017-02-07T17:11:59Z</time>
      </trkpt>
      <trkpt lat="49.38038" lon="1.39765">
        <ele>103</ele>
        <time>2017-02-07T17:11:59Z</time>
      </trkpt>
      <trkpt lat="49.38035" lon="1.39769">
        <ele>103</ele>
        <time>2017-02-07T17:12:15Z</time>
      </trkpt>
      <trkpt lat="49.38031" lon="1.39772">
        <ele>103</ele>
        <time>2017-02-07T17:12:15Z</time>
      </trkpt>
      <trkpt lat="49.38023" lon="1.39773">
        <ele>103</ele>
        <time>2017-02-07T17:12:15Z</time>
      </trkpt>
      <trkpt lat="49.38022" lon="1.39779">
        <ele>103</ele>
        <time>2017-02-07T17:12:15Z</time>
      </trkpt>
      <trkpt lat="49.38019" lon="1.39783">
        <ele>103</ele>
        <time>2017-02-07T17:12:31Z</time>
      </trkpt>
      <trkpt lat="49.38014" lon="1.39786">
        <ele>103</ele>
        <time>2017-02-07T17:12:32Z</time>
      </trkpt>
      <trkpt lat="49.38012" lon="1.39787">
        <ele>103</ele>
        <time>2017-02-07T17:12:32Z</time>
      </trkpt>
      <trkpt lat="49.38007" lon="1.3979">
        <ele>103</ele>
        <time>2017-02-07T17:12:32Z</time>
      </trkpt>
      <trkpt lat="49.38004" lon="1.39794">
        <ele>109</ele>
        <time>2017-02-07T17:12:46Z</time>
      </trkpt>
      <trkpt lat="49.37998" lon="1.39796">
        <ele>109</ele>
        <time>2017-02-07T17:12:46Z</time>
      </trkpt>
      <trkpt lat="49.37995" lon="1.398">
        <ele>109</ele>
        <time>2017-02-07T17:12:47Z</time>
      </trkpt>
      <trkpt lat="49.37994" lon="1.398">
        <ele>109</ele>
        <time>2017-02-07T17:12:47Z</time>
      </trkpt>
      <trkpt lat="49.37987" lon="1.39805">
        <ele>109</ele>
        <time>2017-02-07T17:13:03Z</time>
      </trkpt>
      <trkpt lat="49.37983" lon="1.39808">
        <ele>109</ele>
        <time>2017-02-07T17:13:03Z</time>
      </trkpt>
      <trkpt lat="49.37978" lon="1.39813">
        <ele>109</ele>
        <time>2017-02-07T17:13:03Z</time>
      </trkpt>
      <trkpt lat="49.37975" lon="1.39815">
        <ele>109</ele>
        <time>2017-02-07T17:13:03Z</time>
      </trkpt>
      <trkpt lat="49.37973" lon="1.39819">
        <ele>109</ele>
        <time>2017-02-07T17:13:19Z</time>
      </trkpt>
      <trkpt lat="49.37969" lon="1.39822">
        <ele>109</ele>
        <time>2017-02-07T17:13:19Z</time>
      </trkpt>
      <trkpt lat="49.37964" lon="1.39826">
        <ele>109</ele>
        <time>2017-02-07T17:13:19Z</time>
      </trkpt>
      <trkpt lat="49.3796" lon="1.39827">
        <ele>109</ele>
        <time>2017-02-07T17:13:19Z</time>
      </trkpt>
      <trkpt lat="49.37957" lon="1.39829">
        <ele>102</ele>
        <time>2017-02-07T17:13:35Z</time>
      </trkpt>
      <trkpt lat="49.37952" lon="1.39832">
        <ele>102</ele>
        <time>2017-02-07T17:13:35Z</time>
      </trkpt>
      <trkpt lat="49.37946" lon="1.39839">
        <ele>102</ele>
        <time>2017-02-07T17:13:35Z</time>
      </trkpt>
      <trkpt lat="49.37942" lon="1.39843">
        <ele>102</ele>
        <time>2017-02-07T17:13:35Z</time>
      </trkpt>
      <trkpt lat="49.37931" lon="1.39849">
        <ele>102</ele>
        <time>2017-02-07T17:13:54Z</time>
      </trkpt>
      <trkpt lat="49.37927" lon="1.39852">
        <ele>102</ele>
        <time>2017-02-07T17:13:54Z</time>
      </trkpt>
      <trkpt lat="49.37924" lon="1.39853">
        <ele>102</ele>
        <time>2017-02-07T17:13:54Z</time>
      </trkpt>
      <trkpt lat="49.37921" lon="1.39856">
        <ele>102</ele>
        <time>2017-02-07T17:13:54Z</time>
      </trkpt>
      <trkpt lat="49.37916" lon="1.3986">
        <ele>102</ele>
        <time>2017-02-07T17:14:10Z</time>
      </trkpt>
      <trkpt lat="49.3791" lon="1.39864">
        <ele>102</ele>
        <time>2017-02-07T17:14:10Z</time>
      </trkpt>
      <trkpt lat="49.37908" lon="1.39868">
        <ele>102</ele>
        <time>2017-02-07T17:14:10Z</time>
      </trkpt>
      <trkpt lat="49.37902" lon="1.39873">
        <ele>102</ele>
        <time>2017-02-07T17:14:11Z</time>
      </trkpt>
      <trkpt lat="49.37896" lon="1.39878">
        <ele>108</ele>
        <time>2017-02-07T17:14:31Z</time>
      </trkpt>
      <trkpt lat="49.37891" lon="1.39882">
        <ele>108</ele>
        <time>2017-02-07T17:14:31Z</time>
      </trkpt>
      <trkpt lat="49.37887" lon="1.39885">
        <ele>108</ele>
        <time>2017-02-07T17:14:31Z</time>
      </trkpt>
      <trkpt lat="49.37881" lon="1.3989">
        <ele>108</ele>
        <time>2017-02-07T17:14:31Z</time>
      </trkpt>
      <trkpt lat="49.37877" lon="1.39892">
        <ele>108</ele>
        <time>2017-02-07T17:14:45Z</time>
      </trkpt>
      <trkpt lat="49.37875" lon="1.39893">
        <ele>108</ele>
        <time>2017-02-07T17:14:45Z</time>
      </trkpt>
      <trkpt lat="49.37873" lon="1.39897">
        <ele>100</ele>
        <time>2017-02-07T17:14:45Z</time>
      </trkpt>
      <trkpt lat="49.37866" lon="1.39902">
        <ele>100</ele>
        <time>2017-02-07T17:14:45Z</time>
      </trkpt>
      <trkpt lat="49.37865" lon="1.39902">
        <ele>100</ele>
        <time>2017-02-07T17:15:01Z</time>
      </trkpt>
      <trkpt lat="49.37861" lon="1.39907">
        <ele>100</ele>
        <time>2017-02-07T17:15:02Z</time>
      </trkpt>
      <trkpt lat="49.37857" lon="1.3991">
        <ele>100</ele>
        <time>2017-02-07T17:15:02Z</time>
      </trkpt>
      <trkpt lat="49.37852" lon="1.39913">
        <ele>100</ele>
        <time>2017-02-07T17:15:02Z</time>
      </trkpt>
      <trkpt lat="49.3785" lon="1.39914">
        <ele>100</ele>
        <time>2017-02-07T17:15:18Z</time>
      </trkpt>
      <trkpt lat="49.37848" lon="1.39914">
        <ele>100</ele>
        <time>2017-02-07T17:15:18Z</time>
      </trkpt>
      <trkpt lat="49.37847" lon="1.39916">
        <ele>100</ele>
        <time>2017-02-07T17:15:18Z</time>
      </trkpt>
      <trkpt lat="49.37841" lon="1.39925">
        <ele>100</ele>
        <time>2017-02-07T17:15:18Z</time>
      </trkpt>
      <trkpt lat="49.37835" lon="1.39927">
        <ele>100</ele>
        <time>2017-02-07T17:15:34Z</time>
      </trkpt>
      <trkpt lat="49.37832" lon="1.3993">
        <ele>100</ele>
        <time>2017-02-07T17:15:35Z</time>
      </trkpt>
      <trkpt lat="49.37827" lon="1.39932">
        <ele>100</ele>
        <time>2017-02-07T17:15:35Z</time>
      </trkpt>
      <trkpt lat="49.37821" lon="1.39936">
        <ele>100</ele>
        <time>2017-02-07T17:15:35Z</time>
      </trkpt>
      <trkpt lat="49.37818" lon="1.3994">
        <ele>100</ele>
        <time>2017-02-07T17:15:50Z</time>
      </trkpt>
      <trkpt lat="49.37815" lon="1.39943">
        <ele>100</ele>
        <time>2017-02-07T17:15:52Z</time>
      </trkpt>
      <trkpt lat="49.37811" lon="1.39945">
        <ele>100</ele>
        <time>2017-02-07T17:15:52Z</time>
      </trkpt>
      <trkpt lat="49.37805" lon="1.39951">
        <ele>100</ele>
        <time>2017-02-07T17:15:52Z</time>
      </trkpt>
      <trkpt lat="49.37797" lon="1.39957">
        <ele>100</ele>
        <time>2017-02-07T17:16:10Z</time>
      </trkpt>
      <trkpt lat="49.37794" lon="1.3996">
        <ele>105</ele>
        <time>2017-02-07T17:16:10Z</time>
      </trkpt>
      <trkpt lat="49.3779" lon="1.39963">
        <ele>100</ele>
        <time>2017-02-07T17:16:10Z</time>
      </trkpt>
      <trkpt lat="49.37787" lon="1.39965">
        <ele>100</ele>
        <time>2017-02-07T17:16:10Z</time>
      </trkpt>
      <trkpt lat="49.37783" lon="1.39971">
        <ele>100</ele>
        <time>2017-02-07T17:16:25Z</time>
      </trkpt>
      <trkpt lat="49.37779" lon="1.39973">
        <ele>100</ele>
        <time>2017-02-07T17:16:25Z</time>
      </trkpt>
      <trkpt lat="49.37773" lon="1.39973">
        <ele>100</ele>
        <time>2017-02-07T17:16:26Z</time>
      </trkpt>
      <trkpt lat="49.37771" lon="1.39968">
        <ele>100</ele>
        <time>2017-02-07T17:16:26Z</time>
      </trkpt>
      <trkpt lat="49.37769" lon="1.39966">
        <ele>100</ele>
        <time>2017-02-07T17:16:41Z</time>
      </trkpt>
      <trkpt lat="49.37768" lon="1.39963">
        <ele>100</ele>
        <time>2017-02-07T17:16:42Z</time>
      </trkpt>
      <trkpt lat="49.37766" lon="1.39958">
        <ele>94</ele>
        <time>2017-02-07T17:16:42Z</time>
      </trkpt>
      <trkpt lat="49.37761" lon="1.39954">
        <ele>94</ele>
        <time>2017-02-07T17:16:42Z</time>
      </trkpt>
      <trkpt lat="49.37757" lon="1.39945">
        <ele>94</ele>
        <time>2017-02-07T17:16:59Z</time>
      </trkpt>
      <trkpt lat="49.37755" lon="1.3994">
        <ele>94</ele>
        <time>2017-02-07T17:16:59Z</time>
      </trkpt>
      <trkpt lat="49.37751" lon="1.39934">
        <ele>94</ele>
        <time>2017-02-07T17:16:59Z</time>
      </trkpt>
      <trkpt lat="49.37749" lon="1.39928">
        <ele>94</ele>
        <time>2017-02-07T17:16:59Z</time>
      </trkpt>
      <trkpt lat="49.37746" lon="1.39924">
        <ele>94</ele>
        <time>2017-02-07T17:17:13Z</time>
      </trkpt>
      <trkpt lat="49.37745" lon="1.39915">
        <ele>94</ele>
        <time>2017-02-07T17:17:14Z</time>
      </trkpt>
      <trkpt lat="49.37742" lon="1.39913">
        <ele>94</ele>
        <time>2017-02-07T17:17:14Z</time>
      </trkpt>
      <trkpt lat="49.37739" lon="1.39905">
        <ele>94</ele>
        <time>2017-02-07T17:17:14Z</time>
      </trkpt>
      <trkpt lat="49.37738" lon="1.39899">
        <ele>94</ele>
        <time>2017-02-07T17:17:30Z</time>
      </trkpt>
      <trkpt lat="49.37736" lon="1.39892">
        <ele>94</ele>
        <time>2017-02-07T17:17:31Z</time>
      </trkpt>
      <trkpt lat="49.37734" lon="1.39885">
        <ele>94</ele>
        <time>2017-02-07T17:17:31Z</time>
      </trkpt>
      <trkpt lat="49.37732" lon="1.39879">
        <ele>94</ele>
        <time>2017-02-07T17:17:31Z</time>
      </trkpt>
      <trkpt lat="49.37729" lon="1.39872">
        <ele>91</ele>
        <time>2017-02-07T17:17:48Z</time>
      </trkpt>
      <trkpt lat="49.37728" lon="1.39867">
        <ele>91</ele>
        <time>2017-02-07T17:17:48Z</time>
      </trkpt>
      <trkpt lat="49.37725" lon="1.39857">
        <ele>91</ele>
        <time>2017-02-07T17:17:48Z</time>
      </trkpt>
      <trkpt lat="49.37723" lon="1.39851">
        <ele>91</ele>
        <time>2017-02-07T17:17:48Z</time>
      </trkpt>
      <trkpt lat="49.3772" lon="1.39837">
        <ele>91</ele>
        <time>2017-02-07T17:18:07Z</time>
      </trkpt>
      <trkpt lat="49.37715" lon="1.39829">
        <ele>91</ele>
        <time>2017-02-07T17:18:08Z</time>
      </trkpt>
      <trkpt lat="49.37713" lon="1.39824">
        <ele>91</ele>
        <time>2017-02-07T17:18:08Z</time>
      </trkpt>
      <trkpt lat="49.37711" lon="1.39817">
        <ele>91</ele>
        <time>2017-02-07T17:18:08Z</time>
      </trkpt>
      <trkpt lat="49.37709" lon="1.39812">
        <ele>91</ele>
        <time>2017-02-07T17:18:22Z</time>
      </trkpt>
      <trkpt lat="49.37707" lon="1.39808">
        <ele>83</ele>
        <time>2017-02-07T17:18:22Z</time>
      </trkpt>
      <trkpt lat="49.37706" lon="1.39802">
        <ele>83</ele>
        <time>2017-02-07T17:18:24Z</time>
      </trkpt>
      <trkpt lat="49.37704" lon="1.39791">
        <ele>78</ele>
        <time>2017-02-07T17:18:24Z</time>
      </trkpt>
      <trkpt lat="49.37701" lon="1.39787">
        <ele>78</ele>
        <time>2017-02-07T17:18:37Z</time>
      </trkpt>
      <trkpt lat="49.37699" lon="1.39779">
        <ele>78</ele>
        <time>2017-02-07T17:18:38Z</time>
      </trkpt>
      <trkpt lat="49.37697" lon="1.39775">
        <ele>78</ele>
        <time>2017-02-07T17:18:38Z</time>
      </trkpt>
      <trkpt lat="49.37694" lon="1.39768">
        <ele>78</ele>
        <time>2017-02-07T17:18:38Z</time>
      </trkpt>
      <trkpt lat="49.37692" lon="1.39763">
        <ele>78</ele>
        <time>2017-02-07T17:18:53Z</time>
      </trkpt>
      <trkpt lat="49.37689" lon="1.39758">
        <ele>78</ele>
        <time>2017-02-07T17:18:54Z</time>
      </trkpt>
      <trkpt lat="49.37686" lon="1.39755">
        <ele>78</ele>
        <time>2017-02-07T17:18:54Z</time>
      </trkpt>
      <trkpt lat="49.37686" lon="1.3975">
        <ele>78</ele>
        <time>2017-02-07T17:18:54Z</time>
      </trkpt>
      <trkpt lat="49.37685" lon="1.39741">
        <ele>78</ele>
        <time>2017-02-07T17:19:10Z</time>
      </trkpt>
      <trkpt lat="49.37684" lon="1.39737">
        <ele>78</ele>
        <time>2017-02-07T17:19:10Z</time>
      </trkpt>
      <trkpt lat="49.3768" lon="1.39726">
        <ele>78</ele>
        <time>2017-02-07T17:19:10Z</time>
      </trkpt>
      <trkpt lat="49.3768" lon="1.39723">
        <ele>78</ele>
        <time>2017-02-07T17:19:10Z</time>
      </trkpt>
      <trkpt lat="49.37673" lon="1.39705">
        <ele>75</ele>
        <time>2017-02-07T17:19:35Z</time>
      </trkpt>
      <trkpt lat="49.37671" lon="1.39701">
        <ele>75</ele>
        <time>2017-02-07T17:19:36Z</time>
      </trkpt>
      <trkpt lat="49.3767" lon="1.39695">
        <ele>75</ele>
        <time>2017-02-07T17:19:36Z</time>
      </trkpt>
      <trkpt lat="49.37668" lon="1.39685">
        <ele>75</ele>
        <time>2017-02-07T17:19:36Z</time>
      </trkpt>
      <trkpt lat="49.37664" lon="1.39669">
        <ele>75</ele>
        <time>2017-02-07T17:19:54Z</time>
      </trkpt>
      <trkpt lat="49.37663" lon="1.39666">
        <ele>75</ele>
        <time>2017-02-07T17:19:54Z</time>
      </trkpt>
      <trkpt lat="49.37662" lon="1.39656">
        <ele>75</ele>
        <time>2017-02-07T17:19:54Z</time>
      </trkpt>
      <trkpt lat="49.37661" lon="1.39652">
        <ele>75</ele>
        <time>2017-02-07T17:19:54Z</time>
      </trkpt>
      <trkpt lat="49.3766" lon="1.39646">
        <ele>75</ele>
        <time>2017-02-07T17:20:10Z</time>
      </trkpt>
      <trkpt lat="49.37658" lon="1.3964">
        <ele>75</ele>
        <time>2017-02-07T17:20:10Z</time>
      </trkpt>
      <trkpt lat="49.37655" lon="1.39632">
        <ele>75</ele>
        <time>2017-02-07T17:20:10Z</time>
      </trkpt>
      <trkpt lat="49.37653" lon="1.39628">
        <ele>75</ele>
        <time>2017-02-07T17:20:10Z</time>
      </trkpt>
      <trkpt lat="49.37651" lon="1.39623">
        <ele>75</ele>
        <time>2017-02-07T17:20:27Z</time>
      </trkpt>
      <trkpt lat="49.37651" lon="1.39616">
        <ele>75</ele>
        <time>2017-02-07T17:20:27Z</time>
      </trkpt>
      <trkpt lat="49.37649" lon="1.3961">
        <ele>75</ele>
        <time>2017-02-07T17:20:27Z</time>
      </trkpt>
      <trkpt lat="49.37647" lon="1.39604">
        <ele>75</ele>
        <time>2017-02-07T17:20:27Z</time>
      </trkpt>
      <trkpt lat="49.37646" lon="1.39599">
        <ele>75</ele>
        <time>2017-02-07T17:20:43Z</time>
      </trkpt>
      <trkpt lat="49.37644" lon="1.39591">
        <ele>75</ele>
        <time>2017-02-07T17:20:43Z</time>
      </trkpt>
      <trkpt lat="49.37643" lon="1.39585">
        <ele>75</ele>
        <time>2017-02-07T17:20:43Z</time>
      </trkpt>
      <trkpt lat="49.3764" lon="1.39577">
        <ele>75</ele>
        <time>2017-02-07T17:20:43Z</time>
      </trkpt>
      <trkpt lat="49.37639" lon="1.39572">
        <ele>75</ele>
        <time>2017-02-07T17:20:58Z</time>
      </trkpt>
      <trkpt lat="49.37638" lon="1.39567">
        <ele>75</ele>
        <time>2017-02-07T17:20:58Z</time>
      </trkpt>
      <trkpt lat="49.37635" lon="1.39559">
        <ele>75</ele>
        <time>2017-02-07T17:20:58Z</time>
      </trkpt>
      <trkpt lat="49.37634" lon="1.39551">
        <ele>75</ele>
        <time>2017-02-07T17:20:58Z</time>
      </trkpt>
      <trkpt lat="49.37632" lon="1.39542">
        <ele>75</ele>
        <time>2017-02-07T17:21:14Z</time>
      </trkpt>
      <trkpt lat="49.3763" lon="1.39538">
        <ele>69</ele>
        <time>2017-02-07T17:21:14Z</time>
      </trkpt>
      <trkpt lat="49.37626" lon="1.39528">
        <ele>69</ele>
        <time>2017-02-07T17:21:14Z</time>
      </trkpt>
      <trkpt lat="49.37625" lon="1.39525">
        <ele>57</ele>
        <time>2017-02-07T17:21:14Z</time>
      </trkpt>
      <trkpt lat="49.37623" lon="1.39516">
        <ele>57</ele>
        <time>2017-02-07T17:21:30Z</time>
      </trkpt>
      <trkpt lat="49.3762" lon="1.39508">
        <ele>57</ele>
        <time>2017-02-07T17:21:30Z</time>
      </trkpt>
      <trkpt lat="49.37617" lon="1.39503">
        <ele>57</ele>
        <time>2017-02-07T17:21:30Z</time>
      </trkpt>
      <trkpt lat="49.37615" lon="1.39498">
        <ele>57</ele>
        <time>2017-02-07T17:21:30Z</time>
      </trkpt>
      <trkpt lat="49.37612" lon="1.39491">
        <ele>57</ele>
        <time>2017-02-07T17:21:46Z</time>
      </trkpt>
      <trkpt lat="49.3761" lon="1.39486">
        <ele>57</ele>
        <time>2017-02-07T17:21:46Z</time>
      </trkpt>
      <trkpt lat="49.37608" lon="1.39482">
        <ele>57</ele>
        <time>2017-02-07T17:21:46Z</time>
      </trkpt>
      <trkpt lat="49.37605" lon="1.39475">
        <ele>57</ele>
        <time>2017-02-07T17:21:46Z</time>
      </trkpt>
      <trkpt lat="49.37604" lon="1.3947">
        <ele>57</ele>
        <time>2017-02-07T17:22:01Z</time>
      </trkpt>
      <trkpt lat="49.37601" lon="1.39464">
        <ele>57</ele>
        <time>2017-02-07T17:22:01Z</time>
      </trkpt>
      <trkpt lat="49.37599" lon="1.39461">
        <ele>57</ele>
        <time>2017-02-07T17:22:01Z</time>
      </trkpt>
      <trkpt lat="49.37597" lon="1.39457">
        <ele>55</ele>
        <time>2017-02-07T17:22:01Z</time>
      </trkpt>
      <trkpt lat="49.37594" lon="1.39451">
        <ele>55</ele>
        <time>2017-02-07T17:22:17Z</time>
      </trkpt>
      <trkpt lat="49.3759" lon="1.39444">
        <ele>55</ele>
        <time>2017-02-07T17:22:17Z</time>
      </trkpt>
      <trkpt lat="49.37586" lon="1.39434">
        <ele>55</ele>
        <time>2017-02-07T17:22:17Z</time>
      </trkpt>
      <trkpt lat="49.37585" lon="1.39433">
        <ele>55</ele>
        <time>2017-02-07T17:22:18Z</time>
      </trkpt>
      <trkpt lat="49.37581" lon="1.39429">
        <ele>55</ele>
        <time>2017-02-07T17:22:34Z</time>
      </trkpt>
      <trkpt lat="49.3758" lon="1.39423">
        <ele>55</ele>
        <time>2017-02-07T17:22:34Z</time>
      </trkpt>
      <trkpt lat="49.37576" lon="1.39419">
        <ele>55</ele>
        <time>2017-02-07T17:22:34Z</time>
      </trkpt>
      <trkpt lat="49.37575" lon="1.39416">
        <ele>55</ele>
        <time>2017-02-07T17:22:34Z</time>
      </trkpt>
      <trkpt lat="49.37571" lon="1.3941">
        <ele>55</ele>
        <time>2017-02-07T17:22:49Z</time>
      </trkpt>
      <trkpt lat="49.37569" lon="1.39407">
        <ele>55</ele>
        <time>2017-02-07T17:22:50Z</time>
      </trkpt>
      <trkpt lat="49.37563" lon="1.39403">
        <ele>55</ele>
        <time>2017-02-07T17:22:50Z</time>
      </trkpt>
      <trkpt lat="49.37559" lon="1.394">
        <ele>55</ele>
        <time>2017-02-07T17:22:50Z</time>
      </trkpt>
      <trkpt lat="49.37556" lon="1.39397">
        <ele>55</ele>
        <time>2017-02-07T17:23:15Z</time>
      </trkpt>
      <trkpt lat="49.37536" lon="1.3939">
        <ele>50</ele>
        <time>2017-02-07T17:23:15Z</time>
      </trkpt>
      <trkpt lat="49.37531" lon="1.3939">
        <ele>50</ele>
        <time>2017-02-07T17:23:15Z</time>
      </trkpt>
      <trkpt lat="49.37528" lon="1.3939">
        <ele>50</ele>
        <time>2017-02-07T17:23:15Z</time>
      </trkpt>
      <trkpt lat="49.37524" lon="1.3939">
        <ele>50</ele>
        <time>2017-02-07T17:23:30Z</time>
      </trkpt>
      <trkpt lat="49.3752" lon="1.3939">
        <ele>50</ele>
        <time>2017-02-07T17:23:30Z</time>
      </trkpt>
      <trkpt lat="49.37519" lon="1.39389">
        <ele>50</ele>
        <time>2017-02-07T17:23:30Z</time>
      </trkpt>
      <trkpt lat="49.37512" lon="1.39382">
        <ele>50</ele>
        <time>2017-02-07T17:23:30Z</time>
      </trkpt>
      <trkpt lat="49.37501" lon="1.39367">
        <ele>42</ele>
        <time>2017-02-07T17:24:10Z</time>
      </trkpt>
      <trkpt lat="49.375" lon="1.39365">
        <ele>42</ele>
        <time>2017-02-07T17:24:10Z</time>
      </trkpt>
      <trkpt lat="49.37499" lon="1.39365">
        <ele>42</ele>
        <time>2017-02-07T17:24:10Z</time>
      </trkpt>
      <trkpt lat="49.37499" lon="1.39364">
        <ele>42</ele>
        <time>2017-02-07T17:24:10Z</time>
      </trkpt>
      <trkpt lat="49.37498" lon="1.39361">
        <ele>42</ele>
        <time>2017-02-07T17:24:11Z</time>
      </trkpt>
      <trkpt lat="49.37498" lon="1.39362">
        <ele>42</ele>
        <time>2017-02-07T17:24:26Z</time>
      </trkpt>
      <trkpt lat="49.37496" lon="1.3936">
        <ele>42</ele>
        <time>2017-02-07T17:24:26Z</time>
      </trkpt>
      <trkpt lat="49.37491" lon="1.39356">
        <ele>42</ele>
        <time>2017-02-07T17:24:26Z</time>
      </trkpt>
      <trkpt lat="49.37487" lon="1.39353">
        <ele>42</ele>
        <time>2017-02-07T17:24:26Z</time>
      </trkpt>
      <trkpt lat="49.37478" lon="1.39344">
        <ele>42</ele>
        <time>2017-02-07T17:26:22Z</time>
      </trkpt>
      <trkpt lat="49.37479" lon="1.39338">
        <ele>42</ele>
        <time>2017-02-07T17:26:22Z</time>
      </trkpt>
      <trkpt lat="49.37481" lon="1.39332">
        <ele>42</ele>
        <time>2017-02-07T17:26:22Z</time>
      </trkpt>
      <trkpt lat="49.37482" lon="1.39322">
        <ele>42</ele>
        <time>2017-02-07T17:26:22Z</time>
      </trkpt>
      <trkpt lat="49.37483" lon="1.39319">
        <ele>42</ele>
        <time>2017-02-07T17:26:22Z</time>
      </trkpt>
      <trkpt lat="49.37484" lon="1.39309">
        <ele>42</ele>
        <time>2017-02-07T17:26:37Z</time>
      </trkpt>
      <trkpt lat="49.37484" lon="1.393">
        <ele>42</ele>
        <time>2017-02-07T17:26:38Z</time>
      </trkpt>
      <trkpt lat="49.37485" lon="1.39294">
        <ele>42</ele>
        <time>2017-02-07T17:26:38Z</time>
      </trkpt>
      <trkpt lat="49.37487" lon="1.39288">
        <ele>40</ele>
        <time>2017-02-07T17:26:38Z</time>
      </trkpt>
      <trkpt lat="49.37488" lon="1.39279">
        <ele>40</ele>
        <time>2017-02-07T17:26:54Z</time>
      </trkpt>
      <trkpt lat="49.37488" lon="1.3927">
        <ele>40</ele>
        <time>2017-02-07T17:26:54Z</time>
      </trkpt>
      <trkpt lat="49.3749" lon="1.39266">
        <ele>40</ele>
        <time>2017-02-07T17:26:54Z</time>
      </trkpt>
      <trkpt lat="49.3749" lon="1.3926">
        <ele>40</ele>
        <time>2017-02-07T17:26:54Z</time>
      </trkpt>
      <trkpt lat="49.37491" lon="1.39252">
        <ele>40</ele>
        <time>2017-02-07T17:27:10Z</time>
      </trkpt>
      <trkpt lat="49.37491" lon="1.39244">
        <ele>40</ele>
        <time>2017-02-07T17:27:10Z</time>
      </trkpt>
      <trkpt lat="49.37492" lon="1.39232">
        <ele>40</ele>
        <time>2017-02-07T17:27:10Z</time>
      </trkpt>
      <trkpt lat="49.37493" lon="1.39228">
        <ele>40</ele>
        <time>2017-02-07T17:27:10Z</time>
      </trkpt>
      <trkpt lat="49.37494" lon="1.39212">
        <ele>40</ele>
        <time>2017-02-07T17:27:30Z</time>
      </trkpt>
      <trkpt lat="49.37495" lon="1.39207">
        <ele>43</ele>
        <time>2017-02-07T17:27:30Z</time>
      </trkpt>
      <trkpt lat="49.37495" lon="1.39201">
        <ele>43</ele>
        <time>2017-02-07T17:27:30Z</time>
      </trkpt>
      <trkpt lat="49.37496" lon="1.39186">
        <ele>43</ele>
        <time>2017-02-07T17:27:30Z</time>
      </trkpt>
      <trkpt lat="49.37496" lon="1.39182">
        <ele>43</ele>
        <time>2017-02-07T17:27:47Z</time>
      </trkpt>
      <trkpt lat="49.37497" lon="1.39174">
        <ele>43</ele>
        <time>2017-02-07T17:27:47Z</time>
      </trkpt>
      <trkpt lat="49.37497" lon="1.39163">
        <ele>43</ele>
        <time>2017-02-07T17:27:47Z</time>
      </trkpt>
      <trkpt lat="49.37498" lon="1.39158">
        <ele>43</ele>
        <time>2017-02-07T17:27:47Z</time>
      </trkpt>
      <trkpt lat="49.37499" lon="1.39135">
        <ele>43</ele>
        <time>2017-02-07T17:28:11Z</time>
      </trkpt>
      <trkpt lat="49.37499" lon="1.39123">
        <ele>46</ele>
        <time>2017-02-07T17:28:11Z</time>
      </trkpt>
      <trkpt lat="49.37499" lon="1.39115">
        <ele>46</ele>
        <time>2017-02-07T17:28:11Z</time>
      </trkpt>
      <trkpt lat="49.37499" lon="1.39107">
        <ele>46</ele>
        <time>2017-02-07T17:28:11Z</time>
      </trkpt>
      <trkpt lat="49.375" lon="1.39099">
        <ele>46</ele>
        <time>2017-02-07T17:28:25Z</time>
      </trkpt>
      <trkpt lat="49.375" lon="1.39089">
        <ele>46</ele>
        <time>2017-02-07T17:28:26Z</time>
      </trkpt>
      <trkpt lat="49.37501" lon="1.3908">
        <ele>46</ele>
        <time>2017-02-07T17:28:27Z</time>
      </trkpt>
      <trkpt lat="49.37501" lon="1.39073">
        <ele>46</ele>
        <time>2017-02-07T17:28:27Z</time>
      </trkpt>
      <trkpt lat="49.37502" lon="1.39066">
        <ele>46</ele>
        <time>2017-02-07T17:28:41Z</time>
      </trkpt>
      <trkpt lat="49.37502" lon="1.39059">
        <ele>46</ele>
        <time>2017-02-07T17:28:42Z</time>
      </trkpt>
      <trkpt lat="49.37502" lon="1.39052">
        <ele>46</ele>
        <time>2017-02-07T17:28:42Z</time>
      </trkpt>
      <trkpt lat="49.37503" lon="1.39042">
        <ele>46</ele>
        <time>2017-02-07T17:28:42Z</time>
      </trkpt>
      <trkpt lat="49.37503" lon="1.39032">
        <ele>46</ele>
        <time>2017-02-07T17:28:58Z</time>
      </trkpt>
      <trkpt lat="49.37503" lon="1.39027">
        <ele>46</ele>
        <time>2017-02-07T17:28:58Z</time>
      </trkpt>
      <trkpt lat="49.37503" lon="1.39019">
        <ele>46</ele>
        <time>2017-02-07T17:28:58Z</time>
      </trkpt>
      <trkpt lat="49.37503" lon="1.39009">
        <ele>46</ele>
        <time>2017-02-07T17:28:58Z</time>
      </trkpt>
      <trkpt lat="49.37503" lon="1.39002">
        <ele>46</ele>
        <time>2017-02-07T17:29:15Z</time>
      </trkpt>
      <trkpt lat="49.37503" lon="1.38993">
        <ele>46</ele>
        <time>2017-02-07T17:29:15Z</time>
      </trkpt>
      <trkpt lat="49.37502" lon="1.38985">
        <ele>46</ele>
        <time>2017-02-07T17:29:15Z</time>
      </trkpt>
      <trkpt lat="49.37502" lon="1.38976">
        <ele>46</ele>
        <time>2017-02-07T17:29:15Z</time>
      </trkpt>
      <trkpt lat="49.37503" lon="1.3897">
        <ele>46</ele>
        <time>2017-02-07T17:29:32Z</time>
      </trkpt>
      <trkpt lat="49.37502" lon="1.38961">
        <ele>46</ele>
        <time>2017-02-07T17:29:32Z</time>
      </trkpt>
      <trkpt lat="49.37502" lon="1.38954">
        <ele>47</ele>
        <time>2017-02-07T17:29:32Z</time>
      </trkpt>
      <trkpt lat="49.37501" lon="1.38945">
        <ele>47</ele>
        <time>2017-02-07T17:29:32Z</time>
      </trkpt>
      <trkpt lat="49.37501" lon="1.38929">
        <ele>47</ele>
        <time>2017-02-07T17:29:50Z</time>
      </trkpt>
      <trkpt lat="49.375" lon="1.38919">
        <ele>47</ele>
        <time>2017-02-07T17:29:50Z</time>
      </trkpt>
      <trkpt lat="49.375" lon="1.38911">
        <ele>47</ele>
        <time>2017-02-07T17:29:50Z</time>
      </trkpt>
      <trkpt lat="49.375" lon="1.38904">
        <ele>47</ele>
        <time>2017-02-07T17:29:50Z</time>
      </trkpt>
      <trkpt lat="49.37499" lon="1.38894">
        <ele>47</ele>
        <time>2017-02-07T17:30:07Z</time>
      </trkpt>
      <trkpt lat="49.37499" lon="1.38886">
        <ele>47</ele>
        <time>2017-02-07T17:30:07Z</time>
      </trkpt>
      <trkpt lat="49.37498" lon="1.38877">
        <ele>47</ele>
        <time>2017-02-07T17:30:07Z</time>
      </trkpt>
      <trkpt lat="49.37498" lon="1.38869">
        <ele>47</ele>
        <time>2017-02-07T17:30:07Z</time>
      </trkpt>
      <trkpt lat="49.37498" lon="1.38861">
        <ele>47</ele>
        <time>2017-02-07T17:30:22Z</time>
      </trkpt>
      <trkpt lat="49.37498" lon="1.38852">
        <ele>47</ele>
        <time>2017-02-07T17:30:22Z</time>
      </trkpt>
      <trkpt lat="49.37498" lon="1.38844">
        <ele>47</ele>
        <time>2017-02-07T17:30:22Z</time>
      </trkpt>
      <trkpt lat="49.37498" lon="1.38834">
        <ele>47</ele>
        <time>2017-02-07T17:30:22Z</time>
      </trkpt>
      <trkpt lat="49.37498" lon="1.38828">
        <ele>47</ele>
        <time>2017-02-07T17:30:38Z</time>
      </trkpt>
      <trkpt lat="49.37497" lon="1.38819">
        <ele>47</ele>
        <time>2017-02-07T17:30:38Z</time>
      </trkpt>
      <trkpt lat="49.37497" lon="1.38812">
        <ele>47</ele>
        <time>2017-02-07T17:30:38Z</time>
      </trkpt>
      <trkpt lat="49.37496" lon="1.38805">
        <ele>47</ele>
        <time>2017-02-07T17:30:38Z</time>
      </trkpt>
      <trkpt lat="49.37496" lon="1.38794">
        <ele>47</ele>
        <time>2017-02-07T17:30:56Z</time>
      </trkpt>
      <trkpt lat="49.37496" lon="1.38786">
        <ele>47</ele>
        <time>2017-02-07T17:30:56Z</time>
      </trkpt>
      <trkpt lat="49.37496" lon="1.38777">
        <ele>47</ele>
        <time>2017-02-07T17:30:56Z</time>
      </trkpt>
      <trkpt lat="49.37496" lon="1.38769">
        <ele>47</ele>
        <time>2017-02-07T17:30:56Z</time>
      </trkpt>
      <trkpt lat="49.37497" lon="1.3876">
        <ele>47</ele>
        <time>2017-02-07T17:31:18Z</time>
      </trkpt>
      <trkpt lat="49.37497" lon="1.38759">
        <ele>47</ele>
        <time>2017-02-07T17:31:18Z</time>
      </trkpt>
      <trkpt lat="49.37497" lon="1.38757">
        <ele>47</ele>
        <time>2017-02-07T17:31:18Z</time>
      </trkpt>
      <trkpt lat="49.37496" lon="1.38752">
        <ele>47</ele>
        <time>2017-02-07T17:31:18Z</time>
      </trkpt>
      <trkpt lat="49.37496" lon="1.38745">
        <ele>47</ele>
        <time>2017-02-07T17:31:18Z</time>
      </trkpt>
      <trkpt lat="49.37496" lon="1.38741">
        <ele>47</ele>
        <time>2017-02-07T17:31:51Z</time>
      </trkpt>
      <trkpt lat="49.37495" lon="1.38731">
        <ele>47</ele>
        <time>2017-02-07T17:31:51Z</time>
      </trkpt>
      <trkpt lat="49.37494" lon="1.38722">
        <ele>47</ele>
        <time>2017-02-07T17:31:51Z</time>
      </trkpt>
      <trkpt lat="49.37493" lon="1.38717">
        <ele>47</ele>
        <time>2017-02-07T17:31:51Z</time>
      </trkpt>
      <trkpt lat="49.37493" lon="1.38711">
        <ele>47</ele>
        <time>2017-02-07T17:31:51Z</time>
      </trkpt>
      <trkpt lat="49.37493" lon="1.38704">
        <ele>46</ele>
        <time>2017-02-07T17:32:11Z</time>
      </trkpt>
      <trkpt lat="49.37492" lon="1.38703">
        <ele>46</ele>
        <time>2017-02-07T17:32:11Z</time>
      </trkpt>
      <trkpt lat="49.37495" lon="1.387">
        <ele>46</ele>
        <time>2017-02-07T17:32:11Z</time>
      </trkpt>
      <trkpt lat="49.37494" lon="1.38692">
        <ele>46</ele>
        <time>2017-02-07T17:32:11Z</time>
      </trkpt>
      <trkpt lat="49.37493" lon="1.38683">
        <ele>46</ele>
        <time>2017-02-07T17:32:11Z</time>
      </trkpt>
      <trkpt lat="49.37492" lon="1.38678">
        <ele>46</ele>
        <time>2017-02-07T17:32:27Z</time>
      </trkpt>
      <trkpt lat="49.3749" lon="1.38673">
        <ele>46</ele>
        <time>2017-02-07T17:32:27Z</time>
      </trkpt>
      <trkpt lat="49.37487" lon="1.3866">
        <ele>46</ele>
        <time>2017-02-07T17:32:27Z</time>
      </trkpt>
      <trkpt lat="49.37486" lon="1.38654">
        <ele>46</ele>
        <time>2017-02-07T17:32:27Z</time>
      </trkpt>
      <trkpt lat="49.37488" lon="1.3864">
        <ele>46</ele>
        <time>2017-02-07T17:32:46Z</time>
      </trkpt>
      <trkpt lat="49.3749" lon="1.38632">
        <ele>46</ele>
        <time>2017-02-07T17:32:46Z</time>
      </trkpt>
      <trkpt lat="49.37491" lon="1.38624">
        <ele>45</ele>
        <time>2017-02-07T17:32:46Z</time>
      </trkpt>
      <trkpt lat="49.37492" lon="1.38617">
        <ele>45</ele>
        <time>2017-02-07T17:32:46Z</time>
      </trkpt>
      <trkpt lat="49.37494" lon="1.38606">
        <ele>45</ele>
        <time>2017-02-07T17:33:22Z</time>
      </trkpt>
      <trkpt lat="49.37494" lon="1.38604">
        <ele>45</ele>
        <time>2017-02-07T17:33:22Z</time>
      </trkpt>
      <trkpt lat="49.37494" lon="1.38603">
        <ele>45</ele>
        <time>2017-02-07T17:33:22Z</time>
      </trkpt>
      <trkpt lat="49.37494" lon="1.38595">
        <ele>45</ele>
        <time>2017-02-07T17:33:22Z</time>
      </trkpt>
      <trkpt lat="49.37494" lon="1.3859">
        <ele>45</ele>
        <time>2017-02-07T17:33:22Z</time>
      </trkpt>
    </trkseg>
  </trk>
</gpx>